     2              OBSERVATION DATA                        RINEX VERSION / TYPE
DAT2RIN 1.01d Dan Johnson 20SEP96 4:20:17 GMT               PGM / RUN BY / DATE
Mojave '96 team Central Washington U                        OBSERVER / AGENCY
15926 TRIMBLE 4000SSI Nav 7.09 Sig 3.03                     REC # / TYPE / VERS
63973 TRIMBLE CHOKE                                         ANT # / TYPE
MOJA                                                        MARKER NAME
 -2356494.0000 -4646608.0000  3668427.0000                  APPROX POSITION XYZ
        0.0614        0.0000        0.0000                  ANTENNA: DELTA H/E/N
     1     1     0                                          WAVELENGTH FACT L1/2
     5    L1    C1    P1    L2    P2                        # / TYPES OF OBSERV
    30                                                      INTERVAL
                                                            COMMENT
PANGA GPS Data Analysis Center                              COMMENT
Department of Geology                                       COMMENT
Central Washington University                               COMMENT
Ellensburg, WA 98926                                        COMMENT
                                                            COMMENT
http://www.panga.cwu.edu                                    COMMENT
ftp://panga.cwu.edu                                         COMMENT
                                                            COMMENT
  1996     9    16     0     0   30.000000                  TIME OF FIRST OBS
  1996     9    16    23    59    0.000000                  TIME OF LAST OBS
    25                                                      # OF SATELLITES
           1   751   751     0   748   748                  PRN / # OF OBS
           2   854   855     0   848   848                  PRN / # OF OBS
           3   918   918     0   913   913                  PRN / # OF OBS
           4   764   765     0   758   758                  PRN / # OF OBS
           5   718   718     0   716   716                  PRN / # OF OBS
           6   780   780     0   772   772                  PRN / # OF OBS
           7   746   746     0   743   743                  PRN / # OF OBS
           9   881   881     0   871   871                  PRN / # OF OBS
          10   885   885     0   878   878                  PRN / # OF OBS
          14   708   708     0   706   706                  PRN / # OF OBS
          15   886   887     0   878   878                  PRN / # OF OBS
          16   911   911     0   902   902                  PRN / # OF OBS
          17   856   856     0   854   854                  PRN / # OF OBS
          18   765   765     0   763   763                  PRN / # OF OBS
          19   853   854     0   851   851                  PRN / # OF OBS
          21   861   861     0   857   857                  PRN / # OF OBS
          22   898   898     0   888   888                  PRN / # OF OBS
          23   803   803     0   800   800                  PRN / # OF OBS
          24   706   706     0   701   701                  PRN / # OF OBS
          25   663   664     0   661   661                  PRN / # OF OBS
          26   938   938     0   932   932                  PRN / # OF OBS
          27   818   818     0   815   815                  PRN / # OF OBS
          28   725     0   728   725   725                  PRN / # OF OBS
          29   852   852     0   850   850                  PRN / # OF OBS
          31   931   931     0   926   926                  PRN / # OF OBS
                                                            END OF HEADER
 96  9 16  0  0 30.0000000  0  7  1 14 15 21 22 25 29
  38163212.89210  23684885.96900                  29833860.68650  23684890.12940
  -2505146.97310  22395668.28900                  -1929679.87850  22395672.05140
   3306553.09910  21119098.40600                   2650918.16450  21119102.37940
  49826786.62510  24428496.28100
  13317897.24850  24428502.41040                    -47819.65010  24640528.71100
   4230994.24110  20966302.53100                   3340869.77450  20966304.85240
   -123152.58510  22680277.33600                    -74997.68850  22680280.85240
 96  9 16  0  1  0.0000000  0  7  1 14 15 21 22 25 29
  38305397.50300  23711943.23400                  29944653.87640  23711947.40640
  -2516250.88700  22393555.42200                  -1938332.24340  22393559.12540
   3400474.77400  21136971.01600                   2724103.87840  21136974.98840
  49989831.69100  24459523.69500                  13444945.27940  24459528.02040
    -74888.74600  24635376.96100                    -17577.19950  24635382.39840
   4322711.61700  20983755.75000                   3412337.86540  20983758.11740
   -110064.78100  22682767.86700                    -64799.35140  22682770.58640
 96  9 16  0  1 30.0000000  0  7  1 14 15 21 22 25 29
  38447582.15100  23739000.07000                  30055447.10340  23739003.82040
  -2527259.09600  22391460.39800                  -1946910.02540  22391464.50040
   3494970.83000  21154952.82000                   2797737.15940  21154956.95740
  50153023.22900  24490577.87500                  13572107.47140  24490581.21540
   -102037.61700  24630211.16400                    -38732.08440  24630218.37540
   4414908.40100  21001300.39100                   3484179.52540  21001302.92240
    -96857.55600  22685281.13300                    -54507.97640  22685284.35540
 96  9 16  0  2  0.0000000  0  7  1 14 15 21 22 25 29
  38589840.24300  23766071.07800                  30166297.54540  23766075.25040
  -2538101.47000  22389397.44500                  -1955358.59440  22389401.45340
   3590107.76300  21173056.83600                   2871869.82940  21173060.79740
  50316442.09600  24521674.98400                  13699446.79340  24521679.29740
   -129200.65300  24625042.58600                    -59897.94540  24625049.53940
   4507653.31600  21018949.10200                   3556448.30240  21018951.55140
    -83467.01400  22687829.08600                    -44073.73740  22687832.09840
 96  9 16  0  2 30.0010000  0  7  1 14 15 21 22 25 29
  38732068.18100  23793135.81700                  30277124.50640  23793139.67340
  -2548874.59000  22387347.29400                  -1963753.19840  22387351.32540
   3685791.06000  21191265.13000                   2946428.23340  21191269.07940
  50479996.65600  24552798.36400                  13826891.83140  24552803.72040
   -156470.00900  24619850.41900                    -81146.65540  24619857.38440
   4600844.02800  21036682.66100                   3629064.44940  21036685.18140
    -69985.51300  22690394.35600                    -33568.63940  22690397.23940
 96  9 16  0  3  0.0010000  0  7  1 14 15 21 22 25 29
  38874300.47400  23820201.74700                  30387954.85540  23820206.25940
  -2559513.37600  22385322.50500                  -1972043.13240  22385326.45440
   3782075.89500  21209587.22400                   3021455.37040  21209591.19640
  50643720.61100  24583953.59100                  13954468.90140  24583960.41140
   -183792.90000  24614652.49700                   -102437.03240  24614659.18840
   4694507.08500  21054506.17700                   3702048.66140  21054508.64940
    -56348.34300  22692989.31000                    -22942.23040  22692992.45040
 96  9 16  0  3 30.0010000  0  7  1 14 15 21 22 25 29
  39016573.71100  23847275.53600                  30498817.12140  23847279.96640
  -2569967.62200  22383333.25500                  -1980189.26540  22383337.00540
   3878994.43200  21228030.23100                   3096976.30140  21228034.23940
  50807655.86600  24615150.47400                  14082210.61240  24615157.88440
   -211156.39600  24609446.49700                   -123759.09440  24609455.11440
   4788662.91300  21072423.27100                   3775416.85240  21072425.72040
    -42522.63000  22695620.55200                    -12168.90240  22695623.64640
 96  9 16  0  4  0.0010000  0  7  1 14 15 21 22 25 29
  39158875.37600  23874354.75500                  30609701.52940  23874358.52840
  -2580243.95300  22381377.73900                  -1988196.76540  22381381.46640
   3976538.38800  21246592.28600                   3172984.56740  21246596.16540
  50971810.64100  24646387.51300                  14210123.36840  24646392.09540
   -238561.45400  24604231.23100                   -145113.61840  24604236.97440
   4883301.70100  21090432.48900                   3849161.37340  21090434.97440
    -28526.74800  22698283.76300                     -1262.98440  22698286.99740
 96  9 16  0  4 30.0010000  0  7  1 14 15 21 22 25 29
  39301102.81500  23901419.49700                  30720528.09040  23901424.48940
  -2590431.52000  22379439.13000                  -1996135.10240  22379442.48140
   4074609.97700  21265254.68500                   3249403.97640  21265258.43540
  51136074.28600  24677646.12200                  14338120.86640  24677652.18140
   -266109.89800  24598989.82500                   -166579.82540  24598994.25540
   4978321.43700  21108514.16100                   3923202.73640  21108516.61040
    -14464.49000  22700959.87200                      9694.65040  22700962.91940
 96  9 16  0  5  0.0010000  0  7  1 14 15 21 22 25 29
  39443330.25300  23928484.07500                  30831354.63840  23928487.90740
  -2600463.86000  22377530.04400                  -2003952.47740  22377533.13840
   4173266.74500  21284028.38000                   3326279.37040  21284032.29440
  51300515.44100  24708938.45000                  14466256.83040  24708941.50940
   -293745.99600  24593730.20800                   -188114.36940  24593736.72440
   5073793.39800  21126681.81000                   3997596.49240  21126684.36440
      -294.62700  22703656.21600                     20736.13140  22703659.06340
 96  9 16  0  5 30.0010000  0  7  1 14 15 21 22 25 29
  39585615.30600  23955560.52800                  30942226.10840  23955564.81740
  -2610297.42100  22375658.86400                  -2011614.95740  22375662.38040
   4272554.24300  21302922.25500                   3403646.24440  21302926.08740
  51465197.97300  24740276.34100                  14594580.79640  24740279.27140
   -321402.07100  24588466.41100                   -209664.42040  24588470.68840
   5169786.70200  21144948.82500                   4072396.48140  21144951.18140
     14024.92500  22706381.20000                     31894.25340  22706383.89640
 96  9 16  0  6  0.0010000  0  7  1 14 15 21 22 25 29
  39727961.71600  23982648.28600                  31053145.35640  23982651.57940
  -2619940.01300  22373823.81000                  -2019128.63840  22373827.33740
   4372481.83600  21321937.52800                   3481511.89040  21321941.75940
  51630128.85600  24771661.77800                  14723098.30540  24771668.25940
   -349054.31000  24583204.28600                   -231211.52940  24583211.15740
   5266315.26000  21163317.63000                   4147613.55240  21163320.00940
     28523.26100  22709140.12200                     43191.69340  22709143.53240
 96  9 16  0  6 30.0010000  0  7  1 14 15 21 22 25 29
  39870318.18300  24009737.63000                  31164072.47540  24009741.18140
  -2629427.14100  22372018.35600                  -2026521.17840  22372021.59140
   4473006.88000  21341067.13000                   3559843.08540  21341071.25540
  51795252.16900  24803084.31000                  14851765.75440  24803089.13840
   -376752.18700  24577933.81000                   -252794.16440  24577940.20840
   5363342.99000  21181781.43500                   4223219.58840  21181783.74340
     43178.82200  22711928.63800                     54611.63340  22711931.64940
 96  9 16  0  7  0.0010000  0  7  1 14 15 21 22 25 29
  40012677.65400  24036827.80200                  31275001.92540  24036831.85640
  -2638766.47700  22370241.04400                  -2033798.55840  22370244.44240
   4574126.99700  21360309.81700                   3638637.97440  21360313.83740
  51960569.54800  24834542.96600                  14980584.41340  24834549.01340
   -404492.58500  24572655.30200                   -274409.93440  24572661.95840
   5460868.84100  21200339.89600                   4299213.77240  21200342.33340
     57998.22200  22714748.79400                     66159.24740  22714751.89940
 96  9 16  0  7 30.0010000  0  6  1 14 15 22 25 29
  40155010.12800  24063913.07500                  31385910.32740  24063918.48940
  -2647975.34000  22368488.84900                  -2040974.26140  22368492.34140
   4675826.02900  21379662.41900                   3717883.95940  21379666.38040
   -432293.94200  24567364.36400                   -296073.20640  24567371.27140
   5558867.75300  21218988.44200                   4375576.57040  21218990.72840
     72983.31100  22717600.54400                     77835.96040  22717603.36840
 96  9 16  0  8  0.0010000  0  6  1 14 15 22 25 29
  40297343.37900  24090997.58300                  31496819.33240  24091001.63840
  -2657023.11000  22366766.92700                  -2048024.44640  22366770.73540
   4778130.43100  21399130.27800                   3797601.66640  21399134.28640
   -460137.35000  24562066.20800                   -317769.29140  24562070.96640
   5657358.06600  21237730.52800                   4452322.27740  21237732.93140
     88164.63400  22720489.02800                     89665.59840  22720492.04040
 96  9 16  0  8 30.0010000  0  6  1 14 15 22 25 29
  40439687.03600  24118085.30200                  31607736.47640  24118089.63840
  -2665907.60900  22365076.38000                  -2054947.40640  22365080.18840
   4881037.09300  21418712.79400                   3877788.66940  21418716.82540
   -488022.67600  24556758.98900                   -339498.02040  24556764.21640
   5756329.84100  21256564.08300                   4529443.14940  21256566.53240
    103521.76400  22723411.46600                    101632.21940  22723414.68840
 96  9 16  0  9  0.0010000  0  6  1 14 15 22 25 29
  40582074.25700  24145180.40300                  31718687.53040  24145184.56340
  -2674610.44400  22363420.39600                  -2061728.81840  22363423.97040
   4984560.73900  21438412.59900                   3958456.43640  21438416.60640
   -515918.89800  24551450.98100                   -361235.25340  24551457.75540
   5855789.75200  21275490.74700                   4606944.38240  21275493.16140
    119058.41900  22726368.19200                    113738.72540  22726371.19240
 96  9 16  0  9 30.0010000  0  6  1 14 15 22 25 29
  40724469.59200  24172277.55200                  31829644.90040  24172281.67740
  -2683174.90500  22361790.27100                  -2068402.40740  22361793.82140
   5088652.14300  21458220.57500                   4039566.60740  21458224.59540
   -543866.10100  24546132.63800                   -383012.17740  24546140.69240
   5955692.42400  21294501.47400                   4684790.62740  21294503.93540
    134729.76400  22729350.16100                    125950.19440  22729353.14940
 96  9 16  0 10  0.0010000  0  6  1 14 15 22 25 29
  40866933.93700  24199387.29400                  31940656.08540  24199392.12240
  -2691534.66600  22360199.77800                  -2074916.48440  22360203.32940
   5193363.92100  21478146.39600                   4121160.19040  21478150.43840
   -571795.04200  24540817.23100                   -404774.85440  24540823.34940
   6056093.24800  21313607.26300                   4763025.03840  21313609.61840
    150587.15100  22732367.82500                    138306.61940  22732370.88440
 96  9 16  0 10 30.0010000  0  6  1 14 15 22 25 29
  41009454.73900  24226508.71600                  32051711.23140  24226513.14640
  -2699686.47000  22358648.62200                  -2081268.52140  22358652.14940
   5298688.38600  21498189.19200                   4203231.18940  21498193.08340
   -599706.70600  24535506.41100                   -426524.08840  24535512.81040
   6156985.29000  21332806.23100                   4841642.22140  21332808.71640
    166628.21900  22735420.35600                    150806.18440  22735423.47440
 96  9 16  0 11  0.0010000  0  6  1 14 15 22 25 29
  41152007.35900  24253635.52100                  32162791.17540  24253640.80640
  -2707628.90700  22357136.91100                  -2087457.40640  22357140.47440
   5404615.43100  21518346.39600                   4285771.73540  21518350.18140
   -627605.03100  24530197.31000                   -448262.95340  24530203.31040
   6258359.50500  21352097.15300                   4920635.11940  21352099.66140
    182854.45700  22738508.17700                    163450.03540  22738510.94240
 96  9 16  0 11 30.0010000  0  6  1 14 15 22 25 29
  41294547.03600  24280759.71600                  32273861.02240  24280763.23140
  -2715389.20700  22355660.28600                  -2093504.37040  22355663.73140
   5511113.42500  21538612.31700                   4368757.17140  21538616.26740
   -655512.81500  24524886.43500                   -470009.15740  24524893.39940
   6360201.21400  21371477.04400                   4999992.30340  21371479.52840
    199245.53500  22741627.34100                    176222.32640  22741629.91940
 96  9 16  0 12  0.0010000  0  6  1 14 15 22 25 29
  41437080.59100  24307882.86400                  32384926.13740  24307887.89240
  -2722960.51600  22354219.18500                  -2099404.06640  22354222.89940
   5618190.23000  21558988.20800                   4452193.63140  21558992.38040
   -683415.63600  24519575.95000                   -491751.47040  24519583.14940
   6462514.38900  21390946.61400                   5079716.86340  21390948.97040
    215802.62100  22744777.60600                    189123.98340  22744780.46640
 96  9 16  0 12 30.0010000  0  6  1 14 15 22 25 29
  41579620.47900  24335007.59100                  32495996.15940  24335011.83340
  -2730349.80900  22352813.40300                  -2105161.93640  22352816.97840
   5725853.09200  21579476.01300                   4536086.75640  21579480.04440
   -711312.41300  24514267.73100                   -513489.10640  24514273.31040
   6565304.07200  21410506.73100                   5159812.73040  21410509.12240
    232523.00800  22747959.56700                    202152.88340  22747962.68540
 96  9 16  0 13  0.0010000  0  6  1 14 15 22 25 29
  41722141.82700  24362127.84900                  32607051.72940  24362132.43140
  -2737591.73700  22351435.06000                  -2110804.97740  22351438.34140
   5834068.01000  21600068.44200                   4620410.05540  21600072.29840
   -739230.51300  24508955.03600                   -535243.34940  24508960.46240
   6668537.22200  21430151.51300                   5240254.15640  21430153.86840
    249361.80500  22751163.79400                    215274.05440  22751166.63040
 96  9 16  0 13 30.0010000  0  6  1 14 15 22 25 29
  41864666.53200  24389249.48900                  32718109.91940  24389255.11440
  -2744684.61300  22350085.54400                  -2116331.86740  22350088.95440
   5942836.75800  21620766.48900                   4705164.91040  21620770.56740
   -767165.72100  24503639.34900                   -557010.92340  24503645.79440
   6772221.43900  21449881.91100                   5321047.06540  21449884.23140
    266315.31800  22754389.97400                    228484.61040  22754392.82140
 96  9 16  0 14  0.0020000  0  6  1 14 15 22 25 29
  42007231.50700  24416378.52500                  32829199.49240  24416382.55740
  -2751598.38700  22348769.68900                  -2121719.20840  22348773.02940
   6052184.60300  21641574.73600                   4790371.00740  21641578.74440
   -795104.42700  24498322.43200                   -578781.22440  24498328.90040
   6876362.27400  21469699.24400                   5402195.78040  21469701.55340
    283402.15300  22757641.33800                    241799.07240  22757644.51440
 96  9 16  0 14 30.0020000  0  6  1 14 15 22 25 29
  42149774.09600  24443504.23600                  32940271.62240  24443508.61940
  -2758352.98400  22347484.50200                  -2126982.50140  22347487.99440
   6162061.02300  21662483.50200                   4875988.98340  21662487.63940
   -823084.41400  24492998.46300                   -600583.68940  24493003.16240
   6980910.26500  21489593.94700                   5483661.75240  21489596.44340
    300590.43300  22760912.37700                    255192.56540  22760915.10740
 96  9 16  0 15  0.0020000  0  6  1 14 15 22 25 29
  42292352.62500  24470635.40000                  33051371.77240  24470639.65440
  -2764870.40600  22346244.16600                  -2132060.99440  22346247.78740
   6272531.77400  21683505.54900                   4962070.07840  21683509.68640
   -851038.49400  24487678.29100                   -622365.99640  24487684.32640
   7085927.26300  21509578.14300                   5565493.19140  21509580.54540
    317960.83400  22764217.67400                    268727.97940  22764220.15840
 96  9 16  0 15 30.0020000  0  6  1 14 15 22 25 29
  42434940.32000  24497769.58000                  33162479.06340  24497773.48240
  -2771166.78800  22345046.18200                  -2136967.24440  22345049.66240
   6383576.59200  21704636.58800                   5048598.49240  21704640.72540
   -878986.71300  24482360.10400                   -644143.71340  24482366.19740
   7191387.34300  21529646.40000                   5647669.88740  21529648.70940
    335504.61600  22767556.23600                    282398.49840  22767559.14340
 96  9 16  0 16  0.0020000  0  6  1 14 15 22 25 29
  42577520.80700  24524900.88500                  33273580.72040  24524903.99040
  -2777244.66000  22343889.51000                  -2141703.22740  22343892.97940
   6495194.35100  21725876.82200                   5135573.35740  21725880.87740
   -906919.82100  24477044.79900                   -665909.67540  24477050.50640
   7297282.58500  21549797.61100                   5730185.67140  21549799.88540
    353221.81900  22770927.65800                    296204.14140  22770930.44740
 96  9 16  0 16 30.0020000  0  6  1 14 15 22 25 29
  42720090.27700  24552032.11900                  33384673.77940  24552037.47540
  -2783124.88100  22342770.55700                  -2146285.19640  22342774.02540
   6607382.49700  21747225.41600                   5222992.67740  21747229.43640
   -934825.16000  24471734.22100                   -687653.98040  24471738.21740
   7403619.90900  21570032.89300                   5813045.92840  21570035.20140
    371111.12800  22774331.74400                    310143.88840  22774334.66240
 96  9 16  0 17  0.0020000  0  6  1 14 15 22 25 29
  42862619.67000  24579154.61900                  33495735.65440  24579159.21340
  -2788870.85500  22341677.19700                  -2150762.55840  22341680.47940
   6720098.06300  21768674.69700                   5310822.97840  21768678.60040
   -962740.02700  24466422.73600                   -709405.72840  24466428.44340
   7510362.33300  21590345.47100                   5896221.85340  21590347.79140
    389120.54900  22777759.07200                    324177.23640  22777761.74440
 96  9 16  0 17 30.0020000  0  6  1 14 15 22 25 29
  43005128.50800  24606271.65000                  33606781.46740  24606275.99840
  -2794467.37500  22340611.98600                  -2155123.45940  22340615.16240
   6833353.25000  21790226.37700                   5399073.76140  21790230.58440
   -990646.47400  24461111.90800                   -731150.90840  24461117.15840
   7617541.78100  21610741.01800                   5979738.31340  21610743.35040
    407251.22800  22781208.79100                    338305.06640  22781211.42840
 96  9 16  0 18  0.0020000  0  6  1 14 15 22 25 29
  43147652.09600  24633394.48600                  33717838.81140  24633399.22140
  -2799883.54400  22339581.43900                  -2159343.83540  22339584.83840
   6947171.50200  21811885.08000                   5487763.30440  21811889.01840
  -1018515.28800  24455808.40800                   -752866.76240  24455813.99840
   7725191.41100  21631225.93900                   6063621.15240  21631228.26040
    425529.75800  22784687.21300                    352548.11140  22784690.04940
 96  9 16  0 18 30.0020000  0  6  1 14 15 22 25 29
  43290186.93100  24660517.65000                  33828904.90640  24660521.74040
  -2805111.53700  22338586.35400                  -2163417.57040  22338589.45940
   7061542.78400  21833649.18900                   5576883.77740  21833653.06840
  -1046360.78500  24450509.42400                   -774564.46140  24450515.63540
   7833312.11000  21651800.77500                   6147871.05640  21651803.07240
    443952.74400  22788193.02500                    366903.72340  22788195.81440
 96  9 16  0 19  0.0020000  0  6  1 14 15 22 25 29
  43432699.09300  24687636.97900                  33939953.31640  24687642.55740
  -2810158.10800  22337626.15800                  -2167349.94740  22337629.56840
   7176435.41100  21855512.65000                   5666410.49140  21855516.78740
  -1074225.07400  24445207.25200                   -796276.80640  24445213.24040
   7941873.62900  21672459.19700                   6232464.45240  21672461.49440
    462476.70100  22791717.93200                    381338.00340  22791720.51040
 96  9 16  0 19 30.0020000  0  6  1 14 15 22 25 29
  43575240.59600  24714761.59600                  34051024.61640  24714766.56440
  -2814949.88900  22336714.29900                  -2171083.78640  22336717.63940
   7291908.42700  21877486.43900                   5756389.45840  21877490.45940
  -1102038.37300  24439914.22900                   -817949.40540  24439920.83840
   8050928.36400  21693211.49400                   6317442.17540  21693213.82640
    481168.43200  22795274.87700                    395903.02140  22795277.52540
 96  9 16  0 20  0.0020000  0  6  1 14 15 22 25 29
  43717770.96800  24741883.89300                  34162087.22440  24741886.65840
  -2819531.36600  22335842.43900                  -2174653.74440  22335845.80340
   7407916.04700  21899561.93900                   5846785.00040  21899565.93640
  -1129833.33800  24434624.72900                   -839607.72040  24434629.59240
   8160409.16100  21714045.23600                   6402751.89540  21714047.51040
    499992.43100  22798856.91600                    410571.10640  22798859.77540
 96  9 16  0 20 30.0020000  0  6  1 14 15 22 25 29
  43860283.13400  24769002.58000                  34273135.66240  24769006.99840
  -2823922.68200  22335006.70500                  -2178075.52740  22335009.86940
   7524450.72700  21921737.61100                   5937591.24340  21921741.70140
  -1157611.04100  24429339.15000                   -861252.59540  24429344.24840
   8270304.23300  21734957.42400                   6488384.42740  21734959.72140
    518923.19900  22802459.23600                    425322.39340  22802462.10740
 96  9 16  0 21  0.0020000  0  6  1 14 15 22 25 29
  44002813.50800  24796126.82200                  34384198.25640  24796130.91240
  -2828093.96800  22334213.15000                  -2181325.85540  22334216.58440
   7641543.79300  21944019.83000                   6028832.59240  21944023.81440
  -1185322.73600  24424065.55700                   -882846.00440  24424071.45140
   8380634.66700  21755952.72900                   6574356.19940  21755955.01440
    537997.21000  22806088.93900                    440185.29140  22806091.85740
 96  9 16  0 21 30.0020000  0  6  1 14 15 22 25 29
  44145291.93100  24823238.79100                  34495220.39840  24823242.21340
  -2832119.50800  22333446.82200                  -2184462.62540  22333450.02140
   7759112.83100  21966392.55700                   6120444.82340  21966396.63540
  -1213033.12100  24418791.61100                   -904438.40840  24418797.02540
   8491312.55500  21777014.01800                   6660598.71440  21777016.35040
    557160.93000  22809735.63500                    455118.09240  22809738.09640
 96  9 16  0 22  0.0020000  0  6  1 14 15 22 25 29
  44287851.48400  24850367.63500                  34606305.75040  24850371.26840
  -2835876.06400  22332731.79900                  -2187389.78740  22332735.33840
   7877279.69900  21988878.72100                   6212522.89840  21988882.82240
  -1240630.00600  24413540.74400                   -925942.36540  24413547.08440
   8602456.92200  21798164.02500                   6747204.72640  21798166.42840
    576531.09000  22813421.51800                    470211.75040  22813424.26040
 96  9 16  0 22 30.0020000  0  6  1 14 15 22 25 29
  44430402.69000  24877494.38500                  34717384.59540  24877499.04940
  -2839439.47400  22332053.97100                  -2190166.44240  22332057.46340
   7995959.23000  22011462.90800                   6305000.45140  22011466.83440
  -1268202.50900  24408293.45500                   -947427.33840  24408299.13940
   8713996.16400  21819389.02500                   6834118.43040  21819391.20540
    596032.03300  22817132.38500                    485407.31640  22817134.96340
 96  9 16  0 23  0.0020000  0  6  1 14 15 22 25 29
  44572982.82100  24904626.52500                  34828485.98540  24904630.54540
  -2842744.63200  22331425.06400                  -2192741.86840  22331428.45140
   8115193.88800  22034152.58000                   6397910.56940  22034156.64640
  -1295709.60900  24403059.42400                   -968861.32740  24403065.41240
   8825967.04000  21840696.41600                   6921368.47140  21840698.66640
    615736.12300  22820882.15000                    500761.17840  22820884.88140
 96  9 16  0 23 30.0020000  0  6  1 14 15 22 25 29
  44715540.72300  24931753.79100                  34939570.07440  24931757.78740
  -2845845.03900  22330834.79100                  -2195157.75540  22330838.15440
   8234930.54600  22056937.63500                   6491211.85740  22056941.76040
  -1323211.71100  24397825.47100                   -990291.42540  24397830.79140
   8938319.02600  21862076.40000                   7008915.47740  21862078.58040
    635585.13500  22824659.36900                    516227.97140  22824661.87740
 96  9 16  0 24  0.0020000  0  6  1 14 15 22 25 29
  44858114.12200  24958883.24400                  35050666.22040  24958888.26040
  -2848702.49600  22330291.16600                  -2197384.32540  22330294.50640
   8355215.52300  22079827.01000                   6584940.40540  22079831.19340
  -1350652.00600  24392603.76800                  -1011673.34440  24392609.47540
   9051105.67800  21883538.95500                   7096801.18840  21883541.14640
    655611.57500  22828470.07200                    531833.01140  22828472.72140
 96  9 16  0 24 30.0020000  0  6  1 14 15 22 25 29
  45000623.99400  24986003.58800                  35161712.86240  24986007.30340
  -2851373.35400  22329782.87700                  -2199465.50140  22329786.14640
   8475982.84300  22102808.33800                   6679044.80840  22102812.53340
  -1378071.93500  24387385.70500                  -1033039.41640  24387391.99840
   9164263.88300  21905072.19700                   7184976.41640  21905074.58840
    675755.35100  22832303.20500                    547529.48340  22832305.81840
 96  9 16  0 25  0.0020000  0  6  1 14 15 22 25 29
  45143156.33200  25013125.41600                  35272777.00340  25013129.56440
  -2853769.29700  22329327.02500                  -2201332.45840  22329330.52940
   8597319.05700  22125897.87700                   6773592.50440  22125901.87340
  -1405373.05700  24382190.66600                  -1054312.89540  24382196.51440
   9277872.37100  21926691.23600                   7273502.51740  21926693.58040
    696093.85500  22836173.56400                    563377.69940  22836176.22540
 96  9 16  0 25 30.0020000  0  6  1 14 15 22 25 29
  45285645.83100  25040240.66600                  35383807.76440  25040244.81440
  -2855956.54400  22328910.68200                  -2203036.78940  22328914.25640
   8719160.93800  22149083.45500                   6868534.22140  22149087.42840
  -1432598.34800  24377009.89300                  -1075527.31140  24377016.29140
   9391876.29400  21948385.33800                   7362336.74540  21948387.60040
    716545.39900  22840065.10400                    579313.99840  22840067.56440
 96  9 16  0 26  0.0030000  0  6  1 14 15 22 25 29
  45428093.43600  25067347.65500                  35494805.87140  25067352.67140
  -2857930.97800  22328535.12400                  -2204575.29140  22328538.53440
   8841517.23000  22172367.14700                   6963876.77540  22172371.12040
  -1459734.49300  24371846.42900                  -1096672.24540  24371852.05440
   9506284.85300  21970156.62400                   7451486.27540  21970158.92140
    737118.43600  22843980.31900                    595344.96040  22843983.01540
 96  9 16  0 26 30.0030000  0  6  1 14 15 22 25 29
  45570534.43000  25094453.84300                  35605798.87340  25094457.53440
  -2859644.40700  22328209.03800                  -2205910.41340  22328212.57740
   8964418.21200  22195754.34300                   7059643.76840  22195758.43340
  -1486749.80500  24366705.02200                  -1117723.02540  24366709.92140
   9621128.29200  21992010.45200                   7540974.67440  21992012.81940
    757860.78500  22847927.37400                    611507.85540  22847930.22240
 96  9 16  0 27  0.0030000  0  6  1 14 15 22 25 29
  45712921.49100  25121548.74100                  35716749.78940  25121552.51540
  -2861160.81700  22327920.60800                  -2207092.01740  22327923.80840
   9087798.34400  22219232.82700                   7155784.12040  22219236.87040
  -1513716.30300  24361573.73300                  -1138735.77140  24361579.06540
   9736346.44900  22013935.89700                   7630755.05440  22013938.20640
    778702.20600  22851893.43700                    627747.95440  22851895.94440
 96  9 16  0 27 30.0030000  0  6  1 14 15 22 25 29
  45855304.22100  25148643.15500                  35827697.36240  25148645.46440
  -2862445.04300  22327675.65500                  -2208092.69440  22327678.93740
   9211688.51800  22242808.47600                   7252321.91240  22242812.58940
  -1540596.40100  24356458.33500                  -1159681.21340  24356463.09340
   9851980.37800  22035940.38200                   7720859.42340  22035942.62040
    799673.85400  22855884.06200                    644089.53640  22855886.47640
 96  9 16  0 28  0.0030000  0  6  1 14 15 22 25 29
  45997675.39300  25175734.49900                  35938635.92840  25175739.01140
  -2863507.51300  22327473.56200                  -2208920.57740  22327476.98340
   9336066.41900  22266476.86600                   7349239.74640  22266480.76940
  -1567413.55200  24351355.26500                  -1180577.57240  24351361.08940
   9968012.13200  22058020.35100                   7811273.77740  22058022.72940
    820765.46900  22859897.60800                    660524.60140  22859900.25740
 96  9 16  0 28 30.0030000  0  6  1 14 15 22 25 29
  46139997.05700  25202817.96000                  36049535.88840  25202822.84740
  -2864383.72300  22327306.83500                  -2209603.32340  22327310.10440
   9460878.83900  22290227.66300                   7446496.17640  22290231.65940
  -1594216.42800  24346254.44400                  -1201462.85040  24346260.17540
  10084393.34600  22080166.85800                   7901960.44440  22080169.20240
    841921.46300  22863923.42100                    677009.82940  22863926.02240
 96  9 16  0 29  0.0030000  0  6  1 14 15 22 25 29
  46282365.99500  25229911.67900                  36160472.73040  25229915.59340
  -2864971.78400  22327195.06200                  -2210061.53540  22327198.36640
   9586218.03900  22314079.10100                   7544163.07640  22314083.10840
  -1620909.70800  24341174.18700                  -1222262.69540  24341180.01140
  10201211.60400  22102396.76500                   7992987.67140  22102399.09740
    863235.21400  22867979.29600                    693617.98940  22867981.99140
 96  9 16  0 29 30.0030000  0  6  1 14 15 22 25 29
  46424804.87400  25257016.39000                  36271464.04640  25257021.10140
  -2865250.89600  22327142.30400                  -2210279.01240  22327145.70240
   9712108.61300  22338035.42900                   7642259.62340  22338039.42540
  -1647479.12800  24336118.62400                  -1242966.04140  24336124.40140
  10318482.04500  22124712.47600                   8084367.24140  22124714.86640
    884737.99400  22872071.18700                    710373.43440  22872073.81240
 96  9 16  0 30  0.0030000  0  6  1 14 15 22 25 29
  46567248.02900  25284121.60800                  36382458.72240  25284126.57740
  -2865268.81100  22327138.44400                  -2210292.94940  22327141.70240
   9838497.24300  22362086.39700                   7740744.26040  22362090.44040
  -1673983.77300  24331074.76500                  -1263618.92640  24331078.26940
  10436133.68800  22147100.80400                   8176043.85940  22147103.10140
    906387.08100  22876190.85100                    727242.88640  22876193.55840
 96  9 16  0 30 30.0030000  0  6  1 14 15 22 25 29
  46709684.30600  25311226.53000                  36493447.98740  25311231.41740
  -2865041.88900  22327181.87400                  -2210116.11240  22327185.12040
   9965371.42600  22386229.53000                   7839607.25440  22386233.69040
  -1700433.28100  24326041.81200                  -1284228.83740  24326046.69840
  10554146.13600  22169558.10100                   8268001.61640  22169560.45640
    928175.39700  22880336.81900                    744220.81740  22880339.19840
 96  9 16  0 31  0.0030000  0  6  1 14 15 22 25 29
  46852098.15000  25338326.49900                  36604419.80940  25338332.20640
  -2864586.23300  22327268.29600                  -2209761.03140  22327271.54240
  10092713.25100  22410461.78000                   7938834.64640  22410466.08140
  -1726828.19800  24321018.44400                  -1304796.20540  24321023.34340
  10672495.95700  22192079.28800                   8360222.26540  22192081.66740
    950091.70900  22884507.53000                    761298.49540  22884510.06240
 96  9 16  0 31 30.0030000  0  6  1 14 15 22 25 29
  46994434.75300  25365412.68700                  36715331.44540  25365417.87840
  -2863961.34500  22327387.29600                  -2209274.08540  22327390.69440
  10220470.39600  22434773.22600                   8038385.65940  22434777.33940
  -1753188.17900  24316002.85800                  -1325336.35840  24316007.56940
  10791140.81600  22214656.35800                   8452672.81140  22214658.65540
    972083.45000  22888692.35800                    778434.94640  22888694.79640
 96  9 16  0 32  0.0030000  0  6  1 14 15 22 25 29
  47136794.55100  25392503.31200                  36826261.12640  25392507.46040
  -2863049.07200  22327560.95200                  -2208563.20240  22327564.15140
  10348753.69200  22459184.94400                   8138346.66340  22459189.09340
  -1779378.70000  24311018.93700                  -1345744.47240  24311023.82340
  10910205.38200  22237313.91300                   8545450.41140  22237316.19840
    994263.15400  22892912.59300                    795717.86140  22892915.27640
 96  9 16  0 32 30.0030000  0  6  1 14 15 22 25 29
  47279160.66500  25419594.21800                  36937195.73040  25419600.15940
  -2861867.66300  22327785.51500                  -2207642.60140  22327788.98340
  10477538.02900  22483691.59300                   8238698.08140  22483695.62440
  -1805406.40600  24306065.67900                  -1366025.69340  24306071.50340
  11029674.24700  22260047.94400                   8638543.04040  22260050.35840
   1016604.30500  22897164.30400                    813126.57440  22897166.78840
 96  9 16  0 33  0.0030000  0  6  1 14 15 22 25 29
  47421445.15800  25446670.01500                  37048066.75840  25446675.80440
  -2860488.88900  22328047.80400                  -2206568.21440  22328051.28440
  10606744.78100  22508278.81900                   8339378.66240  22508282.89740
  -1831335.23700  24301131.49900                  -1386229.90940  24301136.30440
  11149465.97700  22282843.53800                   8731887.25440  22282846.02240
   1039020.48600  22901429.95200                    830593.75840  22901432.15540
 96  9 16  0 33 30.0030000  0  6  1 14 15 22 25 29
  47563675.53300  25473734.48300                  37158895.61040  25473739.64040
  -2858875.58000  22328354.89700                  -2205311.06940  22328358.21440
  10736414.94500  22532954.32700                   8440420.34540  22532958.49940
  -1857128.41800  24296222.84300                  -1406328.40440  24296228.72640
  11269632.69500  22305710.36600                   8825523.66540  22305712.88640
   1061549.97000  22905717.01500                    848149.23040  22905719.74540
 96  9 16  0 34  0.0030000  0  6  1 14 15 22 25 29
  47705892.06600  25500797.92100                  37269713.68340  25500801.03840
  -2856981.89500  22328715.35100                  -2203835.45040  22328718.87840
  10866577.23900  22557723.42100                   8541845.50240  22557727.44040
  -1882779.67400  24291341.79600                  -1426316.31740  24291346.34340
  11390196.12800  22328652.95200                   8919469.20240  22328655.17940
   1084220.28200  22910030.89000                    865814.43540  22910033.62040
 96  9 16  0 34 30.0030000  0  6  1 14 15 22 25 29
  47848068.34100  25527853.54600                  37380500.36340  25527857.43740
  -2854846.00700  22329121.63200                  -2202171.10040  22329124.83140
  10997184.25500  22582576.91300                   8643617.19740  22582581.26140
  -1908337.18100  24286478.55400                  -1446231.16140  24286482.99540
  11511107.47000  22351661.78800                   9013685.84040  22351664.08540
   1106985.06900  22914363.22600                    883553.25340  22914366.06240
 96  9 16  0 35  0.0030000  0  6  1 14 15 22 25 29
  47990226.57300  25554905.40500                  37491272.99440  25554910.32740
  -2852454.14000  22329576.69400                  -2200307.28640  22329579.97640
  11128255.84600  22607519.09300                   8745750.89940  22607523.14740
  -1933789.12700  24281634.93700                  -1466063.76340  24281639.92940
  11632402.84700  22374743.27200                   9108201.72340  22374745.58140
   1129861.12000  22918716.13200                    901378.77440  22918718.48740
 96  9 16  0 35 30.0030000  0  6  1 14 15 22 25 29
  48132388.77800  25581958.39000                  37602048.71640  25581961.82340
  -2849789.69300  22330083.87400                  -2198231.07440  22330087.01540
  11259799.38200  22632551.16300                   8848252.35440  22632555.37040
  -1959140.02600  24276810.26500                  -1485817.62340  24276814.89440
  11754093.31100  22397900.34300                   9203025.46640  22397902.81540
   1152870.69000  22923094.83500                    919308.34040  22923097.03840
 96  9 16  0 36  0.0030000  0  6  1 14 15 22 25 29
  48274553.40100  25609011.73300                  37712826.30440  25609017.07740
  -2846867.15300  22330640.00700                  -2195953.75140  22330643.32340
  11391791.24400  22657668.19400                   8951103.15140  22657672.34340
  -1984412.51900  24272001.57700                  -1505510.38540  24272006.80440
  11876145.97500  22421125.95200                   9298131.44440  22421128.21440
   1176007.06000  22927497.50700                    937336.69940  22927499.88640
 96  9 16  0 36 30.0030000  0  6  1 14 15 22 25 29
  48416756.24500  25636070.74900                  37823633.71440  25636075.12040
  -2843649.17100  22331252.32700                  -2193446.22040  22331255.69040
  11524271.04200  22682878.40500                   9054334.15540  22682882.47240
  -2009542.27200  24267219.03000                  -1525091.92240  24267224.29240
  11998604.19300  22444429.24900                   9393553.43340  22444431.42940
   1199311.38200  22931932.00700                    955495.94040  22931934.89040
 96  9 16  0 37  0.0030000  0  6  1 14 15 22 25 29
  48559015.59400  25663142.79600                  37934485.16640  25663148.73740
  -2840109.93800  22331925.71000                  -2190688.35540  22331928.99140
  11657266.08400  22708186.48300                   9157966.65240  22708190.66740
  -2034491.44200  24262471.15500                  -1544532.75840  24262475.45640
  12121486.72600  22467813.01500                   9489306.06540  22467815.33540
   1222814.71200  22936404.69400                    973810.24840  22936407.36640
 96  9 16  0 37 30.0040000  0  6  1 14 15 22 25 29
  48701261.17500  25690210.80900                  38045325.86440  25690214.92240
  -2836310.69800  22332648.94900                  -2187727.89140  22332652.32440
  11790698.50000  22733577.78500                   9261939.95640  22733581.94540
  -2059325.26400  24257745.94100                  -1563883.71040  24257750.50040
  12244698.44800  22491259.23000                   9585315.20240  22491261.41040
   1246444.31900  22940901.07400                    992222.95240  22940903.55940
 96  9 16  0 38  0.0040000  0  6  1 14 15 22 25 29
  48843517.37500  25717281.50400                  38156174.79740  25717284.62140
  -2832212.77700  22333428.73000                  -2184534.69140  22333432.03540
  11924592.10600  22759057.07400                   9366272.63540  22759061.04740
  -2083985.44500  24253053.28500                  -1583099.34540  24253057.76240
  12368266.56400  22514773.87100                   9681602.04740  22514776.03940
   1270229.50200  22945427.46500                   1010756.89540  22945430.04340
 96  9 16  0 38 30.0040000  0  6  1 14 15 22 25 29
  48985771.47900  25744351.02000                  38267022.15740  25744355.21540
  -2827815.99900  22334265.34800                  -2181108.60940  22334268.72340
  12058943.54100  22784623.09800                   9470962.06040  22784627.19940
  -2108459.19400  24248395.78500                  -1602169.71540  24248400.83640
  12492187.25100  22538354.80900                   9778163.63340  22538356.96540
   1294150.18400  22949979.31600                   1029396.42040  22949981.66040
 96  9 16  0 39  0.0040000  0  6  1 14 15 22 25 29
  49127994.59900  25771415.91800                  38377845.38840  25771419.73840
  -2823139.64800  22335155.12900                  -2177464.68140  22335158.35240
  12193718.55000  22810269.92600                   9575981.53740  22810274.08640
  -2132786.70400  24243767.12100                  -1621126.14240  24243771.76240
  12616427.62600  22561996.92600                   9874974.31940  22561999.17640
   1318183.11300  22954552.53500                   1048123.40440  22954555.14840
 96  9 16  0 39 30.0040000  0  6  1 14 15 22 25 29
  49270183.70400  25798472.52000                  38488642.08440  25798476.39840
  -2818180.18400  22336099.00400                  -2173600.14940  22336102.30940
  12328912.17300  22835996.72300                   9681327.21140  22836000.90640
  -2156977.64300  24239162.80900                  -1639976.13340  24239166.84040
  12740994.01800  22585701.19100                   9972039.04440  22585703.35940
   1342333.80300  22959148.41800                   1066942.15840  22959150.99640
 96  9 16  0 40  0.0040000  0  6  1 14 15 22 25 29
  49412362.52100  25825529.23800                  38599430.73840  25825534.10240
  -2812924.60900  22337098.93400                  -2169504.87940  22337102.05140
  12464556.63600  22861808.86300                   9787024.19540  22861812.68440
  -2180999.90000  24234591.46500                  -1658694.69840  24234595.48440
  12865920.23200  22609473.86300                  10069384.15740  22609476.14840
   1366636.05900  22963772.88700                   1085879.01540  22963775.16040
 96  9 16  0 40 30.0040000  0  6  1 14 15 22 25 29
  49554511.79400  25852578.93400                  38710196.40740  25852584.93440
  -2807390.98400  22338152.07400                  -2165192.95540  22338155.33240
  12600636.70700  22887704.05900                   9893060.60940  22887708.06640
  -2204885.78500  24230046.06600                  -1677306.97840  24230050.14540
  12991196.04100  22633313.01200                  10167001.67840  22633315.28540
   1391074.54200  22968423.33200                   1104922.02440  22968425.68740
 96  9 16  0 41  0.0040000  0  6  1 14 15 22 25 29
  49696641.66800  25879624.73800                  38820946.89740  25879629.88340
  -2801578.62900  22339258.04300                  -2160663.83940  22339261.16040
  12737159.07900  22913683.34800                   9999441.67340  22913687.57840
  -2228648.24900  24225524.30100                  -1695823.09840  24225529.34040
  13116830.64600  22657220.28500                  10264898.77440  22657222.53540
   1415672.50200  22973104.14500                   1124089.29540  22973106.74640
 96  9 16  0 41 30.0040000  0  6  1 14 15 22 25 29
  49838749.89100  25906668.34000                  38931680.56740  25906674.17640
  -2795485.73200  22340417.34800                  -2155916.11540  22340420.55940
  12874126.24400  22939746.99600                  10106169.33240  22939750.94540
  -2252273.92900  24221028.64500                  -1714232.64040  24221033.14540
  13242811.47500  22681193.80900                  10363065.66340  22681195.97740
   1440434.00200  22977815.94900                   1143384.01040  22977818.35240
 96  9 16  0 42  0.0040000  0  6  1 14 15 22 25 29
  49980870.43600  25933712.67600                  39042423.85640  25933717.86740
  -2789078.51500  22341636.94900                  -2150923.46740  22341640.14840
  13011565.07300  22965901.04300                  10213264.51540  22965905.01640
  -2275713.17200  24216568.18400                  -1732496.89740  24216572.19140
  13369150.34000  22705235.40200                  10461511.54340  22705237.40640
   1465373.79700  22982562.01200                   1162817.64740  22982564.34440
 96  9 16  0 42 30.0040000  0  6  1 14 15 22 25 29
  50122918.88600  25960743.76200                  39153110.94240  25960749.55140
  -2782409.20000  22342905.86300                  -2145726.58440  22342909.03940
  13149387.92700  22992127.76200                  10320658.94140  22992132.06240
  -2299035.76700  24212129.75400                  -1750670.26940  24212134.06640
  13495760.08500  22729328.39500                  10560168.49540  22729330.69140
   1490410.24200  22987326.32400                   1182326.60440  22987328.76240
 96  9 16  0 43  0.0040000  0  6  1 14 15 22 25 29
  50264950.82100  25987771.02700                  39263785.19440  25987773.25440
  -2775424.00400  22344235.49600                  -2140283.56440  22344238.62540
  13287634.15800  23018435.50400                  10428383.27040  23018439.66440
  -2322165.08200  24207729.36300                  -1768693.02240  24207733.62940
  13622673.86400  22753479.14500                  10659062.35040  22753481.25440
   1515584.13100  22992116.62900                   1201942.65740  22992119.02040
 96  9 16  0 43 30.0040000  0  6  1 14 15 22 25 29
  50406999.35800  26014802.16800                  39374472.33340  26014806.08240
  -2768080.86300  22345632.36300                  -2134561.62940  22345635.42240
  13426329.80800  23044828.25400                  10536457.79340  23044832.49640
  -2345040.57500  24203375.22300                  -1786518.00640  24203379.58240
  13749928.38800  22777695.17600                  10758221.72440  22777697.26240
   1540909.71800  22996935.87100                   1221676.91640  22996938.32040
 96  9 16  0 44  0.0040000  0  6  1 14 15 22 25 29
  50549080.07500  26041838.95700                  39485184.53940  26041843.41040
  -2760379.67300  22347098.34800                  -2128560.69040  22347101.33640
  13565475.66800  23071306.91800                  10644883.12840  23071310.94940
  -2367653.98100  24199072.18400                  -1804138.76540  24199076.73040
  13877557.35700  22801981.89500                  10857672.87340  22801984.16840
   1566386.66300  23001784.10500                   1241529.10840  23001786.42640
 96  9 16  0 44 30.0040000  0  6  1 14 15 22 25 29
  50691165.40500  26068877.36300                  39595900.38940  26068880.91440
  -2752353.92100  22348625.28500                  -2122306.85240  22348628.29740
  13705036.18300  23097864.23000                  10753631.56840  23097868.50840
  -2390046.73100  24194810.67600                  -1821587.58740  24194815.39840
  14005556.67000  22826339.27700                  10957412.60040  22826341.44540
   1591987.34200  23006655.62100                   1261477.72140  23006658.02340
 96  9 16  0 45  0.0040000  0  6  1 14 15 22 25 29
  50833258.29500  26095917.00400                  39706622.09040  26095923.10940
  -2744018.45000  22350211.47300                  -2115811.66940  22350214.48440
  13845010.83000  23124500.43400                  10862702.70740  23124504.34840
  -2412226.73300  24190589.58200                  -1838870.63640  24190594.37540
  14133936.53900  22850769.02700                  11057448.86440  22850771.41840
   1617702.78700  23011549.03500                   1281515.75840  23011551.48440
 96  9 16  0 45 30.0040000  0  6  1 14 15 22 25 29
  50975319.92600  26122950.09000                  39817319.45040  26122953.21940
  -2735406.05600  22351849.94100                  -2109100.70240  22351853.14140
  13985370.42700  23151210.19900                  10972073.80340  23151214.41840
  -2434236.28200  24186401.70700                  -1856020.85740  24186406.91040
  14262668.45200  22875266.16000                  11157759.44440  22875268.46940
   1643512.03600  23016460.19100                   1301626.88340  23016462.41840
 96  9 16  0 46  0.0040000  0  6  1 14 15 22 25 29
  51117404.49000  26149988.03500                  39928034.68040  26149992.60540
  -2726466.21100  22353551.30900                  -2102134.57540  22353554.53140
  14126161.57300  23178001.92600                  11081781.17940  23178005.66440
  -2456033.79800  24182253.16000                  -1873005.85240  24182257.96540
  14391787.72800  22899836.87100                  11258371.86940  22899839.05140
   1669476.05200  23021401.09800                   1321858.60340  23021403.46540
 96  9 16  0 46 30.0040000  0  5 14 15 22 25 29
  -2717218.89600  22355311.05900                  -2094928.86140  22355314.18740
  14267344.25700  23204868.02700                  11191793.65240  23204872.43440
  -2477658.81400  24178138.37100                  -1889856.43840  24178143.44540
  14521225.38600  22924468.05100                  11359232.37940  22924470.61740
   1695560.19400  23026364.73800                   1342183.93140  23026366.75440
 96  9 16  0 47  0.0040000  0  5 14 15 22 25 29
  -2707615.13600  22357138.59800                  -2087445.39740  22357141.89140
  14408962.73400  23231817.10500                  11302145.70240  23231821.37140
  -2499066.33800  24174065.13700                  -1906537.54440  24174070.39840
  14650992.87200  22949161.91800                  11460349.90840  22949164.27340
   1721816.99500  23031361.34800                   1362643.79740  23031363.52740
 96  9 16  0 47 30.0040000  0  5 14 15 22 25 29
  -2697722.72400  22359021.10500                  -2079737.01140  22359024.42240
  14550931.95200  23258832.84800                  11412771.06440  23258836.82040
  -2520330.73800  24170018.04300                  -1923107.13540  24170022.08640
  14780992.05100  22973899.81600                  11561647.97340  22973902.18440
   1748177.07100  23036377.21500                   1383184.14040  23036379.50040
 96  9 16  0 48  0.0040000  0  5 14 15 22 25 29
  -2687484.64800  22360969.59000                  -2071759.27140  22360972.76640
  14693292.92400  23285923.37900                  11523701.67740  23285927.36340
  -2541405.99200  24166008.02000                  -1939529.32540  24166012.05140
  14911275.54500  22998691.78500                  11663167.58540  22998694.05940
   1774679.54500  23041420.64500                   1403835.43340  23041423.12940
 96  9 16  0 48 30.0040000  0  5 14 15 22 25 29
  -2676893.68600  22362984.48800                  -2063506.56240  22362987.57040
  14836047.33100  23313088.72300                  11634938.86940  23313092.93040
  -2562278.14400  24162036.02000                  -1955793.26040  24162039.91040
  15041850.57600  23023539.84800                  11764914.36140  23023542.26240
   1801319.36000  23046489.87900                   1424593.75040  23046492.01240
 96  9 16  0 49  0.0040000  0  5 14 15 22 25 29
  -2665969.28500  22365063.59800                  -2054994.02140  22365066.71540
  14979185.94800  23340327.02000                  11746475.44640  23340331.28540
  -2582941.01100  24158103.75400                  -1971894.10540  24158108.32440
  15172722.94600  23048443.55900                  11866892.84140  23048445.69140
   1828084.44000  23051583.25400                   1445449.67440  23051585.46940
 96  9 16  0 49 30.0050000  0  5 14 15 22 25 29
  -2654719.41100  22367204.36000                  -2046227.87140  22367207.66540
  15122706.52600  23367638.07100                  11858309.65640  23367641.98540
  -2603381.20300  24154213.29800                  -1987821.44140  24154217.38840
  15303909.04600  23073407.41500                  11969115.78040  23073409.59540
   1854961.90700  23056697.64200                   1466393.17840  23056700.00940
 96  9 16  0 50  0.0050000  0  5 14 15 22 25 29
  -2643141.36500  22369407.45400                  -2037205.99840  22369410.68840
  15266607.91800  23395021.67300                  11970440.60340  23395025.99740
  -2623582.32000  24150369.57900                  -2003562.49540  24150374.64240
  15435416.13500  23098432.72800                  12071588.84340  23098434.81340
   1881947.82200  23061833.01700                   1487421.18340  23061835.51340
 96  9 16  0 50 30.0050000  0  5 14 15 22 25 29
  -2631258.64100  22371668.67300                  -2027946.72240  22371671.90740
  15410882.09400  23422475.99300                  12082862.03340  23422480.22440
  -2643554.95200  24146569.07100                  -2019125.50540  24146573.13840
  15567225.41500  23123514.99300                  12174297.37740  23123517.27840
   1909035.15800  23066987.72800                   1508528.21240  23066989.89540
 96  9 16  0 51  0.0050000  0  5 14 15 22 25 29
  -2619070.61700  22373987.95400                  -2018449.54740  22373991.21240
  15555533.13400  23450002.04800                  12195577.12940  23450006.29040
  -2663295.73800  24142811.84500                  -2034507.85540  24142816.38040
  15699346.25800  23148656.61000                  12277248.68840  23148658.96640
   1936242.31100  23072164.81300                   1529728.60740  23072167.08740
 96  9 16  0 51 30.0050000  0  5 14 15 22 25 29
  -2606563.74000  22376368.02400                  -2008703.91740  22376371.25940
  15700557.88100  23477599.45400                  12308583.42140  23477603.68540
  -2682806.61400  24139099.91500                  -2049711.05440  24139104.14540
  15831780.32500  23173858.41500                  12380444.06940  23173860.46640
   1963572.81800  23077365.50900                   1551025.12840  23077367.81740
 96  9 16  0 52  0.0050000  0  5 14 15 22 25 29
  -2593724.03000  22378811.27400                  -1998698.93440  22378814.46240
  15845956.77400  23505268.15700                  12421881.25640  23505271.96640
  -2702083.17200  24135431.12600                  -2064731.66540  24135434.94640
  15964525.17300  23199118.88400                  12483881.61740  23199121.02840
   1991056.33700  23082595.61800                   1572440.87440  23082597.81040
 96  9 16  0 52 30.0050000  0  5 14 15 22 25 29
  -2580540.19500  22381319.97800                  -1988425.80540  22381323.08340
  15991739.32000  23533009.54800                  12535478.04040  23533013.73140
  -2721106.28000  24131811.37600                  -2079554.79640  24131815.59540
  16097595.36400  23224441.07900                  12587572.67540  23224443.18840
   2018719.03100  23087859.80600                   1593996.23840  23087862.14940
 96  9 16  0 53  0.0050000  0  5 14 15 22 25 29
  -2567003.08500  22383896.14200                  -1977877.39840  22383899.32940
  16137894.78600  23560822.22000                  12649365.41340  23560826.40340
  -2739863.17200  24128241.95400                  -2094170.47840  24128246.09140
  16230983.32100  23249823.98500                  12691511.34340  23249826.28240
   2046544.74700  23093154.66500                   1615678.63240  23093156.85640
 96  9 16  0 53 30.0050000  0  5 14 15 22 25 29
  -2553126.87700  22386536.72000                  -1967064.76240  22386539.87240
  16284389.23400  23588699.00100                  12763516.93540  23588703.36040
  -2758380.82800  24124718.06300                  -2108599.74140  24124722.35340
  16364649.52000  23275259.72000                  12795666.82040  23275261.75940
   2074497.21400  23098473.81300                   1637459.79140  23098476.11040
 96  9 16  0 54  0.0050000  0  5 14 15 22 25 29
  -2538912.33100  22389241.71200                  -1955988.48740  22389244.75940
  16431225.95000  23616641.04800                  12877935.14540  23616645.04440
  -2776653.86200  24121240.75100                  -2122838.39740  24121245.13440
  16498579.22600  23300745.92300                  12900027.63440  23300748.10340
   2102583.21600  23103818.55600                   1659345.01140  23103820.68840
 96  9 16  0 54 30.0050000  0  5 14 15 22 25 29
  -2524303.74400  22392021.31300                  -1944605.16140  22392024.61840
  16578447.05000  23644656.36000                  12992652.89240  23644660.60340
  -2794640.40200  24117818.04800                  -2136853.80940  24117822.09140
  16632813.37500  23326289.63400                  13004625.67740  23326291.95440
   2130814.54800  23109190.97800                   1681343.47040  23109193.09940
 96  9 16  0 55  0.0050000  0  5 14 15 22 25 29
  -2509324.56200  22394872.01700                  -1932933.06640  22394875.15740
  16726011.98200  23672737.06300                  13107638.55340  23672741.25940
  -2812378.57000  24114442.04000                  -2150675.69140  24114445.95440
  16767301.26200  23351881.81300                  13109421.43240  23351884.20440
   2159152.23900  23114583.20400                   1703424.80740  23114585.50140
 96  9 16  0 55 30.0050000  0  5 14 15 22 25 29
  -2493972.56000  22397793.18100                  -1920970.45140  22397796.45040
  16873925.15600  23700883.83700                  13222895.57040  23700887.85640
  -2829872.69700  24111113.43800                  -2164307.41040  24111117.37640
  16902057.65600  23377525.14900                  13214426.42740  23377527.34140
   2187621.68600  23120000.41500                   1725608.81640  23120002.58340
 96  9 16  0 56  0.0050000  0  5 14 15 22 25 29
  -2478213.67600  22400792.09500                  -1908690.79240  22400795.06040
  17022226.03300  23729104.66500                  13338454.68840  23729108.70840
  -2847079.06400  24107838.95400                  -2177714.89740  24107842.98540
  17037124.93400  23403227.77400                  13319673.65440  23403230.01340
   2216264.96500  23125451.37600                   1747928.27440  23125453.46240
 96  9 16  0 56 30.0050000  0  5 14 15 22 25 29
  -2462039.64700  22403869.81300                  -1896087.63640  22403872.93140
  17170909.57700  23757398.10300                  13454311.99140  23757402.01740
  -2863983.13900  24104622.17300                  -2190886.84440  24104626.39240
  17172515.40700  23428991.47800                  13425172.72840  23428993.78640
   2245080.24100  23130934.75100                   1770381.76240  23130936.69640
 96  9 16  0 57  0.0050000  0  5 14 15 22 25 29
  -2445478.03400  22407021.41500                  -1883182.47340  22407024.35640
  17319953.38500  23785760.10300                  13570450.02940  23785764.87240
  -2880596.44400  24101460.87600                  -2203832.20540  24101464.59140
  17308212.53000  23454814.03200                  13530910.75440  23454816.44640
   2274061.96700  23136449.65700                   1792964.94640  23136451.79040
 96  9 16  0 57 30.0050000  0  5 14 15 22 25 29
  -2428590.09300  22410235.16500                  -1870023.02540  22410238.30640
  17469297.09100  23814179.36000                  13686821.73540  23814183.47440
  -2896972.53500  24098344.46200                  -2216592.72840  24098348.17740
  17444167.87400  23480685.25900                  13636849.98540  23480687.57940
   2303142.31800  23141983.47000                   1815624.98040  23141985.57940
 96  9 16  0 58  0.0050000  0  5 14 15 22 25 29
  -2411346.82500  22413516.48500                  -1856586.70140  22413519.52040
  17618964.81900  23842660.14200                  13803445.93840  23842664.63040
  -2913071.16400  24095280.57100                  -2229137.05740  24095284.27440
  17580394.19500  23506608.08700                  13743000.36440  23506610.34940
   2332330.35300  23147537.82900                   1838368.92240  23147539.92740
 96  9 16  0 58 30.0050000  0  5 14 15 22 25 29
  -2393726.29700  22416869.53200                  -1842856.40840  22416872.66140
  17768970.43700  23871205.57100                  13920333.42540  23871209.72040
  -2928876.91100  24092273.31300                  -2241453.15640  24092277.13440
  17716907.14400  23532585.83700                  13849374.09340  23532588.15740
   2361641.56000  23153115.53200                   1861208.84240  23153117.59540
 96  9 16  0 59  0.0050000  0  6 14 15 18 22 25 29
  -2375726.89400  22420294.61800                  -1828830.88440  22420297.64240
  17919317.74500  23899815.45400                  14037487.15640  23899819.68540
     -8087.98310  26421544.29800
  -2944399.90400  24089319.25100                  -2253548.94340  24089323.14240
  17853700.53600  23558616.66500                  13955966.35240  23558618.73940
   2391087.32200  23158718.64900                   1884153.61040  23158720.60640
 96  9 16  0 59 30.0050000  0  6 14 15 18 22 25 29
  -2357346.50600  22423792.41500                  -1814508.49240  22423795.54440
  18070002.05000  23928489.73500                  14154903.48040  23928493.87240
    -22334.86600  26418832.34500
  -2959639.98400  24086419.13400                  -2265424.27240  24086422.70840
  17990760.30500  23584698.42300                  14062766.18240  23584701.00140
   2420675.21000  23164349.00100                   1907209.12040  23164351.18140
 96  9 16  1  0  0.0050000  0  6 14 15 18 22 25 29
  -2338561.93100  22427367.00100                  -1799871.15040  22427370.01340
  18221036.72000  23957230.78200                  14272592.82440  23957234.91940
    -36531.30100  26416130.43800                     -7003.72250  26416135.45440
  -2974583.07600  24083575.30600                  -2277068.18040  24083579.11440
  18128088.12600  23610830.81300                  14169774.87540  23610833.13440
   2450440.32600  23170013.18800                   1930402.72940  23170015.56740
 96  9 16  1  0 30.0050000  0  6 14 15 18 22 25 29
  -2319391.83500  22431014.72800                  -1784933.40540  22431017.73940
  18372400.26500  23986034.34500                  14390538.43240  23986038.04840
    -50694.60500  26413434.81300                    -18040.03240  26413437.98940
  -2989258.30900  24080782.63400                  -2288503.36140  24080786.43140
  18265672.70300  23637012.38400                  14276983.64240  23637014.64540
   2480382.17800  23175711.12600                   1953734.05440  23175713.34140
 96  9 16  1  1  0.0060000  0  6 14 15 18 22 25 29
  -2299865.36800  22434730.49800                  -1769717.96340  22434733.62740
  18524062.32900  24014894.54500                  14508716.65340  24014899.29140
    -64864.53600  26410738.64600                    -29081.45540  26410741.96340
  -3003674.91500  24078039.41200                  -2299737.03040  24078043.65440
  18403486.16300  23663237.38900                  14384370.75740  23663239.68640
   2510478.25900  23181438.06100                   1977185.56040  23181440.31140
 96  9 16  1  1 30.0060000  0  6 14 15 18 22 25 29
  -2279949.24200  22438520.34200                  -1754198.89340  22438523.37740
  18676045.33800  24043816.14600                  14627144.95240  24043820.56440
    -79008.59200  26408047.42800                    -40102.74940  26408052.93640
  -3017775.54500  24075355.68600                  -2310724.47440  24075359.04940
  18541568.39400  23689513.61500                  14491967.30440  23689516.08840
   2540746.97400  23187197.84200                   2000771.59040  23187199.96340
 96  9 16  1  2  0.0060000  0  6 14 15 18 22 25 29
  -2259694.73000  22442374.85700                  -1738416.14640  22442377.89340
  18828299.05000  24072788.89600                  14745784.20740  24072793.15040
    -93188.91700  26405349.11500                    -51152.31340  26405353.17040
  -3031605.02700  24072724.00600                  -2321500.63240  24072728.08440
  18679884.22300  23715834.30300                  14599745.87840  23715836.52940
   2571119.96000  23192977.67000                   2024438.86540  23192979.66240
 96  9 16  1  2 30.0060000  0  6 14 15 18 22 25 29
  -2239038.77600  22446305.53700                  -1722320.58840  22446308.56140
  18980874.09800  24101822.77900                  14864673.84640  24101827.11540
   -107361.14400  26402651.64600                    -62195.56840  26402656.22840
  -3045087.32800  24070158.88100                  -2332006.27140  24070162.71340
  18818492.12200  23742210.36500                  14707752.03740  23742212.47540
   2601634.01200  23198784.37300                   2048216.06640  23198786.41240
 96  9 16  1  3  0.0060000  0  6 14 15 18 22 25 29
  -2217936.40700  22450321.14600                  -1705877.17440  22450324.18240
  19133792.66800  24130922.51400                  14983831.15740  24130926.77940
   -121488.89500  26399963.42800                    -73204.11740  26399967.79940
  -3058175.55000  24067668.05300                  -2342204.83240  24067672.01440
  18957413.30500  23768646.52900                  14816002.31740  23768648.75640
   2632301.35300  23204620.40400                   2072112.70940  23204622.60740
 96  9 16  1  3 30.0060000  0  6 14 15 18 22 25 29
  -2196410.16900  22454417.42000                  -1689103.47440  22454420.43240
  19287021.77900  24160081.20100                  15103230.44940  24160085.43240
   -135589.74200  26397280.38900                    -84191.73640  26397284.73640
  -3070913.99300  24065243.87300                  -2352130.83640  24065247.77540
  19096613.49000  23795135.17800                  14924469.99940  23795137.58040
   2663089.24100  23210478.97500                   2096103.28440  23210481.11940
 96  9 16  1  4  0.0060000  0  6 14 15 18 22 25 29
  -2174475.63200  22458591.38100                  -1672011.61440  22458594.46340
  19440524.14400  24189291.36500                  15222842.67140  24189295.61940
   -149697.32100  26394595.95900                    -95184.59540  26394600.77540
  -3083345.65700  24062878.10700                  -2361817.79940  24062881.71740
  19236037.15400  23821666.65400                  15033111.81740  23821668.52940
   2693980.40000  23216357.20100                   2120174.33040  23216359.38140
 96  9 16  1  4 30.0060000  0  6 14 15 18 22 25 29
  -2152085.94000  22462852.01400                  -1654565.09440  22462855.09640
  19594342.58100  24218562.00600                  15342701.18040  24218566.43640
   -163752.70000  26391920.86500                   -106136.80140  26391925.13140
  -3095429.44900  24060578.52100                  -2371233.68440  24060582.34240
  19375718.06600  23848247.05300                  15141954.09440  23848249.13940
   2725039.82000  23222267.70900                   2144376.49040  23222269.99440
 96  9 16  1  5  0.0060000  0  6 14 15 18 22 25 29
  -2129299.96900  22467187.89600                  -1636809.78240  22467190.96740
  19748428.88600  24247883.78700                  15462768.41440  24247888.22840
   -177790.58300  26389248.89600                   -117075.32040  26389253.03340
  -3107225.15700  24058334.08400                  -2380425.09340  24058338.38540
  19515606.73200  23874866.93600                  15250958.25040  23874868.95140
   2756227.01600  23228202.32600                   2168678.21340  23228204.36540
 96  9 16  1  5 30.0060000  0  6 14 15 18 22 25 29
  -2106084.78200  22471605.68600                  -1618720.01840  22471608.87340
  19902829.00100  24277265.15400                  15583080.17940  24277269.44340
   -191761.58500  26386590.88900                   -127961.74840  26386597.61540
  -3118692.47800  24056151.91200                  -2389360.60340  24056155.63940
  19655752.49300  23901535.99000                  15360162.74940  23901537.97140
   2787581.74700  23234168.92800                   2193110.49140  23234171.14340
 96  9 16  1  6  0.0060000  0  6 14 15 18 22 25 29
  -2082488.11300  22476095.89600                  -1600332.99540  22476098.90840
  20057499.60100  24306698.05300                  15703602.71240  24306702.57640
   -205706.84100  26383937.27100                   -138828.16040  26383941.04540
  -3129867.24300  24054025.36500                  -2398068.17240  24054029.12740
  19796122.13000  23928247.24000                  15469541.69040  23928249.38540
   2819057.85800  23240158.56800                   2217637.34240  23240160.87740
 96  9 16  1  6 30.0060000  0  6 14 15 18 22 25 29
  -2058490.49600  22480662.58400                  -1581633.54440  22480665.61940
  20212464.26000  24336186.89600                  15824354.38240  24336191.42040
   -219598.58400  26381293.99000                   -149652.81140  26381298.19740
  -3140713.42700  24051961.48200                  -2406519.68940  24051965.71340
  19936760.70400  23955009.95900                  15579130.19240  23955011.81140
   2850671.53400  23246174.76400                   2242271.38940  23246176.99040
 96  9 16  1  7  0.0060000  0  6 14 15 18 22 25 29
  -2034079.93000  22485307.67800                  -1562612.31340  22485310.72540
  20367724.85900  24365732.02900                  15945336.65040  24365736.22540
   -233439.08500  26378659.18600                   -160437.58040  26378662.67840
  -3151218.46700  24049962.31100                  -2414705.38640  24049965.93240
  20077686.05300  23981826.92000                  15688942.15340  23981829.31140
   2882415.25500  23252215.19300                   2267006.77540  23252217.39640
 96  9 16  1  7 30.0060000  0  6 14 15 18 22 25 29
  -2009248.17000  22490033.04500                  -1543262.88040  22490036.04540
  20523271.07100  24395331.32600                  16066541.48440  24395335.55740
   -247247.91500  26376031.99000                   -171197.63640  26376036.19740
  -3161377.29500  24048029.01400                  -2422621.30540  24048032.41240
  20218897.50300  24008698.52100                  15798977.04740  24008700.68940
   2914299.42000  23258282.20100                   2291851.58940  23258284.32240
 96  9 16  1  8  0.0060000  0  6 14 15 18 22 25 29
  -1984024.48900  22494833.06100                  -1523608.05840  22494836.02540
  20679062.41600  24424977.84200                  16187937.32040  24424982.30740
   -261068.66500  26373401.87300                   -181967.01740  26373404.58040
  -3171216.88000  24046156.60700                  -2430288.45840  24046160.02940
  20360349.55100  24035616.34200                  15909199.42440  24035618.55740
   2946318.60400  23264375.46700                   2316801.61840  23264377.55340
 96  9 16  1  8 30.0060000  0  6 14 15 18 22 25 29
  -1958340.30800  22499720.52900                  -1503594.39940  22499723.61140
  20835151.32700  24454680.40400                  16309565.03440  24454685.02140
   -274853.33500  26370779.57600                   -192708.25740  26370783.31440
  -3180672.45900  24044357.28700                  -2437656.38440  24044361.23640
  20502079.65500  24062586.48200                  16019638.47940  24062588.53340
   2978538.79400  23270506.73200                   2341908.27340  23270508.86540
 96  9 16  1  9  0.0060000  0  6 14 15 18 22 25 29
  -1932205.36400  22504693.88100                  -1483229.50240  22504696.89340
  20991518.72300  24484436.07600                  16431409.73140  24484440.02540
   -288618.81000  26368159.74800                   -203434.51640  26368163.54540
  -3189756.49100  24042628.67000                  -2444734.79340  24042632.12740
  20644053.99500  24089602.95900                  16130267.83040  24089605.15040
   3010953.18300  23276675.15400                   2367166.24740  23276677.25240
 96  9 16  1  9 30.0060000  0  6 14 15 18 22 25 29
  -1905627.44900  22509751.54500                  -1462519.42940  22509754.65040
  21148159.23800  24514243.67000                  16553467.25840  24514247.86540
   -302360.92200  26365544.05300                   -214142.58240  26365549.52540
  -3198472.26600  24040970.07600                  -2451526.25140  24040973.85040
  20786248.80000  24116662.01400                  16241068.97440  24116664.21740
   3043557.39700  23282879.45100                   2392572.14240  23282881.64340
 96  9 16  1 10  0.0060000  0  6 14 15 18 22 25 29
  -1878637.84900  22514887.37300                  -1441488.56740  22514890.46740
  21305043.11300  24544097.67000                  16675714.41740  24544102.40440
   -316105.62200  26362928.43600                   -224852.69140  26362932.65440
  -3206856.15800  24039374.47500                  -2458059.10540  24039378.27140
  20928624.99300  24143755.42000                  16352011.46240  24143757.99840
   3076296.28400  23289109.38900                   2418082.97440  23289111.36940
 96  9 16  1 10 30.0060000  0  6 14 15 18 22 25 29
  -1851211.93500  22520106.42800                  -1420117.71640  22520109.36940
  21462194.14100  24574002.61500                  16798169.75840  24574006.83440
   -329828.00600  26360317.13900                   -235545.35240  26360322.31840
  -3214880.14600  24037847.47500                  -2464311.51140  24037851.08440
  21071203.90500  24170887.04500                  16463111.92240  24170889.51840
   3109168.85300  23295364.70100                   2443697.97440  23295366.86940
 96  9 16  1 11  0.0060000  0  6 14 15 18 22 25 29
  -1823369.07400  22525404.77900                  -1398421.97140  22525407.88540
  21619596.89900  24603955.75600                  16920821.24040  24603959.93940
   -343529.92200  26357710.14600                   -246222.14740  26357713.00640
  -3222546.62100  24036389.07600                  -2470285.32940  24036392.65040
  21213980.34400  24198056.50600                  16574366.28440  24198058.41640
   3142144.41800  23301639.89600                   2469393.23440  23301642.11140
 96  9 16  1 11 30.0060000  0  6 14 15 18 22 25 29
  -1795100.53900  22530784.06100                  -1376394.53740  22530787.06140
  21777258.26200  24633957.56800                  17043674.23640  24633961.72840
   -357201.05000  26355108.06800                   -256874.93240  26355114.04540
  -3229842.69000  24035000.28700                  -2475970.52640  24035003.67440
  21356963.07200  24225265.26400                  16685781.39140  24225266.96340
   3175226.88500  23307935.20100                   2495171.79240  23307937.22840
 96  9 16  1 12  0.0060000  0  6 14 15 18 22 25 29
  -1766420.54300  22536241.47500                  -1354046.48140  22536244.63940
  21935157.77600  24664004.70900                  17166712.80940  24664008.83440
   -370865.39900  26352507.65400                   -267522.40940  26352512.83440
  -3236771.49800  24033681.38900                  -2481369.55840  24033685.03340
  21500140.77800  24252511.26400                  16797348.43740  24252513.70140
   3208402.13300  23314248.31100                   2521022.64840  23314250.29140
 96  9 16  1 12 30.0060000  0  6 14 15 18 22 25 29
  -1737293.97900  22541783.99000                  -1331350.44740  22541787.14340
  22093321.90800  24694101.92800                  17289957.57140  24694106.61540
   -384487.11900  26349915.27100                   -278136.70240  26349919.38540
  -3243283.40500  24032442.39600                  -2486443.72640  24032446.24040
  21643547.63300  24279800.51400                  16909094.04340  24279802.67040
   3241719.02900  23320588.17800                   2546983.88340  23320590.24040
 96  9 16  1 13  0.0070000  0  6 14 15 18 22 25 29
  -1707712.65100  22547413.32300                  -1308300.05440  22547416.26540
  22251746.86700  24724249.61200                  17413405.57540  24724253.45640
   -398066.59900  26347332.05800                   -288718.05940  26347336.99140
  -3249390.56300  24031280.40900                  -2491202.51140  24031283.94840
  21787196.90600  24307135.87800                  17021028.54140  24307138.24540
   3275186.79500  23326956.94000                   2573062.67440  23326959.07340
 96  9 16  1 13 30.0070000  0  6 14 15 18 22 25 29
  -1677669.37600  22553130.21400                  -1284889.70340  22553133.17940
  22410427.26800  24754445.43300                  17537052.61940  24754449.99140
   -411601.56800  26344756.37000                   -299264.75640  26344760.05040
  -3255099.44900  24030193.74500                  -2495650.94840  24030197.37840
  21931083.15600  24334516.82300                  17133147.69640  24334519.35440
   3308833.05200  23333359.69000                   2599280.55140  23333361.77640
 96  9 16  1 14  0.0070000  0  6 14 15 18 22 25 29
  -1647209.82600  22558926.58900                  -1261154.98340  22558929.74140
  22569328.66200  24784683.44000                  17660871.87440  24784687.64740
   -425132.07600  26342181.50300                   -309807.97340  26342185.15940
  -3260446.59500  24029176.53400                  -2499817.51640  24029180.22640
  22075175.46200  24361936.51100                  17245427.41340  24361938.86640
   3342629.39600  23339790.73700                   2625615.37840  23339792.70640
 96  9 16  1 14 30.0070000  0  6 14 15 18 22 25 29
  -1616351.66900  22564798.84700                  -1237109.65740  22564801.94040
  22728421.11200  24814957.58100                  17784840.00040  24814961.68340
   -438676.94600  26339602.90900                   -320362.37240  26339606.35440
  -3265462.58900  24028221.80800                  -2503726.03940  24028225.47640
  22219439.54900  24389389.41700                  17357840.99540  24389391.53840
   3376554.96600  23346246.55000                   2652050.89840  23346248.60140
 96  9 16  1 15  0.0070000  0  6 14 15 18 22 25 29
  -1585078.62000  22570749.77600                  -1212741.03940  22570752.70640
  22887726.90800  24845272.49500                  17908974.36740  24845276.77240
   -452214.52900  26337027.69000                   -330911.07340  26337032.77640
  -3270122.36900  24027335.02600                  -2507357.00140  24027338.63640
  22363904.49800  24416879.95600                  17470411.08940  24416882.21840
   3410634.23700  23352731.76900                   2678606.19340  23352733.77240
 96  9 16  1 15 30.0070000  0  6 14 15 18 22 25 29
  -1553391.82500  22576779.51900                  -1188050.02140  22576782.56540
  23047250.85300  24875628.93300                  18033278.72340  24875633.28040
   -465737.06700  26334454.80800                   -341448.06640  26334458.62840
  -3274406.48800  24026519.72900                  -2510695.23340  24026523.49140
  22508558.85200  24444406.87800                  17583128.76640  24444409.57340
   3444877.58300  23359247.97200                   2705289.33240  23359249.76540
 96  9 16  1 16  0.0070000  0  6 14 15 18 22 25 29
  -1521254.42700  22582895.15900                  -1163007.88440  22582898.27640
  23207002.92600  24906028.77600                  18157760.84440  24906033.48740
   -479222.14400  26331888.37800                   -351955.87140  26331892.36240
  -3278280.65900  24025782.55800                  -2513714.03240  24025786.31940
  22653424.53900  24471974.03400                  17696011.11640  24471976.14440
   3479283.22500  23365795.21400                   2732098.93840  23365797.20640
 96  9 16  1 16 30.0070000  0  6 14 15 18 22 25 29
  -1488641.98400  22589101.07300                  -1137595.58040  22589104.14440
  23366972.35600  24936470.01100                  18282412.33240  24936474.34740
   -492672.68300  26329328.17500                   -362436.74040  26329331.97240
  -3281747.31600  24025122.70600                  -2516415.28540  24025126.24540
  22798505.07500  24499581.83100                  17809060.89140  24499583.76540
   3513842.32100  23372371.43300                   2759028.11640  23372373.46040
 96  9 16  1 17  0.0070000  0  6 14 15 18 22 25 29
  -1455553.68300  22595397.71400                  -1111812.47840  22595400.74940
  23527161.19300  24966952.90900                  18407234.77740  24966957.59740
   -506087.76700  26326775.77600                   -372889.99340  26326779.65540
  -3284802.24100  24024541.59700                  -2518795.71840  24024545.07740
  22943800.65300  24527230.61200                  17922278.21940  24527232.90940
   3548548.64300  23378975.87000                   2786072.01640  23378977.99140
 96  9 16  1 17 30.0070000  0  6 14 15 18 22 25 29
  -1421956.05200  22601790.97900                  -1085632.49840  22601794.00340
  23687585.83200  24997480.76100                  18532240.97340  24997484.42940
   -519442.23300  26324234.95600                   -383296.01740  26324237.31140
  -3287420.00700  24024043.29200                  -2520835.49140  24024046.73740
  23089312.18700  24554920.39400                  18035663.83140  24554922.35140
   3583407.95600  23385609.47200                   2813235.13340  23385611.55840
 96  9 16  1 18  0.0070000  0  6 14 15 18 22 25 29
  -1387836.12900  22608283.82300                  -1059045.53740  22608286.88240
  23848250.32900  25028054.33900                  18657434.08040  25028058.97940
   -532736.54900  26321704.15900                   -393655.16940  26321708.44840
  -3289589.24700  24023630.30800                  -2522525.77540  24023633.72940
  23235052.67100  24582653.83900                  18149227.84240  24582656.26540
   3618415.71700  23392271.15100                   2840513.92840  23392273.16740
 96  9 16  1 18 30.0070000  0  6 14 15 18 22 25 29
  -1353254.67500  22614864.37800                  -1032098.93940  22614867.35440
  24009120.37300  25058666.88600                  18782787.35540  25058670.64740
   -546003.52000  26319179.32300                   -403992.99340  26319182.61640
  -3291342.74700  24023296.65900                  -2523892.09740  24023299.96440
  23380973.68500  24610421.90100                  18262932.53140  24610424.02240
   3653543.13800  23398955.51100                   2867885.96140  23398957.44440
 96  9 16  1 19  0.0070000  0  6 14 15 18 22 25 29
  -1318227.30800  22621529.80800                  -1004804.88240  22621532.77240
  24170200.89500  25089319.21400                  18908304.63140  25089323.51540
   -559233.74100  26316661.47900                   -414302.23140  26316664.59740
  -3292667.26800  24023044.55000                  -2524924.15540  24023048.12440
  23527073.80400  24638223.66700                  18376776.78240  24638225.51940
   3688795.96500  23405664.04200                   2895355.70540  23405665.95240
 96  9 16  1 19 30.0070000  0  6 14 15 18 22 25 29
  -1282761.91300  22628278.67500                   -977169.48840  22628281.62840
  24331474.25800  25120008.71400                  19033972.16740  25120012.93340
   -572449.96200  26314147.01900                   -424600.55940  26314151.53040
  -3293579.74400  24022870.94000                  -2525635.14040  24022874.33940
  23673355.82300  24666060.28400                  18490762.76640  24666062.52240
   3724171.35800  23412395.95600                   2922920.94040  23412397.90140
 96  9 16  1 20  0.0070000  0  6 14 15 18 22 25 29
  -1246838.68500  22635114.57300                   -949177.36540  22635117.69040
  24492952.75200  25150737.12000                  19159799.56440  25150741.42140
   -585637.84300  26311637.50300                   -434876.77340  26311640.86640
  -3294073.68300  24022776.81500                  -2526019.99740  24022780.60140
  23819846.78400  24693936.36200                  18604911.56940  24693938.57740
   3759697.28200  23419156.31500                   2950603.50440  23419158.19040
 96  9 16  1 20 30.0070000  0  6 14 15 18 22 25 29
  -1210495.91100  22642030.57300                   -920858.31040  22642033.65540
  24654592.15300  25181495.97200                  19285752.32740  25181500.64740
   -598837.71200  26309125.83900                   -445162.36540  26309130.10440
  -3294184.79900  24022755.69000                  -2526106.53640  24022759.00740
  23966506.94100  24721844.82300                  18719192.21540  24721846.92140
   3795342.62300  23425939.27600                   2978379.10640  23425941.29240
 96  9 16  1 21  0.0070000  0  6 14 15 18 22 25 29
  -1173714.33300  22649029.80000                   -892197.33140  22649032.91740
  24816388.65600  25212284.51900                  19411827.50840  25212289.35840
   -612064.31700  26306608.47200                   -455468.76340  26306613.38240
  -3293918.09600  24022806.20600                  -2525898.67540  24022809.38240
  24113345.70000  24749787.48700                  18833612.01740  24749789.96040
   3831108.34200  23432745.25300                   3006248.50640  23432747.21040
 96  9 16  1 21 30.0070000  0  6 14 15 18 22 25 29
  -1136439.50500  22656122.94800                   -863152.00540  22656125.86640
  24978378.72000  25243110.49500                  19538053.51840  25243115.08940
   -625275.33700  26304094.84700                   -465763.02440  26304098.76140
  -3293232.14300  24022936.82300                  -2525364.12440  24022940.28040
  24260393.13900  24777769.69800                  18948194.45540  24777772.05440
   3867038.30100  23439582.52600                   3034245.88640  23439584.58940
 96  9 16  1 22  0.0070000  0  6 14 15 18 22 25 29
  -1098686.16900  22663306.99500                   -833733.81840  22663310.00740
  25140550.61700  25273970.79200                  19664421.21940  25273975.73740
   -638457.47900  26301586.30000                   -476034.81240  26301589.72240
  -3292118.62400  24023148.67500                  -2524496.40640  24023151.86240
  24407622.08700  24805786.46400                  19062918.30540  24805788.38640
   3903129.51200  23446450.40100                   3062368.91540  23446452.21840
 96  9 16  1 22 30.0070000  0  6 14 15 18 22 25 29
  -1060486.51700  22670576.19800                   -803967.84940  22670579.25740
  25302879.01000  25304861.01900                  19790910.85640  25304865.68340
   -651629.76800  26299080.05800                   -486298.91740  26299083.09340
  -3290596.60800  24023438.23700                  -2523310.37840  24023441.63640
  24555003.33700  24833832.34700                  19177760.83840  24833834.28040
   3939369.31700  23453346.47900                   3090607.73440  23453348.44840
 96  9 16  1 23  0.0070000  0  6 14 15 18 22 25 29
  -1021824.86200  22677933.32300                   -773841.87640  22677936.34740
  25465370.50100  25335781.87800                  19917527.59640  25335786.41340
   -664780.19600  26296576.85400                   -496545.95440  26296580.92140
  -3288669.64800  24023804.95600                  -2521808.81340  24023808.26140
  24702533.56500  24861906.14400                  19292719.46240  24861908.82740
   3975771.97600  23460273.60400                   3118973.45140  23460275.65540
 96  9 16  1 23 30.0070000  0  6 14 15 18 22 25 29
   -982728.71100  22685373.26100                   -743377.33740  22685376.31940
  25627993.07900  25366728.08900                  20044246.47540  25366732.21440
   -677916.31300  26294077.41700                   -506781.85840  26294080.69840
  -3286360.21100  24024244.37800                  -2520009.21140  24024247.57740
  24850171.87600  24890000.67500                  19407762.30140  24890003.17140
   4012324.35400  23467229.41700                   3147455.83240  23467231.67940
 96  9 16  1 24  0.0070000  0  6 14 15 18 22 25 29
   -943160.35200  22692902.67500                   -712544.84240  22692905.53440
  25790780.84100  25397705.33900                  20171094.06740  25397709.53440
   -691005.69200  26291585.42500                   -516981.36040  26291589.99540
  -3283625.27800  24024765.11200                  -2517878.04840  24024768.54640
  24997960.55600  24918124.18300                  19522922.30840  24918126.51540
   4049054.95900  23474218.90900                   3176077.09140  23474221.01940
 96  9 16  1 24 30.0080000  0  6 14 15 18 22 25 29
   -903134.43500  22700519.38300                   -681355.81240  22700522.44140
  25953707.74400  25428709.71900                  20298050.08740  25428714.12540
   -704096.12800  26289095.10200                   -527181.68340  26289097.97340
  -3280486.94700  24025362.29700                  -2515432.56140  24025365.63740
  25145885.97400  24946273.33600                  19638188.86840  24946275.29340
   4085909.89200  23481232.24200                   3204795.23340  23481234.37540
 96  9 16  1 25  0.0080000  0  6 14 15 18 22 25 29
   -862580.48200  22708236.60900                   -649755.32340  22708239.56240
  26116822.57500  25459749.58600                  20425152.53540  25459754.53140
   -717120.04800  26286617.31200                   -537330.14640  26286620.72340
  -3276861.91100  24026051.73400                  -2512607.82740  24026055.10940
  25294003.75400  24974459.04700                  19753605.31040  24974461.18040
   4122928.93900  23488276.86700                   3233641.25340  23488278.83640
 96  9 16  1 25 30.0080000  0  6 14 15 18 22 25 29
   -821546.24100  22716045.10900                   -617780.58540  22716048.13340
  26280089.56100  25490817.72700                  20552373.54840  25490822.51940
   -730109.52400  26284144.94500                   -547451.77040  26284146.28140
  -3272768.05700  24026830.82000                  -2509417.77340  24026834.19540
  25442291.02400  25002677.21900                  19869153.83140  25002679.24640
   4160054.00200  23495341.31200                   3262569.88540  23495343.29340
 96  9 16  1 26  0.0080000  0  6 14 15 18 22 25 29
   -780048.55700  22723941.99200                   -585444.72140  22723945.05140
  26443496.15300  25521913.38300                  20679703.34540  25521917.68440
   -743087.82400  26281676.09400                   -557564.70640  26281678.59040
  -3268213.22100  24027697.51600                  -2505868.51440  24027700.73840
  25590736.39700  25030925.44500                  19984825.54240  25030927.84840
   4197255.28700  23502420.68000                   3291557.91140  23502422.57840
 96  9 16  1 26 30.0080000  0  6 14 15 18 22 25 29
   -738077.00300  22731928.82000                   -552739.61240  22731931.70340
  26607052.73100  25553037.07000                  20807150.02440  25553041.33640
   -756049.27800  26279209.43700                   -567664.47040  26279211.37140
  -3263194.10400  24028652.55500                  -2501957.48640  24028655.68440
  25739341.91700  25059204.38300                  20100622.04640  25059206.64440
   4234562.57200  23509519.93000                   3320628.53840  23509521.95740
 96  9 16  1 27  0.0080000  0  6 14 15 18 22 25 29
   -695611.99300  22740009.62500                   -519649.98840  22740012.63740
  26770776.45100  25584192.66400                  20934726.91940  25584196.85940
   -768967.65100  26276750.89100                   -577730.67040  26276754.23040
  -3257703.85300  24029697.50000                  -2497679.33640  24029700.86340
  25888112.73400  25087514.74200                  20216547.36740  25087517.02740
   4272016.56200  23516647.31200                   3349813.47840  23516649.10540
 96  9 16  1 27 30.0080000  0  6 14 15 18 22 25 29
   -652675.99000  22748179.89800                   -486193.36340  22748182.76940
  26934629.45900  25615372.91400                  21062404.58440  25615377.85940
   -781892.71500  26274290.65600                   -587802.11340  26274295.16840
  -3251788.54200  24030822.98400                  -2493069.97040  24030826.31240
  26037007.39000  25115848.14800                  20332569.15240  25115850.66840
   4309605.59800  23523800.16400                   3379103.64840  23523802.01640
 96  9 16  1 28  0.0080000  0  6 14 15 18 22 25 29
   -609262.64800  22756441.33600                   -452364.78140  22756444.30140
  27098599.74800  25646575.21900                  21190173.62440  25646580.05940
   -794842.04100  26271827.28900                   -597892.44540  26271830.69940
  -3245461.84200  24032027.18700                  -2488140.04640  24032030.58640
  26186012.12600  25144203.07000                  20448676.75440  25144205.39140
   4347343.17700  23530981.33600                   3408509.56440  23530983.31640
 96  9 16  1 28 30.0080000  0  6 14 15 18 22 25 29
   -565326.23300  22764802.09400                   -418128.60840  22764805.03540
  27262716.85500  25677805.82800                  21318057.07940  25677810.23440
   -807778.63900  26269365.14100                   -607972.85940  26269367.82440
  -3238674.49200  24033318.63300                  -2482851.16540  24033321.99640
  26335167.91600  25172586.11700                  20564902.03040  25172588.34440
   4385268.77500  23538198.32800                   3438061.98940  23538200.18040
 96  9 16  1 29  0.0080000  0  6 14 15 18 22 25 29
   -520858.39600  22773264.11700                   -383478.34140  22773267.09440
  27426977.21000  25709063.58600                  21446052.15140  25709067.65240
   -820689.25500  26266908.14100                   -618033.01340  26266911.08240
  -3231410.22900  24034700.87500                  -2477190.67440  24034704.39140
  26484487.44600  25201001.18000                  20681254.90940  25201003.72340
   4423374.69400  23545449.48400                   3467754.92240  23545451.54740
 96  9 16  1 29 30.0080000  0  6 14 15 18 22 25 29
   -475865.99200  22781825.88300                   -348419.32640  22781828.82440
  27591378.53800  25740347.99200                  21574157.05540  25740351.82440
   -833568.22100  26264457.07000                   -628068.53640  26264459.43740
  -3223658.34200  24036175.88300                  -2471150.21240  24036179.01240
  26633980.47900  25229448.50800                  20797742.96940  25229451.05140
   4461658.31100  23552734.46900                   3497586.32040  23552736.59040
 96  9 16  1 30  0.0080000  0  6 14 15 18 22 25 29
   -430390.98500  22790479.40600                   -312984.24840  22790482.37140
  27755887.00300  25771653.11700                  21702345.46440  25771657.64140
   -846428.64000  26262010.02300                   -638089.59240  26262012.56640
  -3215444.28700  24037739.61700                  -2464749.61640  24037743.15640
  26783616.92400  25257923.14100                  20914342.80040  25257925.56640
   4500072.02200  23560044.19500                   3527519.09440  23560046.35240
 96  9 16  1 30 30.0080000  0  6 14 15 18 22 25 29
   -384397.53400  22799231.75800                   -277145.19640  22799234.68740
  27920531.66100  25802983.71900                  21830639.99940  25802988.37140
   -859225.48000  26259575.43700                   -648061.10740  26259579.86740
  -3206738.46500  24039395.57800                  -2457965.83240  24039398.80140
  26933422.24500  25286430.44500                  21031074.20640  25286433.08240
   4538639.00500  23567383.78100                   3557571.29240  23567385.75040
 96  9 16  1 31  0.0080000  0  6 14 15 18 22 25 29
   -337915.19300  22808076.96900                   -240925.18740  22808079.92240
  28085286.37300  25834335.31200                  21959020.26640  25834340.08240
   -871973.93400  26257149.35900                   -657994.90940  26257153.94140
  -3197580.88400  24041138.15600                  -2450830.02640  24041141.50840
  27083367.23300  25314964.00000                  21147914.45640  25314966.18040
   4577342.23900  23574748.90600                   3587729.66740  23574750.72340
 96  9 16  1 31 30.0080000  0  6 14 15 18 22 25 29
   -290944.46000  22817015.16400                   -204324.61440  22817018.12940
  28250152.46200  25865708.35200                  22087487.32940  25865712.69940
   -884677.26400  26254731.40600                   -667893.58540  26254735.34440
  -3187971.92600  24042966.84400                  -2443342.50040  24042970.06640
  27233442.03900  25343521.87500                  21264855.86340  25343524.32440
   4616191.61100  23582141.65600                   3618001.90540  23582143.62540
 96  9 16  1 32  0.0080000  0  6 14 15 18 22 25 29
   -243469.17800  22826049.55500                   -167330.88640  22826052.63740
  28415140.22600  25897105.18700                  22216049.20640  25897109.41840
   -897326.85600  26252324.07000                   -677750.37040  26252329.48440
  -3177895.95200  24044883.88300                  -2435491.06340  24044887.18740
  27383650.03500  25372105.52300                  21381901.04940  25372108.26640
   4655205.21300  23589565.49200                   3648402.12140  23589567.42640
 96  9 16  1 32 30.0080000  0  6 14 15 18 22 25 29
   -195480.17600  22835181.49200                   -129936.85740  22835184.56240
  28580256.49600  25928525.50000                  22344711.21940  25928530.72740
   -909927.90400  26249926.70300                   -687569.34940  26249931.02740
  -3167342.87900  24046892.15600                  -2427267.86440  24046895.59040
  27533997.48300  25400715.92200                  21499054.89840  25400717.75040
   4694404.82400  23597024.76600                   3678947.27640  23597026.71140
 96  9 16  1 33  0.0080000  0  6 14 15 18 22 25 29
   -147001.37700  22844406.77300                    -92161.16540  22844409.82040
  28745493.45500  25959969.07000                  22473467.29040  25959973.35940
   -922501.56500  26247533.81200                   -697366.96540  26247538.33640
  -3156307.00700  24048992.45300                  -2418668.45540  24048995.88740
  27684481.06800  25429352.02300                  21616314.82740  25429354.40240
   4733786.35900  23604518.96900                   3709634.19540  23604520.86740
 96  9 16  1 33 30.0080000  0  6 14 15 18 22 25 29
    -98031.15100  22853725.42200                    -54002.54440  22853728.43440
  28910844.73200  25991434.24200                  22602312.40140  25991438.94140
   -935061.09500  26245144.45300                   -707153.57140  26245147.39440
  -3144765.25000  24051188.86700                  -2409674.85640  24051191.99640
  27835094.60900  25458012.89800                  21733676.02840  25458015.40640
   4773345.45000  23612046.96100                   3740459.46840  23612048.97740
 96  9 16  1 34  0.0080000  0  6 14 15 18 22 25 29
    -48556.76800  22863140.05500                    -15451.07240  22863143.00840
  29076304.95700  26022919.89800                  22731242.43840  26022924.32840
   -947599.70000  26242757.63300                   -716923.91040  26242761.45340
  -3132708.57400  24053483.15600                  -2400280.01540  24053486.26240
  27985846.40900  25486699.83600                  21851144.97640  25486702.16840
   4813078.48900  23619607.79700                   3771420.29140  23619609.74240
 96  9 16  1 34 30.0080000  0  6 14 15 18 22 25 29
      1409.90200  22872648.40600                     23484.00340  22872651.37140
  29241851.41200  26054422.90600                  22860239.66240  26054427.50040
   -960129.15400  26240373.18700                   -726687.08940  26240378.89440
  -3120146.22300  24055873.75000                  -2390491.13940  24055876.90240
  28136714.73400  25515409.16400                  21968704.71040  25515411.68440
   4852955.10500  23627196.03900                   3802492.98340  23627198.01940
 96  9 16  1 35  0.0080000  0  6 14 15 18 22 25 29
     51906.45200  22882257.63300                     62831.97240  22882260.58640
  29407516.17300  26085947.26600                  22989329.07640  26085952.55140
   -972598.58800  26238000.51600                   -736403.51940  26238004.54740
  -3107027.75800  24058369.92200                  -2380268.93440  24058373.07440
  28287735.22700  25544147.89100                  22086383.00640  25544150.38740
   4893008.10600  23634817.71100                   3833703.11940  23634819.66840
 96  9 16  1 35 30.0080000  0  6 14 15 18 22 25 29
    102945.43200  22891970.04700                    102602.61340  22891973.02340
  29573292.48400  26117493.95300                  23118505.41640  26117499.36740
   -984990.51300  26235642.60200                   -746059.54340  26235646.04740
  -3093357.42700  24060971.04700                  -2369616.70440  24060974.44540
  28438908.68200  25572915.01600                  22204180.50940  25572917.65240
   4933239.59800  23642473.59400                   3865052.34340  23642475.52740
 96  9 16  1 36  0.0080000  0  6 14 15 18 22 25 29
    154455.44900  22901772.00000                    142740.29440  22901775.04740
  29739111.52100  26149048.43700                  23247715.02240  26149053.27740
   -997368.38100  26233287.11700                   -755704.60240  26233289.62540
  -3079222.58400  24063661.03100                  -2358602.51740  24063664.27740
  28590164.56500  25601698.27300                  22322042.22640  25601700.96940
   4973578.11700  23650149.97700                   3896484.96740  23650151.81640
 96  9 16  1 36 30.0090000  0  6 14 15 18 22 25 29
    206471.89800  22911670.37200                    183272.59940  22911673.32540
  29905027.73400  26180621.14500                  23377000.39940  26180626.32540
  -1009687.89600  26230942.04400                   -765304.18940  26230945.43140
  -3064568.65700  24066449.26300                  -2347183.84440  24066452.53240
  28741554.90600  25630506.64500                  22440008.71840  25630509.24740
   5014074.38100  23657856.06000                   3928040.50940  23657858.02840
 96  9 16  1 37  0.0090000  0  6 14 15 18 22 25 29
    259031.40600  22921672.04400                    224228.06840  22921674.99740
  30071073.28400  26212218.66900                  23506386.51540  26212223.19240
  -1021917.16500  26228614.92700                   -774833.45840  26228618.61840
  -3049362.83600  24069342.97400                  -2335335.12640  24069346.10240
  28893129.69800  25659350.27000                  22558118.94440  25659353.24740
   5054787.86500  23665603.34900                   3959765.31340  23665605.29440
 96  9 16  1 37 30.0090000  0  6 14 15 18 22 25 29
    312112.31700  22931773.04400                    265589.82040  22931776.10240
  30237218.99700  26243835.07500                  23635850.70040  26243840.39540
  -1034102.27000  26226296.92700                   -784328.31840  26226300.75940
  -3033649.52900  24072333.26300                  -2323090.96040  24072336.59140
  29044851.07700  25688221.66100                  22676343.38940  25688223.48940
   5095689.59600  23673386.60600                   3991636.79540  23673388.59940
 96  9 16  1 38  0.0090000  0  6 14 15 18 22 25 29
    365682.42300  22941966.98100                    307332.76540  22941970.00540
  30403422.41000  26275462.98100                  23765359.83140  26275467.69240
  -1046298.89800  26223976.11400                   -793832.14240  26223979.02040
  -3017460.09800  24075413.91100                  -2310475.78840  24075416.97040
  29196666.19100  25717111.41100                  22794640.88140  25717113.96640
   5136736.23400  23681197.67700                   4023621.19740  23681199.65740
 96  9 16  1 38 30.0090000  0  6 14 15 18 22 25 29
    419789.79500  22952263.33300                    349494.36040  22952266.22740
  30569713.88400  26307106.81000                  23894937.60540  26307111.31040
  -1058465.51200  26221661.00500                   -803312.59540  26221664.11040
  -3000748.30400  24078594.01300                  -2297453.58140  24078597.10640
  29348613.81600  25746026.26300                  22913041.61840  25746028.39540
   5177964.58600  23689043.19200                   4055747.19540  23689045.16140
 96  9 16  1 39  0.0090000  0  6 14 15 18 22 25 29
    474412.34900  22962657.79400                    392057.39340  22962660.75940
  30736053.63200  26338760.32500                  24024552.97240  26338765.61040
  -1070628.01100  26219345.48100                   -812789.83140  26219349.11440
  -2983555.85500  24081865.43500                  -2284056.83640  24081868.55240
  29500642.14300  25774956.16100                  23031505.23740  25774958.47040
   5219336.87800  23696915.94200                   4087985.35540  23696917.80640
 96  9 16  1 39 30.0090000  0  6 14 15 18 22 25 29
    529568.52000  22973153.61400                    435036.23140  22973156.47440
  30902439.54800  26370422.41100                  24154204.32940  26370426.52440
  -1082771.38900  26217034.98900                   -822252.14440  26217039.82940
  -2965870.62600  24085230.78600                  -2270276.11740  24085234.17340
  29652733.54900  25803897.80200                  23150018.02440  25803900.74340
   5260838.75400  23704813.54400                   4120324.49240  23704815.47740
 96  9 16  1 40  0.0090000  0  6 14 15 18 22 25 29
    585211.27700  22983742.15300                    478394.22940  22983745.07140
  31068826.46800  26402084.93500                  24283856.47140  26402089.59940
  -1094928.13900  26214721.22400                   -831724.90540  26214724.01340
  -2947728.68600  24088683.16100                  -2256139.51140  24088686.09140
  29804859.37200  25832846.49700                  23268557.63140  25832848.37240
   5302417.97400  23712725.87200                   4152723.89640  23712727.84140
 96  9 16  1 40 30.0090000  0  6 14 15 18 22 25 29
    641460.56600  22994445.94200                    522224.84840  22994448.97740
  31235339.16700  26433771.03600                  24413606.61240  26433775.06740
  -1106955.97800  26212433.36400                   -841097.21140  26212436.54040
  -2929010.88000  24092245.08300                  -2241554.17940  24092248.25940
  29957149.82800  25861826.30200                  23387225.50340  25861829.11440
   5344189.31800  23720674.61400                   4185273.00940  23720676.59540
 96  9 16  1 41  0.0090000  0  6 14 15 18 22 25 29
    698226.93000  23005248.22400                    566458.38140  23005251.24740
  31401883.39500  26465463.45800                  24543381.33940  26465468.89540
  -1118949.44700  26210151.20800                   -850442.72640  26210154.93540
  -2909816.97200  24095897.55200                  -2226597.85340  24095900.48140
  30109513.37500  25890820.45800                  23505950.35540  25890822.55640
   5386064.59500  23728643.31700                   4217903.10740  23728645.08740
 96  9 16  1 41 30.0090000  0  6 14 15 18 22 25 29
    755539.58200  23016154.23900                    611117.59140  23016157.31040
  31568475.50700  26497164.31700                  24673193.33140  26497169.38040
  -1130892.02200  26207877.84100                   -859748.58940  26207881.73140
  -2890115.94900  24099646.46600                  -2211246.37440  24099649.53640
  30261981.96200  25919834.42700                  23624757.04640  25919836.71240
   5428068.01300  23736636.16900                   4250633.05240  23736638.22040
 96  9 16  1 42  0.0090000  0  6 14 15 18 22 25 29
    813379.56700  23027161.01300                    656187.71140  23027163.97740
  31735104.61200  26528873.45800                  24803034.21140  26528877.87640
  -1142794.83000  26205612.90300                   -869023.46940  26205615.10640
  -2869908.78500  24103491.91100                  -2195500.50840  24103495.12240
  30414550.86100  25948867.35600                  23743641.89940  25948869.56040
   5470200.90600  23744653.81700                   4283463.89340  23744655.79840
 96  9 16  1 42 30.0090000  0  6 14 15 18 22 25 29
    871771.82800  23038272.72400                    701688.17740  23038275.65340
  31901789.26500  26560592.38000                  24932918.36840  26560597.22040
  -1154648.95200  26203357.09100                   -878260.41340  26203359.73940
  -2849162.36300  24107439.75500                  -2179334.43040  24107442.89540
  30567237.09700  25977922.72400                  23862618.18340  25977924.72740
   5512509.33600  23752704.88000                   4316431.51340  23752706.73140
 96  9 16  1 43  0.0090000  0  6 14 15 18 22 25 29
    930651.47900  23049477.16100                    747568.42140  23049480.19640
  32068470.16800  26592310.63800                  25062799.57940  26592314.62240
  -1166526.19300  26201097.20800                   -887515.38240  26201101.08740
  -2827915.05300  24111482.98900                  -2162778.06840  24111486.10640
  30719975.04300  26006987.40300                  23981634.75440  26006990.26340
   5554969.33800  23760784.63800                   4349517.23940  23760786.51340
 96  9 16  1 43 30.0090000  0  6 14 15 18 22 25 29
    990025.66700  23060775.70000                    793834.02440  23060778.64240
  32235170.61700  26624032.67700                  25192696.01740  26624036.84940
  -1178407.23000  26198835.88000                   -896773.31840  26198838.44640
  -2806123.00300  24115629.83300                  -2145797.22140  24115632.82140
  30872782.51400  26036065.42700                  24100705.50240  26036067.66540
   5597611.93200  23768899.20000                   4382745.24940  23768900.99340
 96  9 16  1 44  0.0090000  0  6 14 15 18 22 25 29
   1049874.73800  23072164.56000                    840469.66440  23072167.58340
  32401884.32800  26655756.65300                  25322602.79740  26655760.09940
  -1190302.33200  26196572.34100                   -906042.18340  26196575.92740
  -2783805.91000  24119876.60600                  -2128407.25640  24119879.43140
  31025653.06900  26065155.95000                  24219825.41640  26065158.63440
   5640448.10600  23777050.90300                   4416124.10040  23777052.93140
 96  9 16  1 44 30.0090000  0  6 14 15 18 22 25 29
   1110261.86100  23083655.84100                    887524.56940  23083658.81740
  32568670.80500  26687495.70000                  25452566.24440  26687500.88040
  -1202144.77200  26194319.06000                   -915270.02940  26194323.47740
  -2760916.74100  24124232.21600                  -2110571.51540  24124235.00540
  31178654.37400  26094270.91900                  24339047.20440  26094272.74740
   5683537.54200  23785250.34900                   4449700.29840  23785252.31740
 96  9 16  1 45  0.0090000  0  6 14 15 18 22 25 29
   1171174.01200  23095246.92700                    934988.58840  23095249.91540
  32735507.56500  26719243.45000                  25582568.91540  26719247.75140
  -1213930.19100  26192076.75500                   -924453.43740  26192079.27440
  -2737488.62200  24128690.20800                  -2092315.81240  24128693.20840
  31331762.83800  26123407.13800                  24458352.49840  26123408.94240
   5726834.74200  23793489.53600                   4483438.38540  23793491.39940
 96  9 16  1 45 30.0090000  0  6 14 15 18 22 25 29
   1232673.90000  23106950.30200                    982910.57840  23106953.31340
  32902434.29800  26751008.88800                  25712641.70140  26751012.43840
  -1225607.91000  26189854.14500                   -933552.94540  26189857.27440
  -2713491.39400  24133256.77000                  -2073616.65440  24133259.89940
  31485031.74100  26152572.92700                  24577782.82540  26152574.68540
   5770358.33900  23801771.67700                   4517352.88040  23801773.55240
 96  9 16  1 46  0.0090000  0  6 14 15 18 22 25 29
   1294728.55700  23118758.73100                   1031264.86240  23118761.67340
  33069399.31000  26782780.91100                  25842744.27240  26782785.88040
  -1237214.75300  26187645.45800                   -942597.23040  26187648.73940
  -2688975.13800  24137922.20000                  -2054513.05940  24137925.23540
  31638404.42800  26181758.86400                  24697294.00340  26181761.37240
   5814047.33500  23810085.59100                   4551396.27140  23810087.54840
 96  9 16  1 46 30.0090000  0  6 14 15 18 22 25 29
   1357364.41300  23130677.88000                   1080072.02640  23130680.90340
  33236413.95400  26814562.56700                  25972885.53540  26814568.08740
  -1248732.57500  26185453.42700                   -951572.12240  26185457.17740
  -2663897.08700  24142694.51300                  -2034971.70540  24142697.37240
  31791888.15500  26210965.53600                  24816891.70740  26210967.62240
   5857895.71100  23818429.59100                   4585563.85140  23818431.57140
 96  9 16  1 47  0.0090000  0  6 14 15 18 22 25 29
   1420565.35100  23142704.49700                   1129319.51740  23142707.55640
  33403453.59500  26846349.47400                  26103046.27940  26846353.90340
  -1260193.70000  26183272.45000                   -960502.87840  26183275.72040
  -2638261.07600  24147572.90300                  -2014995.57240  24147575.88040
  31945440.33400  26240185.86400                  24936542.76340  26240188.47740
   5901887.60900  23826800.84100                   4619843.26640  23826802.72740
 96  9 16  1 47 30.0090000  0  6 14 15 18 22 25 29
   1484319.33400  23154836.68500                   1178997.94740  23154839.63840
  33570514.95100  26878139.88000                  26233223.93240  26878145.08340
  -1271610.21200  26181100.77800                   -969398.81640  26181103.72040
  -2612057.57400  24152559.12200                  -1994577.24340  24152562.02840
  32099054.22800  26269417.88000                  25056241.91240  26269420.43540
   5946043.45300  23835203.42700                   4654250.42840  23835205.37240
 96  9 16  1 48  0.0090000  0  6 14 15 18 22 25 29
   1548607.83600  23167070.30200                   1229092.88740  23167073.18540
  33737582.48900  26909931.85600                  26363406.42740  26909937.21240
  -1282988.39000  26178935.21600                   -978264.93640  26178938.18140
  -2585290.47200  24157652.65300                  -1973719.74240  24157655.51340
  32252723.26300  26298659.71600                  25175984.00940  26298662.15340
   5990355.84300  23843635.94200                   4688779.57140  23843637.84140
 96  9 16  1 48 30.0100000  0  6 14 15 18 22 25 29
   1613418.74800  23179403.42400                   1279594.90140  23179406.44740
  33904642.83500  26941722.01800                  26493583.29840  26941728.17040
  -1294351.76500  26176772.65800                   -987119.50740  26176775.57640
  -2557973.31300  24162850.93200                  -1952433.63240  24162854.00240
  32406461.64300  26327914.84600                  25295780.15140  26327916.69740
   6034818.97900  23852097.05700                   4723426.18040  23852098.92040
 96  9 16  1 49  0.0100000  0  6 14 15 18 22 25 29
   1678725.13300  23191830.81400                   1330482.99840  23191833.82640
  34071670.66700  26973506.81400                  26623734.83340  26973512.39340
  -1305702.65000  26174612.51800                   -995964.34340  26174615.76440
  -2530134.81500  24168148.49400                  -1930741.27640  24168151.51840
  32560252.91300  26357180.70500                  25415617.49740  26357183.77540
   6079427.99600  23860585.85300                   4758186.46340  23860587.74040
 96  9 16  1 49 30.0100000  0  6 14 15 18 22 25 29
   1744538.20300  23204354.60300                   1381765.91640  23204357.73240
  34238677.38200  27005286.51800                  26753869.94340  27005291.46340
  -1317017.27900  26172459.78300                  -1004780.90740  26172463.15840
  -2501765.85700  24173546.72100                  -1908635.57640  24173549.75640
  32714137.40700  26386464.13500                  25535527.50140  26386466.32640
   6124192.18600  23869104.11900                   4793067.65840  23869105.97140
 96  9 16  1 50  0.0100000  0  6 14 15 18 22 25 29
   1810887.05900  23216980.49400                   1433466.32940  23216983.52940
  34405676.59700  27037066.49400                  26883999.16640  27037070.27940
  -1328286.68200  26170315.26000                  -1013562.25940  26170317.72140
  -2472840.69200  24179051.18200                  -1886096.46740  24179054.18240
  32868135.30200  26415769.12700                  25655525.85040  26415771.56440
   6169123.06600  23877654.21300                   4828078.74540  23877656.19340
 96  9 16  1 50 30.0100000  0  6 14 15 18 22 25 29
   1877693.92400  23229693.35300                   1485523.63140  23229696.37740
  34572597.89300  27068830.55700                  27014067.70340  27068835.02140
  -1339585.18800  26168165.04900                  -1022366.26840  26168168.95140
  -2443425.55700  24184648.34600                  -1863175.56640  24184651.13540
  33022151.42700  26445076.84600                  25775538.42240  26445079.82240
   6214159.31700  23886224.32200                   4863171.93240  23886226.23240
 96  9 16  1 51  0.0100000  0  6 14 15 18 22 25 29
   1945038.52700  23242508.53300                   1537999.94740  23242511.46340
  34739512.54100  27100593.39300                  27144131.04540  27100596.82640
  -1350835.60100  26166024.19700                  -1031132.82040  26166027.22140
  -2413445.75200  24190353.58000                  -1839814.66040  24190356.58040
  33176230.97800  26474396.97800                  25895600.39240  26474399.80340
   6259376.94900  23894828.99400                   4898406.45240  23894831.05740
 96  9 16  1 51 30.0100000  0  6 14 15 18 22 25 29
   2012967.99800  23255435.08800                   1590932.01040  23255438.15840
  34906451.36300  27132361.13500                  27274213.21540  27132367.53340
  -1362017.17300  26163896.51000                  -1039845.70640  26163898.94740
  -2382855.01000  24196174.75200                  -1815977.70140  24196177.71740
  33330404.67300  26503735.50200                  26015735.75940  26503737.17840
   6304813.54500  23903475.08800                   4933811.59640  23903476.99840
 96  9 16  1 52  0.0100000  0  6 14 15 18 22 25 29
   2081401.82700  23268457.59600                   1644257.07940  23268460.63140
  35073330.48600  27164116.67400                  27404248.90440  27164122.21740
  -1373218.14300  26161764.49400                  -1048573.70740  26161767.51840
  -2351740.33900  24202095.66600                  -1791732.48640  24202098.66640
  33484563.98000  26533070.62700                  26135859.88340  26533073.70940
   6350385.65500  23912147.31400                   4969322.33740  23912149.23640
 96  9 16  1 52 30.0100000  0  6 14 15 18 22 25 29
   2150465.67800  23281600.06400                   1698073.06840  23281603.02940
  35240272.15200  27195884.89300                  27534333.30140  27195890.44740
  -1384298.24900  26159656.15000                  -1057207.54140  26159659.52540
  -2319986.59900  24208138.29100                  -1766989.29340  24208141.36140
  33638834.32900  26562427.79900                  26256070.53340  26562430.92840
   6396201.98800  23920865.86100                   5005023.38040  23920867.70140
 96  9 16  1 53  0.0100000  0  6 14 15 18 22 25 29
   2220168.87000  23294864.01800                   1752387.25040  23294866.95940
  35407269.93000  27227664.11900                  27664461.40840  27227668.76040
  -1395255.82000  26157571.08800                  -1065745.87740  26157574.89640
  -2287603.29200  24214300.68200                  -1741755.51940  24214303.70540
  33793225.38700  26591807.22800                  26376375.24840  26591810.38140
   6442256.38300  23929629.90800                   5040909.93240  23929631.67840
 96  9 16  1 53 30.0100000  0  6 14 15 18 22 25 29
   2290434.41300  23308235.25200                   1807139.62440  23308238.18240
  35574253.58100  27259439.61900                  27794578.53340  27259443.13540
  -1406148.65800  26155498.37700                  -1074233.77440  26155501.10740
  -2254658.24000  24220569.80700                  -1716084.02640  24220572.73640
  33947671.04800  26621197.61900                  26496722.53540  26621201.13540
   6488475.79900  23938425.04100                   5076925.06740  23938426.88140
 96  9 16  1 54  0.0100000  0  6 14 15 18 22 25 29
   2361246.00700  23321710.18900                   1862317.49040  23321713.13140
  35741214.25600  27291210.71300                  27924677.74340  27291216.23240
  -1416967.65600  26153439.36100                  -1082664.13740  26153443.19340
  -2221156.85400  24226944.83000                  -1689979.02840  24226947.68940
  34102165.37400  26650597.18900                  26617107.72440  26650599.69740
   6534842.83200  23947248.43900                   5113055.22740  23947250.45540
 96  9 16  1 54 30.0100000  0  6 14 15 18 22 25 29
   2432569.63200  23335282.58000                   1917894.33840  23335285.68540
  35908120.70100  27322972.04100                  28054734.71040  27322976.85740
  -1427740.06300  26151389.01000                  -1091058.18340  26151391.47140
  -2187114.48900  24233422.85300                  -1663452.48640  24233425.80740
  34256691.87100  26680001.93900                  26737517.96740  26680004.55340
   6581341.16100  23956096.47800                   5149287.69740  23956098.33040
 96  9 16  1 55  0.0100000  0  6 14 15 18 22 25 29
   2504413.68900  23348954.09600                   1973876.71740  23348957.06040
  36074976.85200  27354724.22800                  28184752.48940  27354729.18540
  -1438472.28800  26149347.00200                  -1099420.90940  26149350.52940
  -2152512.36800  24240007.39300                  -1636489.77740  24240010.45140
  34411258.63400  26709415.62700                  26857959.60340  26709419.69340
   6628008.38600  23964977.11900                   5185651.77640  23964979.06440
 96  9 16  1 55 30.0100000  0  6 14 15 18 22 25 29
   2576786.83500  23362726.15000                   2030271.37640  23362729.09240
  36241798.53100  27386468.74400                  28314743.38240  27386474.51040
  -1449147.95300  26147315.66600                  -1107739.60740  26147318.26840
  -2117317.50400  24246704.84600                  -1609065.18240  24246707.72840
  34565882.69900  26738838.79900                  26978445.90040  26738840.54540
   6674865.58400  23973893.62700                   5222163.87940  23973895.46740
 96  9 16  1 56  0.0100000  0  6 14 15 18 22 25 29
   2649722.28400  23376605.22800                   2087104.19340  23376608.20540
  36408608.09500  27418211.62700                  28444724.82840  27418216.66640
  -1459757.10000  26145296.87700                  -1116006.43540  26145299.68940
  -2081493.20500  24253521.87700                  -1581150.12140  24253524.85340
  34720597.44000  26768280.76000                  27099002.83440  26768281.35740
   6721959.96400  23982855.34600                   5258860.80840  23982857.23240
 96  9 16  1 56 30.0100000  0  6 14 15 18 22 25 29
   2723239.58600  23390595.33800                   2144390.39940  23390598.24440
  36575399.20500  27449950.80700                  28574691.90140  27449955.93940
  -1470318.13000  26143287.21300                  -1124235.76640  26143290.43540
  -2045049.27200  24260456.84600                  -1552752.23140  24260459.71740
  34875397.54300  26797737.99400                  27219626.29740  26797741.20540
   6769302.58500  23991864.40000                   5295751.16640  23991866.26440
 96  9 16  1 57  0.0100000  0  6 14 15 18 22 25 29
   2797314.14000  23404691.13500                   2202110.82740  23404694.05340
  36742141.13900  27481680.88500                  28704620.69740  27481685.54940
  -1480849.47300  26141282.78300                  -1132441.97640  26141285.45540
  -2008019.10300  24267503.36900                  -1523897.53640  24267506.40440
  35030254.15800  26827206.19700                  27340293.79140  26827208.74040
   6816847.14600  24000911.94700                   5332798.88340  24000913.67040
 96  9 16  1 57 30.0100000  0  7  4 14 15 18 22 25 29
      5533.62210  28008115.11100
   2871924.53100  23418888.95500                   2260248.79240  23418891.94340
  36908811.06900  27513397.39300                  28834493.35540  27513402.33840
  -1491366.99700  26139281.82200                  -1140637.41940  26139285.27940
  -1970427.50200  24274657.00200                  -1494605.36440  24274660.07240
  35185136.33100  26856679.21300                  27460981.22440  26856682.26040
   6864552.62300  24009989.93900                   5369971.99240  24009991.81440
 96  9 16  1 58  0.0100000  0  7  4 14 15 18 22 25 29
     39029.16100  28014490.68200
   2947099.85800  23433194.50200                   2318826.96640  23433197.54940
  37075419.07400  27545101.74400                  28964317.75440  27545106.93540
  -1501860.64000  26137284.38500                  -1148814.25640  26137287.51440
  -1932277.38200  24281916.68900                  -1464877.97640  24281919.61940
  35340064.67700  26886161.43200                  27581704.59240  26886163.79940
   6912427.92400  24019100.22800                   5407277.42840  24019101.96340
 96  9 16  1 58 30.0100000  0  7  4 14 15 18 22 25 29
     73001.51200  28020954.55700                      6208.50250  28020957.00640
   3022849.46700  23447609.21300                   2377852.63240  23447612.07240
  37241989.31800  27576799.32200                  29094112.74340  27576803.55340
  -1512295.52900  26135298.79100                  -1156945.32540  26135301.32240
  -1893566.68900  24289283.07200                  -1434713.78040  24289285.95540
  35495065.62200  26915657.19700                  27702484.57440  26915659.78740
   6960469.33500  24028242.34600                   5444712.29940  24028244.17440
 96  9 16  1 59  0.0100000  0  7  4 14 15 18 22 25 29
    107406.25400  28027500.15000                     33017.41040  28027505.43540
   3099122.30200  23462123.33000                   2437286.01140  23462126.27140
  37408489.60400  27608482.94700                  29223853.21940  27608488.88940
  -1522695.24300  26133320.04900                  -1165048.97340  26133322.55740
  -1854326.10700  24296750.18900                  -1404136.68440  24296753.04940
  35650099.16200  26945158.19700                  27823289.92440  26945161.22140
   7008639.79100  24037408.86100                   5482247.72440  24037410.79540
 96  9 16  1 59 30.0100000  0  7  4 14 15 18 22 25 29
    142258.05300  28034133.43900                     60174.71640  28034136.72140
   3175934.15900  23476740.17400                   2497139.40940  23476743.15040
  37574925.85400  27640153.80700                  29353543.79040  27640159.73640
  -1533065.15400  26131346.32200                  -1173129.39340  26131348.58440
  -1814540.29600  24304320.90800                  -1373134.73540  24304323.89640
  35805160.69200  26974665.47100                  27944117.08640  26974667.87340
   7056957.96100  24046603.55700                   5519898.24940  24046605.57240
 96  9 16  2  0  0.0100000  0  7  4 14 15 18 22 25 29
    177553.38700  28040850.82200                     87677.56940  28040852.56840
   3253272.05900  23491457.13500                   2557402.70940  23491460.10040
  37741287.89600  27671811.83800                  29483176.54740  27671816.63140
  -1543407.96700  26129377.83800                  -1181188.70540  26129381.15440
  -1774211.46300  24311995.46300                  -1341709.65140  24311998.36940
  35960240.77500  27004175.79900                  28064958.71540  27004177.74440
   7105429.28100  24055827.26000                   5557668.11540  24055829.13540
 96  9 16  2  0 30.0110000  0  7  4 14 15 18 22 25 29
    213309.84800  28047655.00700                    115539.75940  28047654.92540
   3331138.37500  23506274.80400                   2618077.75640  23506277.71040
  37907584.92700  27703457.24900                  29612758.61640  27703461.97240
  -1553701.70600  26127419.64700                  -1189209.77340  26127423.12840
  -1733310.15300  24319778.82700                  -1309838.48240  24319781.80440
  36115332.96000  27033689.04600                  28185809.76740  27033691.14340
   7154064.52400  24065082.38200                   5595565.71040  24065084.28040
 96  9 16  2  1  0.0110000  0  7  4 14 15 18 22 25 29
    249501.71100  28054540.32700                    143741.14840  28054540.96040
   3409492.38400  23521184.72600                   2679132.82440  23521187.56140
  38073743.78000  27735076.01500                  29742233.04640  27735082.07340
  -1563995.21900  26125460.97600                  -1197230.65940  26125464.18640
  -1691864.26500  24327665.64000                  -1277542.96340  24327668.64040
  36270356.46000  27063189.22600                  28306607.32140  27063192.55440
   7202825.44700  24074361.04600                   5633561.24240  24074362.99140
 96  9 16  2  1 30.0110000  0  8  4 14 15 18 19 22 25 29
    286245.42200  28061531.95200                    172372.69440  28061533.03040
   3488430.03100  23536206.07700                   2740642.67840  23536209.08940
  38239853.59500  27766685.57700                  29871669.24140  27766691.22640
  -1574194.29000  26123520.03800                  -1205177.96640  26123523.20240
                  28019266.97600
  -1649778.23100  24335674.28800                  -1244748.63440  24335677.35840
  36425421.40900  27092697.49100                  28427437.14140  27092699.37840
   7251808.21200  24083682.21000                   5671729.63840  24083684.08540
 96  9 16  2  2  0.0110000  0  8  4 14 15 18 19 22 25 29
    323530.27300  28068628.29600                    201425.80640  28068631.47240
   3567931.89700  23551334.86600                   2802592.18640  23551337.93640
  38405905.61500  27798284.63200                  30001060.43040  27798288.48740
  -1584294.10100  26121597.71800                  -1213047.91540  26121600.69440
    -24436.03400  28014457.11600
  -1607063.76800  24343802.60800                  -1211464.61440  24343805.60840
  36580536.78600  27122214.88200                  28548306.28440  27122217.54240
   7301001.39400  24093043.27200                   5710061.99840  24093045.21840
 96  9 16  2  2 30.0110000  0  8  4 14 15 18 19 22 25 29
    361339.82800  28075824.50700                    230887.81540  28075826.01840
   3648000.22100  23566571.48300                   2864983.08340  23566574.50740
  38571883.66500  27829868.89000                  30130393.93840  27829873.81140
  -1594297.74900  26119694.10800                  -1220842.94040  26119697.42540
    -49607.76700  28009667.28800
  -1563733.19300  24352047.96800                  -1177700.51840  24352050.88640
  36735697.94000  27151740.99900                  28669211.07640  27151743.12040
   7350377.05700  24102439.07700                   5748536.55540  24102440.92940
 96  9 16  2  3  0.0110000  0  8  4 14 15 18 19 22 25 29
    399630.73200  28083109.56100                    260724.86840  28083114.88240
   3728614.64100  23581911.81900                   2927799.51340  23581914.85440
  38737760.54700  27861434.78800                  30259648.65940  27861441.38640
  -1604233.42300  26117803.34300                  -1228584.98840  26117806.17940
    -74664.99700  28004898.42900                     -8457.31750  28004902.48340
  -1519822.13100  24360404.14000                  -1143484.08240  24360407.16340
  36890889.01000  27181273.49100                  28790139.18840  27181276.05840
   7399909.89400  24111865.13200                   5787133.58240  24111867.04240
 96  9 16  2  3 30.0110000  0  8  4 14 15 18 19 22 25 29
    438421.33900  28090490.24100                    290951.33340  28090492.89040
   3809813.74500  23597363.53000                   2991071.53840  23597366.50740
  38903576.55500  27892988.56100                  30388855.93440  27892993.20240
  -1614053.83200  26115934.82700                  -1236237.24140  26115937.00740
    -99541.68000  28000164.69400                    -27841.65440  28000168.97240
  -1475298.08700  24368876.67100                  -1108790.00440  24368879.57740
  37046156.40300  27210820.04600                  28911126.74640  27210822.77640
   7449634.34400  24121327.31100                   5825879.91340  24121329.10440
 96  9 16  2  4  0.0110000  0  8  4 14 15 18 19 22 25 29
    477655.05100  28097957.16300                    321523.04940  28097958.95640
   3891571.64500  23612921.56900                   3054778.99340  23612924.51140
  39069289.06800  27924521.97600                  30517982.56240  27924526.75740
  -1623797.34800  26114080.64700                  -1243829.55240  26114083.54240
   -124250.13000  27995463.53800                    -47094.88440  27995467.08940
  -1430203.08200  24377458.08500                  -1073651.02640  24377461.07340
  37201447.15700  27240369.52200                  29032132.53440  27240371.21040
   7499512.80300  24130818.77200                   5864746.25440  24130820.67140
 96  9 16  2  4 30.0110000  0  8  4 14 15 18 19 22 25 29
    517285.13300  28105499.14000                    352403.63540  28105504.35440
   3973854.52900  23628579.45200                   3118895.52440  23628582.39340
  39234843.84800  27956026.26500                  30646986.26640  27956032.06540
  -1633518.91900  26112230.17900                  -1251404.77540  26112233.35440
   -148847.66000  27990781.94400                    -66261.77140  27990783.63240
  -1384592.87500  24386137.28000                  -1038110.58140  24386140.25740
  37356714.71300  27269917.11600                  29153120.26340  27269918.99140
   7549514.41000  24140333.66300                   5903708.55340  24140335.55040
 96  9 16  2  5  0.0110000  0  8  4 14 15 18 19 22 25 29
    557394.51700  28113130.85800                    383657.68240  28113135.19440
   4056722.01200  23644348.59300                   3183467.59240  23644351.62840
  39400317.42500  27987515.42900                  30775926.69240  27987519.31940
  -1643166.03000  26110395.10800                  -1258921.98340  26110398.08540
   -173266.65400  27986135.17900                    -85289.49940  27986140.92140
  -1338393.08300  24394928.76500                  -1002110.73040  24394931.87040
  37512030.37100  27299472.75700                  29274145.43940  27299475.73340
   7599739.97600  24149891.30400                   5942845.37140  24149893.22640
 96  9 16  2  5 30.0110000  0  8  4 14 15 18 19 22 25 29
    597974.26400  28120852.30400                    415278.32240  28120856.56940
   4140137.87300  23660222.06900                   3248466.96740  23660225.09340
  39565685.25500  28018984.12400                  30904784.73140  28018990.33540
  -1652780.80300  26108565.17900                  -1266413.98540  26108568.87040
   -197546.41100  27981514.17900                   -104208.73240  27981517.68340
  -1291618.31500  24403829.74900                   -965662.84040  24403832.71440
  37667370.10800  27329033.56100                  29395189.37540  27329036.06940
   7650172.19900  24159488.24900                   5982143.21540  24159490.01840
 96  9 16  2  6  0.0110000  0  8  4 14 15 18 19 22 25 29
    639097.01900  28128678.03000                    447322.04040  28128682.78840
   4224145.02400  23676208.18600                   3313927.07640  23676211.19840
  39731007.34900  28050443.99100                  31033607.13540  28050448.09340
  -1662316.02000  26106750.88200                  -1273844.00640  26106753.75340
   -221631.66200  27976930.19400                   -122976.40240  27976934.63640
  -1244208.97300  24412851.61600                   -928720.47840  24412854.41740
  37822793.18100  27358609.09300                  29516298.26740  27358612.38640
   7700875.59000  24169136.72600                   6021652.36040  24169138.60140
 96  9 16  2  6 30.0110000  0  8  4 14 15 18 19 22 25 29
    680754.57200  28136605.44400                    479782.42540  28136607.50740
   4308697.95200  23692297.98300                   3379812.46640  23692300.83140
  39896262.77300  28081890.99900                  31162377.54240  28081895.25340
  -1671802.35200  26104945.22600                  -1281235.91740  26104947.97940
   -245548.68900  27972379.78000                   -141612.97940  27972384.25740
  -1196165.53400  24421993.75700                   -891284.00940  24421996.48740
  37978266.74000  27388194.14700                  29637446.50940  27388197.80440
   7751823.61700  24178831.88200                   6061352.13340  24178833.65140
 96  9 16  2  7  0.0110000  0  8  4 14 15 18 19 22 25 29
    722908.07800  28144628.14700                    512629.31140  28144629.68340
   4393744.45800  23708481.72600                   3446082.46340  23708484.64340
  40061409.23100  28113317.41300                  31291063.08140  28113323.22640
  -1681278.43000  26103141.88200                  -1288619.85240  26103144.54240
   -269328.45900  27967854.69400                   -160142.54340  27967858.83140
  -1147511.71100  24431252.28000                   -853371.92840  24431255.10440
  38133721.15600  27417775.96800                  29758579.83540  27417778.27640
   7802961.94800  24188563.18600                   6101200.18740  24188564.97940
 96  9 16  2  7 30.0110000  0  8  4 14 15 18 19 22 25 29
    765562.99800  28152743.71800                    545866.93540  28152745.60440
   4479298.16900  23724762.37400                   3512747.68840  23724765.25740
  40226441.20800  28144721.71000                  31419659.43240  28144725.54240
  -1690725.06200  26101344.14000                  -1295980.84940  26101347.25740
   -292964.09500  27963356.91300                   -178559.83840  27963361.96440
  -1098243.30400  24440627.70200                   -814980.94140  24440630.66740
  38289144.46500  27447352.09300                  29879688.90240  27447355.39740
   7854284.39100  24198329.63200                   6141191.70340  24198331.51840
 96  9 16  2  8  0.0110000  0  8  4 14 15 18 19 22 25 29
    808706.88400  28160953.78800                    579485.55840  28160957.73740
   4565376.84300  23741142.35800                   3579821.97140  23741145.35840
  40391354.24200  28176104.06900                  31548163.04540  28176106.65940
  -1700127.18000  26099555.09300                  -1303307.16140  26099557.35440
   -316468.32400  27958884.35100                   -196874.80040  27958888.27640
  -1048366.35600  24450119.03800                   -776115.76840  24450121.92140
  38444532.55900  27476921.96800                  30000770.52340  27476923.60840
   7905792.68000  24208131.26500                   6181328.03540  24208133.05840
 96  9 16  2  8 30.0110000  0  8  4 14 15 18 19 22 25 29
    852343.05300  28169256.88200                    613487.82040  28169261.94440
   4652021.29400  23757630.29600                   3647337.12040  23757633.29640
  40556157.95400  28207464.79600                  31676581.52540  28207470.80840
  -1709469.81500  26097777.69400                  -1310587.11040  26097779.56940
   -339846.76300  27954435.64700                   -215091.68340  27954439.40940
   -997875.12400  24459727.24900                   -736771.93540  24459730.15540
  38599896.79200  27506487.19400                  30121833.57340  27506489.12840
   7957500.55100  24217970.74100                   6221619.88740  24217972.71040
 96  9 16  2  9  0.0110000  0  8  4 14 15 18 19 22 25 29
    896498.25400  28177662.01500                    647894.43740  28177663.74940
   4739281.97900  23774235.52200                   3715332.45240  23774238.52240
  40720884.77400  28238811.39000                  31804940.08240  28238815.40940
  -1718709.11600  26096019.49100                  -1317786.53940  26096021.97640
   -363071.37000  27950015.67900                   -233188.69240  27950020.09740
   -946760.39800  24469453.85100                   -696942.25840  24469456.76840
  38755296.23700  27536058.58500                  30242924.02640  27536061.09340
   8009448.44400  24227856.26500                   6262098.76740  24227858.10440
 96  9 16  2  9 30.0110000  0  7  4 14 18 19 22 25 29
    941130.83700  28186155.61600                    682673.10540  28186157.89040
   4827117.04100  23790949.85800                   3783775.35140  23790952.84740
  -1727885.12400  26094272.93600                  -1324936.66740  26094276.37040
   -386197.00800  27945615.10100                   -251208.62440  27945618.58140
   -895072.93100  24479289.71000                   -656666.29140  24479292.56940
  38910718.51200  27565632.97600                  30364032.32140  27565636.38640
   8061599.58200  24237780.41300                   6302736.02140  24237782.26540
 96  9 16  2 10  0.0110000  0  7  4 14 18 19 22 25 29
    986165.90100  28194723.60800                    717765.32940  28194725.68340
   4915441.62800  23807757.44400                   3852599.69340  23807760.39740
  -1737078.24600  26092523.64000                  -1332100.12540  26092526.80440
   -409303.49200  27941218.46800                   -269213.64440  27941222.78040
   -842885.89800  24489220.60800
  39066104.82900  27595201.99100                  30485112.56540  27595206.05840
   8113874.76100  24247728.07700                   6343469.91840  24247729.92940
 96  9 16  2 10 30.0110000  0  7  4 14 18 19 22 25 29
   1031674.38000  28203382.39000                    753226.53340  28203386.98340
   5004294.01400  23824665.53000                   3921835.31040  23824668.51840
  -1746235.25900  26090781.23300                  -1339235.43440  26090783.91740
   -432310.47200  27936839.65500                   -287141.12540  27936843.48740
   -790139.73100  24499257.77200                      2751.86950  24499260.36240
  39221508.04600  27624774.32700                  30606205.99040  27624777.30440
   8166332.73000  24257710.41300                   6384346.26840  24257712.26540
 96  9 16  2 11  0.0110000  0  7  4 14 18 19 22 25 29
   1077662.48200  28212135.28800                    789061.42240  28212136.12040
   5093652.89000  23841670.07700                   3991465.59640  23841673.03040
  -1755349.87200  26089046.81100                  -1346337.71640  26089049.91740
   -455200.99900  27932484.28000                   -304977.79640  27932489.43640
   -736816.29600  24509404.90500                     44302.62340  24509407.62440
  39376923.98900  27654348.78800                  30727309.33040  27654352.50340
   8218971.60200  24267727.07700                   6425363.57440  24267728.92940
 96  9 16  2 11 30.0110000  0  7  4 14 18 19 22 25 29
   1124152.78000  28220981.49100                    825287.63940  28220983.90540
   5183536.26800  23858774.19400                   4061504.58740  23858777.26540
  -1764406.08200  26087323.45200                  -1353394.48040  26087327.15540
   -477955.60300  27928154.06900                   -322708.68640  27928157.91340
   -682874.22300  24519669.72600                     86335.42540  24519672.58540
  39532346.25400  27683925.14000                  30848417.57440  27683927.48340
   8271799.92100  24277780.03000                   6466528.50340  24277781.92940
 96  9 16  2 12  0.0110000  0  7  4 14 18 19 22 25 29
   1171204.75800  28229934.86600                    861951.48840  28229938.78040
   5274014.48100  23875991.78800                   4132007.08840  23875994.89340
  -1773338.14900  26085623.60100                  -1360354.52140  26085626.47240
   -500497.06200  27923865.14700                   -340273.37640  27923869.35440
   -628251.49100  24530064.19400                    128898.61040  24530066.93640
  39687810.08200  27713508.35800                  30969558.21340  27713509.80040
   8324865.90600  24287878.10800                   6507878.63040  24287879.99540
 96  9 16  2 12 30.0120000  0  7  4 14 18 19 22 25 29
   1218713.15300  28238975.72300                    898971.04640  28238977.64440
   5364996.21000  23893304.81600                   4202901.93940  23893307.78140
  -1782235.11400  26083930.57400                  -1367287.20140  26083933.44540
   -522927.43700  27919596.87100                   -357751.54840  27919600.94940
   -573049.77600  24540568.67600                    171912.94740  24540571.50040
  39843215.50900  27743081.60500                  31090653.34740  27743083.15240
   8378065.43200  24298001.69100                   6549332.81540  24298003.54340
 96  9 16  2 13  0.0120000  0  7  4 14 18 19 22 25 29
   1266739.34500  28248113.55900                    936394.03240  28248120.25040
   5456554.42800  23910727.93400                   4274246.00640  23910730.92240
  -1791029.21400  26082257.05100                  -1374139.72540  26082259.68740
   -545194.58900  27915359.06600                   -375102.45440  27915362.85140
   -517207.23300  24551195.03500                    215426.63540  24551197.76640
  39998616.34600  27772654.49600                  31211744.92240  27772656.80540
   8431442.76300  24308158.96500                   6590925.54240  24308160.71140
 96  9 16  2 13 30.0120000  0  7  4 14 18 19 22 25 29
   1315295.67600  28257356.01200                    974230.15840  28257358.39140
   5548710.07900  23928264.32400                   4346055.60140  23928267.37140
  -1799709.75100  26080605.31600                  -1380903.75240  26080608.23440
   -567286.72800  27911153.81600                   -392317.06440  27911159.18440
   -460725.04900  24561943.26200                    259438.74440  24561946.10940
  40154033.77900  27802230.13700                  31332849.41440  27802232.62140
   8485015.51900  24318353.66800                   6632670.55040  24318355.51940
 96  9 16  2 14  0.0120000  0  7  4 14 18 19 22 25 29
   1364349.03300  28266690.52700                   1012453.50840  28266693.86740
   5641428.28700  23945908.17600                   4418303.55040  23945911.19940
  -1808299.39400  26078970.16000                  -1387596.96440  26078973.35940
   -589234.49300  27906978.06600                   -409419.17840  27906982.69540
   -403653.71000  24572803.59000                    303909.92740  24572806.43740
  40309456.70600  27831804.72300                  31453958.20640  27831807.25440
   8538769.65800  24328582.64400                   6674556.89940  24328584.46140
 96  9 16  2 14 30.0120000  0  7  4 14 18 19 22 25 29
   1413917.92200  28276121.03500                   1051078.65240  28276124.00040
   5734721.26500  23963661.26900                   4490999.37640  23963664.25840
  -1816778.32500  26077357.14400                  -1394203.89240  26077359.91040
   -611031.42800  27902830.70700                   -426403.74740  27902835.38340
   -345976.06900  24583779.30900                    348853.56140  24583782.19140
  40464907.14600  27861386.14400                  31575088.42040  27861388.04340
   8592739.28300  24338852.84800                   6716611.15440  24338854.72340
 96  9 16  2 15  0.0120000  0  7  4 14 18 19 22 25 29
   1464003.75500  28285652.00400                   1090106.59440  28285656.76240
   5828585.41100  23981523.02700                   4564140.26440  23981525.87540
  -1825155.54000  26075763.19900                  -1400731.57640  26075766.07040
   -632659.23600  27898715.37100                   -443256.52340  27898718.67640
   -287689.27600  24594870.84000                    394271.85240  24594873.57040
  40620375.32800  27890971.75400                  31696232.45340  27890972.83240
   8646935.89800  24349166.06600                   6758842.28840  24349167.95340
 96  9 16  2 15 30.0120000  0  7  4 14 18 19 22 25 29
   1514583.49600  28295278.62100                   1129519.35240  28295281.01240
   5922990.54000  23999487.89400                   4637702.69940  23999490.90640
  -1833445.31100  26074185.66800                  -1407191.11440  26074188.01240
   -654134.51300  27894628.37100                   -459990.46040  27894631.40640
   -228816.22200  24606074.25400                    440146.97340  24606077.05540
  40775843.87700  27920555.30100                  31817376.78140  27920558.60540
   8701355.26900  24359521.58200                   6801247.00040  24359523.57440
 96  9 16  2 16  0.0120000  0  7  4 14 18 19 22 25 29
   1565667.91400  28304999.84800                   1169325.40340  28305002.88340
   6017951.82400  24017558.19100                   4711698.50240  24017561.23840
  -1841630.03700  26072627.97300                  -1413568.79740  26072630.78540
   -675450.73300  27890571.78500                   -476600.48140  27890576.09840
   -169335.77700  24617392.72300                    486495.38640  24617395.47640
  40931312.60500  27950139.80900                  31938521.25140  27950140.57040
   8756014.85300  24369923.15200                   6843838.88340  24369924.92240
 96  9 16  2 16 30.0120000  0  7  4 14 18 19 22 25 29
   1617260.22800  28314816.73800                   1209527.23340  28314819.91440
   6113474.11200  24035735.49600                   4786131.44840  24035738.53140
  -1849713.65200  26071089.30900                  -1419867.69540  26071092.13340
   -696594.15500  27886547.84000                   -493075.78840  27886553.84040
   -109222.12700  24628832.14400                    533337.20140  24628834.91040
  41086769.00300  27979723.05100                  32059656.12440  27979725.37140
   8810915.96900  24380370.51900                   6886618.97940  24380372.31240
 96  9 16  2 17  0.0120000  0  7  4 14 18 19 22 25 29
   1669380.52300  28324733.62100                   1250140.43240  28324738.95340
   6209582.62200  24054024.30900                   4861021.18940  24054027.39140
  -1857670.64700  26069575.02700                  -1426067.93440  26069577.67640
   -717530.01800  27882564.08200                   -509389.37040  27882568.06640
    -48443.59600  24640397.71500                    580697.11240  24640400.58640
  41242250.19100  28009309.36300                  32180810.28240  28009312.01240
   8866083.88400  24390868.52700                   6929606.97240  24390870.41440
 96  9 16  2 17 30.0120000  0  7  4 14 18 19 22 25 29
   1721960.65600  28334741.09800                   1291112.00340  28334745.43440
   6306224.71900  24072414.83200                   4936326.71740  24072417.84440
  -1865552.88300  26068075.66800                  -1432209.92040  26068078.55140
   -738343.73600  27878603.48800                   -525607.82940  27878606.19540
     12940.74400  24652079.10500                    628529.07740  24652081.85940
  41397696.42900  28038890.23800                  32301937.22140  28038892.53540
   8921458.30900  24401405.92600                   6972755.87940  24401407.67240
 96  9 16  2 18  0.0120000  0  7  4 14 18 19 22 25 29
   1774928.39200  28344821.23800                   1332385.52240  28344820.35940
   6403333.09100  24090893.74600                   5011995.57640  24090896.73440
  -1873436.46300  26066575.48000                  -1438352.95240  26066577.94140
   -759089.99100  27874655.62900                   -541773.71640  27874658.52340
     74866.96600  24663862.92600                    676783.29440  24663865.73840
  41553039.63400  28068450.89400                  32422983.86840  28068453.62540
   8976970.63000  24411969.66800                   7016012.23640  24411971.42640
 96  9 16  2 18 30.0120000  0  7  4 14 18 19 22 25 29
   1828360.85800  28354987.44100                   1374021.21740  28354991.71940
   6500979.76500  24109475.38700                   5088083.88940  24109478.44540
  -1881240.53800  26065090.26900                  -1444434.01840  26065093.00040
   -779671.81500  27870738.44100                   -557811.43240  27870741.96940
    137412.23800  24675764.91000                    725519.88340  24675767.74640
  41708380.67100  28098012.53500                  32544028.83840  28098014.85540
   9032695.88100  24422573.68400                   7059434.51740  24422575.55940
 96  9 16  2 19  0.0120000  0  7  4 14 18 19 22 25 29
   1882279.39500  28365246.80900                   1416035.69640  28365250.82840
   6599191.13200  24128164.44900                   5164612.22440  24128167.43740
  -1888948.41100  26063623.34000                  -1450440.14140  26063626.08240
   -800074.57900  27866855.73800                   -573709.68740  27866860.80140
    200578.25400  24687785.22300                    774740.17140  24687787.81240
  41863743.15100  28127574.65200                  32665090.53140  28127576.56240
   9088648.24300  24433221.05900                   7103033.76740  24433222.79340
 96  9 16  2 19 30.0120000  0  7  4 14 18 19 22 25 29
   1936707.50800  28375605.96500                   1458447.18140  28375607.59440
   6697984.11400  24146964.09800                   5241593.76540  24146967.10940
  -1896547.48000  26062177.39400                  -1456361.47740  26062180.26640
   -820282.62600  27863010.95700                   -589456.22040  27863014.96540
    264387.18800  24699927.45700                    824461.43140  24699930.18740
  42019143.71400  28157147.35500                  32786181.89140  28157149.17240
   9144846.19000  24443915.27700                   7146824.37440  24443917.05940
 96  9 16  2 20  0.0120000  0  7  4 14 18 19 22 25 29
   1991683.83700  28386068.17600                   1501285.87340  28386072.19540
   6797372.34700  24165877.01900                   5319039.14540  24165880.04340
  -1904016.00400  26060756.07400                  -1462181.09140  26060759.15640
   -840260.27600  27859208.71500                   -605023.18540  27859213.68440
    328862.02000  24712196.45700                    874701.57740  24712199.24640
  42174619.33200  28186734.50400                  32907331.71540  28186736.97640
   9201319.65700  24454661.51900                   7190829.67740  24454663.35940
 96  9 16  2 20 30.0120000  0  7  4 14 18 19 22 25 29
   2047198.66300  28396631.30100                   1544544.18940  28396633.82040
   6897348.32000  24184901.85500                   5396942.49940  24184904.97340
  -1911369.92500  26059356.74600                  -1467911.39240  26059359.03140
   -860050.23500  27855444.25400                   -620443.94240  27855447.11340
    393987.42800  24724589.70700                    925448.66740  24724592.47340
  42330146.15500  28216329.33200                  33028521.45240  28216332.16840
   9258047.09300  24465456.56600                   7235032.88540  24465458.44140
 96  9 16  2 21  0.0120000  0  7  4 14 18 19 22 25 29
   2103162.92200  28407279.45700                   1588152.71740  28407283.71140
   6997816.99400  24204020.34800                   5475229.77540  24204023.31240
  -1918725.29700  26057957.26200                  -1473642.83740  26057959.73440
   -879778.91900  27851689.46500                   -635816.88240  27851692.17240
    459658.17800  24737086.23800                    976620.69140  24737089.08640
  42485597.96800  28245910.92600                  33149652.69740  28245911.66440
   9314926.49900  24476280.46500                   7279354.50540  24476282.35140
 96  9 16  2 21 30.0120000  0  7  4 14 18 19 22 25 29
   2159672.89600  28418033.98800                   1632186.47940  28418038.52340
   7098859.63600  24223248.43400                   5553964.30040  24223251.48040
  -1925977.29500  26056577.19100                  -1479293.71940  26056579.73440
   -899350.02000  27847964.07400                   -651067.06740  27847967.13340
    525971.54300  24749705.11300                   1028293.45740  24749708.07840
  42641063.19000  28275495.37100                  33270794.44740  28275496.44940
   9372061.48700  24487152.64400                   7323875.28340  24487154.51940
 96  9 16  2 22  0.0120000  0  7  4 14 18 19 22 25 29
   2216634.94900  28428874.70700                   1676572.51840  28428880.32040
   7200382.71700  24242567.38700                   5633073.18940  24242570.42240
  -1933221.16700  26055198.55900                  -1484938.28640  26055201.48840
   -918857.10500  27844251.69100                   -666267.36040  27844256.84840
    592817.97900  24762425.65200                   1080381.60240  24762428.55940
  42796420.63400  28305057.70700                  33391852.23340  28305059.69940
   9429347.03400  24498053.84000                   7368513.37840  24498055.79740
 96  9 16  2 22 30.0120000  0  7  4 14 18 19 22 25 29
   2274137.80400  28439816.66000
   7302497.49500  24261999.25400                   5712643.14840  24262002.32440
  -1940357.21100  26053840.62100                  -1490498.81740  26053843.24640
   -938186.79000  27840572.92600                   -681329.42840  27840578.65640
    660297.97500  24775266.57400                   1132963.42840  24775269.34040
  42951752.97700  28334616.34800                  33512890.39940  28334616.93440
   9486872.31000  24509000.58200                   7413338.27840  24509002.41040
 96  9 16  2 23  0.0120000  0  7  4 14 18 19 22 25 29
   2332189.81300  28450862.34000
   7405202.34800  24281543.23800                   5792672.89940  24281546.22640
  -1947363.36200  26052507.54300                  -1495958.13540  26052509.69940
   -957298.83100  27836937.17600                   -696221.92440  27836941.80540
    728426.72900  24788231.28500                   1186050.78340  24788233.89840
  43107073.28900  28364173.32400                  33633919.18540  28364175.69140
   9544660.90400  24519997.30100                   7458368.35640  24519999.17640
 96  9 16  2 23 30.0120000  0  7  4 14 18 19 22 25 29
   2390745.42600  28462006.61300
   7508454.60500  24301191.55100                   5873129.19340  24301194.55140
  -1954257.04800  26051195.73800                  -1501329.82240  26051197.71940
   -976215.36700  27833338.12900                   -710962.03340  27833340.54340
    797179.91900  24801314.59000                   1239624.71140  24801317.10940
  43262358.86200  28393723.25400                  33754920.95640  28393725.43440
   9602675.81100  24531037.19100                   7503574.78340  24531038.98440
 96  9 16  2 24  0.0120000  0  7  4 14 18 19 22 25 29
   2449743.00500  28473233.27700                     23021.09650  28473235.19940
   7612192.07300  24320932.11300                   5953963.58240  24320935.01940
  -1961100.27500  26049893.02700                  -1506662.17940  26049895.59440
   -995001.87600  27829762.96500                   -725600.83740  27829764.05540
    866505.60100  24814506.70700                   1293644.73540  24814509.35540
  43417568.49900  28423258.74600                  33875863.50240  28423261.45340
   9660851.63300  24542107.72300                   7548906.59840  24542109.56240
 96  9 16  2 24 30.0130000  0  7  4 14 18 19 22 25 29
   2509209.83600  28484549.10200                     69358.88040  28484552.25540
   7716437.28800  24340769.36000                   6035193.61840  24340772.38440
  -1967856.19800  26048607.63400                  -1511926.51040  26048610.37640
  -1013634.79500  27826217.31300                   -740119.95140  27826219.56340
    936443.47600  24827815.53200                   1348141.78940  24827818.05240
  43572760.35500  28452789.89900                  33996792.24740  28452792.89940
   9719239.05100  24553218.47000                   7594403.29240  24553220.21640
 96  9 16  2 25  0.0130000  0  7  4 14 18 19 22 25 29
   2569115.53800  28495948.91500                    116038.65240  28495953.55640
   7821144.62800  24360694.59500                   6116783.75040  24360697.65340
  -1974546.99900  26047334.49300                  -1517140.10240  26047337.48140
  -1032164.22100  27822690.88400                   -754558.44640  27822695.13840
   1006963.99100  24841235.27400                   1403092.85140  24841238.01740
  43727908.98800  28482313.97700                  34117687.27140  28482316.73140
   9777805.44300  24564363.26700                   7640039.44640  24564365.14240
 96  9 16  2 25 30.0130000  0  7  4 14 18 19 22 25 29
   2629538.89000  28507446.63400                    163121.80040  28507450.68840
   7926399.41900  24380723.75900                   6198800.46040  24380726.77040
  -1981097.48200  26046088.06300                  -1522244.35540  26046090.80640
  -1050527.01500  27819195.89900                   -768867.08440  27819200.64540
   1078132.75800  24854777.89200                   1458549.04240  24854780.73940
  43883098.68700  28511846.22700                  34238614.31840  28511848.04440
   9836620.40700  24575555.23500                   7685869.29340  24575557.22740
 96  9 16  2 26  0.0130000  0  6  4 14 18 19 22 29
   2690414.08500  28519031.29800                    210557.00140  28519033.52440
   8032151.22300  24400847.79000                   6281204.45440  24400850.86040
  -1987570.56700  26044855.97700                  -1527288.29240  26044858.28640
  -1068780.40500  27815722.60200                   -783090.49940  27815728.38040
   1149881.59300  24868431.45400                   1514457.23740  24868434.17340
   9895625.02900  24586783.50900                   7731846.92240  24586785.37240
 96  9 16  2 26 30.0130000  0  6  4 14 18 19 22 29
   2751817.24900  28530715.54800                    258403.63540  28530717.80940
   8138501.05400  24421085.43800                   6364074.45240  24421088.56740
  -1993883.54300  26043654.73500                  -1532207.47640  26043657.24340
  -1086828.22600  27812288.62600                   -797153.73140  27812292.11840
   1222292.35700  24882210.60200                   1570881.22240  24882213.43840
   9954899.35900  24598063.00900                   7778034.71640  24598064.95440
 96  9 16  2 27  0.0130000  0  6  4 14 18 19 22 29
   2813698.37400  28542491.31300                    306622.70340  28542493.05940
   8245402.23100  24441428.14900                   6447374.07040  24441431.13840
  -2000087.23500  26042474.36800                  -1537041.50140  26042476.73540
  -1104712.44200  27808885.30600                   -811089.41640  27808889.88840
   1295318.69000  24896107.22700                   1627784.87140  24896109.79440
  10014378.21000  24609381.41500                   7824381.88040  24609383.33740
 96  9 16  2 27 30.0130000  0  6  4 14 18 19 22 29
   2876056.75400  28554358.46200                    355213.60940  28554359.82140
   8352852.64600  24461875.33700                   6531101.66940  24461878.39540
  -2006178.33900  26041314.93800                  -1541787.78340  26041317.27040
  -1122410.47500  27805517.18100                   -824880.08740  27805520.33340
   1368959.17100  24910120.48500                   1685167.07440  24910123.02840
  10074079.41800  24620742.36800                   7870902.30540  24620744.19640
 96  9 16  2 28  0.0130000  0  6  4 14 18 19 22 29
   2938864.59600  28566309.68800                    404154.80740  28566315.63040
   8460827.52500  24482422.14900                   6615237.93740  24482425.11440
  -2012184.98200  26040171.90700                  -1546468.26140  26040174.36840
  -1139940.32500  27802181.51700                   -838539.68140  27802185.75940
   1443205.27900  24924248.98500                   1743021.19740  24924251.80940
  10133992.01900  24632143.10200                   7917587.44940  24632144.88440
 96  9 16  2 28 30.0130000  0  6  4 14 18 19 22 29
   3002141.74500  28578350.80600                    453461.69140  28578354.60240
   8569315.43700  24503066.73500                   6699773.96840  24503069.74740
  -2018102.14800  26039046.00100                  -1551079.01140  26039048.88440
  -1157290.54900  27798880.16500                   -852059.31240  27798883.11840
   1518067.44100  24938494.75900                   1801355.36140  24938497.44240
  10194135.36600  24643588.16500                   7964452.39840  24643590.05240
 96  9 16  2 29  0.0130000  0  6  4 14 18 19 22 29
   3065908.17200  28590484.93800                    503149.81440  28590486.22740
   8678305.75200  24523806.76700                   6784701.48140  24523809.83740
  -2023919.37800  26037938.76700                  -1555611.90140  26037941.45040
  -1174468.56300  27795610.98500                   -865444.71140  27795614.04440
   1593536.92900  24952855.97000                   1860162.76740  24952858.58340
  10254521.37200  24655079.24300                   8011506.43540  24655081.20040
 96  9 16  2 29 30.0130000  0  6  4 14 18 19 22 29
   3130175.96800  28602715.07100                    553228.60440  28602718.13040
   8787816.29700  24544645.99300                   6870034.36140  24544649.04040
  -2029634.27500  26036851.36000                  -1560065.06140  26036853.97440
  -1191464.58100  27792376.79800                   -878688.35340  27792379.13040
   1669605.50700  24967331.52400                   1919436.99440  24967334.14940
  10315166.60500  24666619.75900                   8058762.46240  24666621.59940
 96  9 16  2 30  0.0130000  0  6  4 14 18 19 22 29
   3194954.91400  28615041.70400                    603705.68240  28615045.91140
   8897865.30400  24565587.54800                   6955786.82440  24565590.51340
  -2035253.28400  26035782.30600                  -1564443.49740  26035784.60240
  -1208292.83200  27789174.29800                   -891801.24540  27789177.40340
   1746272.23400  24981920.48500                   1979177.31840  24981923.14540
  10376067.70400  24678208.75900                   8106217.87040  24678210.55240
 96  9 16  2 30 30.0130000  0  6  4 14 18 19 22 29
   3260154.65800  28627448.97000                    654510.71740  28627453.41140
   9008369.17300  24586615.81300                   7041893.72440  24586618.89540
  -2040858.21400  26034715.46200                  -1568810.95840  26034718.09940
  -1225056.19100  27785984.21200                   -904863.58540  27785988.09140
   1823430.09100  24996603.22000                   2039300.33640  24996605.86840
  10437119.98900  24689826.61000                   8153791.07940  24689828.39240
 96  9 16  2 31  0.0130000  0  6  4 14 18 19 22 29
   3325803.94600  28639942.08700                    705666.01540  28639943.92740
   9119389.10500  24607742.16500                   7128402.75440  24607745.16540
  -2046395.60600  26033661.88400                  -1573125.79140  26033664.40340
  -1241716.91000  27782813.63400                   -917845.93040  27782817.52440
   1901120.04700  25011387.00100                   2099837.97040  25011389.73140
  10498358.32400  24701479.69600                   8201509.26940  24701481.67740
 96  9 16  2 31 30.0130000  0  6  4 14 18 19 22 29
   3391958.96500  28652530.30600                    757215.36740  28652535.54440
   9231008.15300  24628982.75900                   7215378.62640  24628985.79440
  -2051797.58200  26032633.90700                  -1577335.11140  26032636.43840
  -1258187.68900  27779679.67300                   -930680.28940  27779682.60240
   1979431.15600  25026289.23500                   2160859.62340  25026291.70840
  10559860.38800  24713183.50100                   8249432.95740  24713185.32940
 96  9 16  2 32  0.0130000  0  6  4 14 18 19 22 29
   3458631.97400  28665218.37600                    809168.38340  28665222.93440
   9343232.49700  24650338.30600                   7302826.15840  24650341.27040
  -2057029.57000  26031638.25900                  -1581411.96640  26031640.84940
  -1274447.12400  27776586.00900                   -943349.93640  27776590.53240
   2058401.71600  25041316.79000                   2222395.13340  25041319.32140
  10621644.96000  24724940.64900                   8297576.78140  24724942.47740
 96  9 16  2 32 30.0130000  0  6  4 14 18 19 22 29
   3525780.60900  28677995.80600                    861491.99540  28677998.72440
   9456008.58500  24671798.77400                   7390703.62240  24671801.76340
  -2062112.38300  26030670.85200                  -1585372.58740  26030673.40740
  -1290506.90600  27773529.88400                   -955864.02240  27773533.54040
   2137998.95900  25056463.56300                   2284418.97240  25056466.34140
  10683674.54300  24736744.29800                   8345911.52640  24736746.14940
 96  9 16  2 33  0.0130000  0  6  4 14 18 19 22 29
   3593401.74800  28690864.12600                    914183.79740  28690866.27040
   9569314.25300  24693360.13400                   7478993.74440  24693363.15740
  -2067059.91500  26029729.47700                  -1589227.79940  26029731.95040
  -1306359.42600  27770512.90700                   -968216.61240  27770515.35640
   2218234.29300  25071732.07100                   2346940.02040  25071734.61440
  10745962.34700  24748597.51700                   8394447.48340  24748599.45040
 96  9 16  2 33 30.0130000  0  6  4 14 18 19 22 29
   3661501.48900  28703822.86000                    967248.51040  28703826.20040
   9683126.65600  24715017.98500                   7567678.72640  24715020.97440
  -2071886.33900  26028811.19600                  -1592988.64240  26028813.42340
  -1322013.09600  27767534.04000                   -980414.23040  27767538.42340
   2299107.51000  25087121.66500                   2409958.12040  25087124.31340
  10808514.80700  24760500.84500                   8443189.66340  24760502.80240
 96  9 16  2 34  0.0130000  0  6  4 14 18 19 22 29
   3730046.98800  28716865.43100                   1020660.59540  28716868.47740
   9797412.62900  24736765.87600                   7656732.71940  24736768.82940
  -2076603.34400  26027913.57900                  -1596664.21340  26027915.93440
  -1337503.27000  27764586.29000                   -992484.52340  27764589.87640
   2380588.02400  25102626.69600                   2473449.44040  25102629.38040
  10871308.21300  24772449.88400                   8492119.59140  24772451.84140
 96  9 16  2 34 30.0130000  0  6  4 14 18 19 22 29
   3799043.93300  28729995.23500                   1074424.43140  28729999.00940
   9912181.15000  24758605.65700                   7746162.73140  24758608.71640
  -2081213.07500  26027036.30600                  -1600256.20940  26027039.23540
  -1352835.18700  27761668.65700                  -1004431.45240  27761672.41940
   2462676.55600  25118247.65700                   2537414.53440  25118250.20040
  10934345.85900  24784445.54800                   8541239.83740  24784447.48140
 96  9 16  2 35  0.0130000  0  6  4 14 18 19 22 29
   3868509.57200  28743215.35200                   1128553.51840  28743217.20440
  10027452.33700  24780541.14200                   7835984.42740  24780544.27040
  -2085700.72400  26026182.57100                  -1603753.07440  26026185.31340
  -1368005.68400  27758781.93100                  -1016252.58540  27758785.17740
   2545385.56800  25133986.81300                   2601863.12440  25133989.59140
  10997642.50100  24796490.36800                   8590561.90040  24796492.34940
 96  9 16  2 35 30.0130000  0  6  4 14 18 19 22 29
   3938359.12500  28756506.22700                   1182981.76640  28756507.11840
  10143157.11000  24802558.93100                   7926143.98440  24802561.94240
  -2090137.53100  26025338.04800                  -1607210.32140  26025340.77840
  -1383091.09800  27755911.14900                  -1028007.42740  27755914.07940
   2628618.86100  25149825.64200                   2666720.24640  25149828.18440
  11061103.00000  24808566.57900                   8640011.64240  24808568.48940
 96  9 16  2 36  0.0130000  0  6  4 14 18 19 22 29
   4008668.37800  28769886.84500                   1237768.16440  28769889.23540
  10259376.48500  24824674.57100                   8016704.52640  24824677.61840
  -2094450.36300  26024517.37600                  -1610570.95940  26024519.74340
  -1398019.73900  27753070.60200                  -1039640.10440  27753075.02040
   2712439.72800  25165776.08700                   2732035.21540  25165778.68840
  11124787.95100  24820685.50900                   8689636.28540  24820687.30240
 96  9 16  2 36 30.0130000  0  6  4 14 18 19 22 29
   4079465.50400  28783358.36000                   1292934.76140  28783361.13840
  10376106.63400  24846887.64200                   8107663.08140  24846890.84140
  -2098653.51500  26023717.44600                  -1613846.13540  26023719.77840
  -1412783.91000  27750260.93100                  -1051144.63340  27750264.32940
   2796844.51600  25181837.74300                   2797805.18940  25181840.29840
  11188703.85900  24832848.29800                   8739440.89440  24832850.11440
 96  9 16  2 37  0.0140000  0  6  4 14 18 19 22 29
   4150772.97400  28796927.05300                   1348499.04940  28796931.65840
  10493371.40800  24869202.53700                   8199038.22140  24869205.64240
  -2102730.76900  26022941.56800                  -1617023.20940  26022943.98240
  -1427353.98600  27747488.56000                  -1062497.92840  27747492.53340
   2881849.90500  25198013.78700                   2864043.16340  25198016.44740
  11252887.94400  24845062.03700                   8789454.46740  24845063.85340
 96  9 16  2 37 30.0140000  0  6  4 14 18 19 22 29
   4222584.68600  28810593.18500                   1404456.21540  28810596.18540
  10611161.24400  24891617.17800                   8290822.49940  24891620.27140
  -2106691.49800  26022187.75600                  -1620109.48140  26022190.53340
  -1441735.06800  27744751.84200                  -1073703.92640  27744755.26440
   2967456.66400  25214304.16200                   2930749.74040  25214307.02140
  11317334.73700  24857325.89600                   8839672.74840  24857327.74840
 96  9 16  2 38  0.0140000  0  6  4 14 18 19 22 29
   4294876.10800  28824350.02900                   1460787.18140  28824350.58040
  10729453.49000  24914127.33400                   8382998.26440  24914130.38140
  -2110563.99000  26021450.81800                  -1623126.99740  26021453.53740
  -1455963.52400  27742044.02100                  -1084791.02040  27742047.47840
   3053653.90100  25230706.88100                   2997916.42740  25230709.71740
  11382034.38800  24869637.91200                   8890088.05940  24869639.75240
 96  9 16  2 38 30.0140000  0  6  4 14 18 19 22 29
   4367641.72600  28838196.89600                   1517487.65440  28838199.83840
  10848254.41300  24936734.42800                   8475570.39940  24936737.56840
  -2114331.51900  26020734.04500                  -1626062.71640  26020736.26040
  -1470017.26200  27739369.49800                  -1095741.95240  27739373.24840
   3140457.53800  25247225.17000                   3065555.63340  25247227.70140
  11446996.65000  24881999.66200                   8940708.00640  24882001.51440
 96  9 16  2 39  0.0140000  0  6  4 14 18 19 22 29
   4440859.36200  28852128.36500                   1574540.37240  28852132.58440
  10967570.08600  24959439.58400                   8568543.64440  24959442.57240
  -2117980.58500  26020039.76400                  -1628906.12440  26020042.33040
  -1483904.88800  27736727.16200                  -1106563.45940  27736731.97840
   3227874.65600  25263860.03700                   3133672.87640  25263862.67440
  11512204.96600  24894408.35000                   8991519.68440  24894410.14240
 96  9 16  2 39 30.0140000  0  6  4 14 18 19 22 29
   4514530.42900  28866149.43500                   1631946.44340  28866151.20540
  11087406.41800  24982243.51400                   8661922.59440  24982246.67840
  -2121491.69500  26019371.35000                  -1631642.03640  26019374.06840
  -1497626.30400  27734115.46700                  -1117255.45340  27734119.15840
   3315908.66900  25280612.31000                   3202270.81840  25280614.93540
  11577650.16000  24906862.28700                   9042515.93940  24906864.10340
 96  9 16  2 40  0.0140000  0  6  4 14 18 19 22 29
   4588647.90900  28880253.86500                   1689700.29340  28880255.28340
  11207750.87800  25005144.37300                   8755697.48540  25005147.46740
  -2124854.63000  26018731.11500                  -1634262.49140  26018733.65840
  -1511181.87100  27731536.12300                  -1127818.19840  27731540.44740
   3404543.88000  25297479.03700                   3271337.22240  25297481.63940
  11643320.35500  24919358.88100                   9093687.52140  24919360.66240
 96  9 16  2 40 30.0140000  0  6  4 14 18 19 22 29
   4663206.45600  28894440.58400                   1747797.82940  28894443.40840
  11328582.01300  25028137.85700                   8849851.60440  25028140.96340
  -2128079.07000  26018117.94300                  -1636775.02140  26018120.51040
  -1524589.00400  27728985.05300                  -1138265.28940  27728988.93240
   3493756.52000  25314455.63100                   3340853.57040  25314458.26740
  11709181.33300  24931891.80300                   9145007.76540  24931893.58440
 96  9 16  2 41  0.0140000  0  6  4 14 18 19 22 29
   4738280.22000  28908726.31800                   1806296.88540  28908730.02140
  11449970.58200  25051237.19300                   8944440.09040  25051240.22840
  -2131100.90500  26017543.01400                  -1639129.68640  26017545.87340
  -1537784.38900  27726473.88100                  -1148547.40040  27726477.67840
   3583600.73000  25331552.34200                   3410862.05940  25331554.86140
  11775304.52200  24944474.56000                   9196532.33140  24944476.45940
 96  9 16  2 41 30.0140000  0  6  4 14 18 19 22 29
   4813825.97400  28923102.77900                   1865163.69240  28923105.61540
  11571853.41700  25074430.86500                   9039413.71840  25074434.00640
  -2133986.06400  26016993.71700                  -1641377.84740  26016995.94340
  -1550807.50300  27723995.61500                  -1158695.25440  27723998.90840
   3674009.17400  25348756.70100                   3481310.20140  25348759.39640
  11841633.15800  24957096.67800                   9248216.98340  24957098.40040
 96  9 16  2 42  0.0140000  0  6  4 14 18 19 22 29
   4889847.14500  28937570.49800                   1924400.99640  28937573.11140
  11694216.91500  25097715.90400                   9134761.89440  25097719.06840
  -2136763.88900  26016465.23200                  -1643542.37440  26016467.48240
  -1563660.93400  27721549.68500                  -1168710.88040  27721552.99040
   3764971.93700  25366066.28700                   3552190.28440  25366068.87740
  11908172.30200  24969758.70900                   9300065.67040  24969760.51440
 96  9 16  2 42 30.0140000  0  6  4 14 18 19 22 29
   4966372.51900  28952131.79500                   1984031.14240  28952134.60740
  11817089.08600  25121097.79500                   9230506.43640  25121100.98240
  -2139421.48500  26015959.39600                  -1645613.21740  26015962.31440
  -1576307.37600  27719143.38100                  -1178565.23040  27719147.17840
   3856511.31000  25383485.50600                   3623519.67040  25383488.13140
  11974981.99000  24982472.07600                   9352125.17140  24982473.86940
 96  9 16  2 43  0.0140000  0  6  4 14 18 19 22 29
   5043351.52000  28966780.24800                   2044014.75940  28966782.86140
  11940426.80900  25144568.06800                   9326613.74040  25144571.16240
  -2141995.25000  26015469.64600                  -1647618.73540  26015472.35340
  -1588764.22900  27716772.39600                  -1188271.86140  27716776.42840
   3948596.96100  25401009.00600                   3695274.72840  25401011.52540
  12042057.58400  24995236.05300                   9404391.87140  24995237.86940
 96  9 16  2 43 30.0140000  0  6  4 14 18 19 22 29
   5120686.73100  28981495.78700                   2104275.97040  28981499.56040
  12064143.07300  25168110.48200                   9423016.01040  25168113.44740
  -2144555.32400  26014982.27100                  -1649613.58840  26014984.80340
  -1601122.93900  27714420.84200                  -1197902.00640  27714424.47540
   4041162.68600  25418623.63900                   3767403.87440  25418626.13540
  12109340.27000  25008039.52100                   9456819.93940  25008041.24440
 96  9 16  2 44  0.0140000  0  6  4 14 18 19 22 29
   5198420.66500  28996288.52900                   2164847.86640  28996291.67040
  12188299.51500  25191736.76400                   9519761.28040  25191739.76440
  -2147012.52500  26014515.06000                  -1651528.28340  26014517.72140
  -1613337.98700  27712096.67000                  -1207420.18740  27712100.25640
   4134282.75200  25436343.63900                   3839964.96940  25436346.14640
  12176915.23400  25020898.66200                   9509475.75640  25020900.43240
 96  9 16  2 44 30.0140000  0  6  4 14 18 19 22 29
   5276585.71100  29011162.70900                   2225755.66540  29011166.51740
  12312954.34700  25215457.74800                   9616894.90340  25215460.76040
  -2149293.81600  26014080.99800                  -1653305.90440  26014083.42440
  -1625361.39300  27709808.20900                  -1216789.05440  27709811.79540
   4228019.94400  25454181.31800                   3913006.94640  25454184.01440
  12244821.43800  25033820.63100                   9562389.68140  25033822.34240
 96  9 16  2 45  0.0140000  0  6  4 14 18 19 22 29
   5355160.28800  29026115.47500                   2286982.59840  29026120.06840
  12438098.50500  25239271.89600                   9714409.82340  25239275.10740
  -2151403.89600  26013679.20900                  -1654950.11540  26013681.68240
  -1637210.38600  27707553.45100                  -1226022.02340  27707556.80340
   4322375.77100  25472136.56000                   3986530.96740  25472139.20940
  12313011.09200  25046796.74800                   9615524.47740  25046798.56440
 96  9 16  2 45 30.0140000  0  6  4 14 18 19 22 29
   5434161.06000  29041149.13100                   2348541.66440  29041151.46340
  12563747.08500  25263182.03700                   9812317.79940  25263185.18940
  -2153341.41700  26013310.63100                  -1656459.85940  26013313.43240
  -1648881.18800  27705333.02100                  -1235116.11540  27705336.31440
   4417355.01900  25490210.49000                   4060540.77840  25490212.96340
  12381466.16000  25059823.42000                   9668866.08840  25059825.21340
 96  9 16  2 46  0.0140000  0  6  4 14 18 19 22 29
   5513589.36300  29056263.55300                   2410433.83440  29056266.68240
  12689872.23600  25287182.73200                   9910597.13140  25287185.92040
  -2155140.75800  26012968.14600                  -1657861.93940  26012970.70140
  -1660384.08800  27703143.90400                  -1244079.38740  27703147.51440
   4512915.77300  25508395.20900                   4135003.71140  25508397.76440
  12450137.42100  25072890.99000                   9722376.16440  25072892.91240
 96  9 16  2 46 30.0140000  0  6  4 14 18 19 22 29
   5593460.89600  29071462.85000                   2472671.37040  29071465.27540
  12816480.05900  25311275.55300                  10009252.56540  25311278.64640
  -2156813.57500  26012649.75600                  -1659165.42640  26012652.27540
  -1671702.33500  27700990.16200                  -1252898.78040  27700993.42040
   4609058.52300  25526690.55300                   4209920.14440  25526692.92040
  12519025.94300  25086000.15400                   9776055.53140  25086002.04140
 96  9 16  2 47  0.0140000  0  6  4 14 18 19 22 29
   5673778.38900  29086746.06800                   2535256.45240  29086750.72140
  12943565.58200  25335459.10700                  10108280.23440  25335462.16640
  -2158363.99700  26012354.45100                  -1660373.53240  26012357.01740
  -1682832.90000  27698871.81800                  -1261571.92340  27698875.76740
   4705768.08300  25545093.77900                   4285278.25140  25545096.39240
  12588148.50200  25099153.76400                   9829917.26840  25099155.48640
 96  9 16  2 47 30.0140000  0  6  4 14 18 19 22 29
   5754489.44100  29102104.63900                   2598148.17040  29102107.26440
  13071064.32600  25359721.06000                  10207629.89340  25359724.26040
  -2159842.08900  26012073.65400                  -1661525.28640  26012076.05740
  -1693850.49500  27696774.92000                  -1270157.04440  27696777.36940
   4802968.54600  25563590.38100                   4361018.87640  25563592.92440
  12657467.87400  25112344.77100                   9883932.36640  25112346.58840
 96  9 16  2 48  0.0140000  0  6  4 14 18 19 22 29
   5835633.01400  29117546.24000                   2661376.91840  29117548.24440
  13199016.47600  25384069.95900                  10307332.85840  25384073.15840
  -2161195.33900  26011816.10700                  -1662579.76340  26011818.72140
  -1704730.65500  27694704.31000                  -1278635.06140  27694708.30740
   4900699.87600  25582187.95100                   4437173.16040  25582190.42440
  12727028.80300  25125581.78700                   9938135.68740  25125583.65040
 96  9 16  2 48 30.0140000  0  6  4 14 18 19 22 29
   5917194.90800  29133067.07600                   2724931.63440  29133071.24840
  13327421.16000  25408504.33400                  10407388.45140  25408507.41640
  -2162424.07200  26011582.07600                  -1663537.20740  26011584.33840
  -1715480.61300  27692659.15400                  -1287011.64640  27692662.54140
   4998974.92700  25600888.79500                   4513751.12840  25600891.30340
  12796838.13800  25138865.92800                   9992532.57240  25138867.73240
 96  9 16  2 49  0.0150000  0  6  4 14 18 19 22 29
   5999227.54600  29148676.43300                   2788853.17840  29148678.37840
  13456309.34500  25433030.71400                  10507820.79740  25433033.80840
  -2163482.21400  26011380.55000                  -1664361.72640  26011383.03440
  -1726065.83800  27690644.93300                  -1295259.85240  27690648.53040
   5097830.81700  25619701.19000                   4590781.70240  25619703.59340
  12866916.14200  25152201.48700                  10047138.81240  25152203.39740
 96  9 16  2 49 30.0150000  0  6  4 14 18 19 22 29
   6081782.49300  29164386.92500                   2853181.70140  29164389.78440
  13585713.08400  25457655.77600                  10608654.86740  25457658.94040
  -2164310.25000  26011223.07300                  -1665006.93740  26011225.65140
  -1736435.65300  27688671.62000                  -1303340.20940  27688675.17140
   5197319.65200  25638632.83100                   4668305.47240  25638635.44440
  12937298.18200  25165594.69800                  10101981.95640  25165596.47940
 96  9 16  2 50  0.0150000  0  6  4 14 18 19 22 29
   6164805.47200  29180185.48700                   2917874.90440  29180189.37840
  13715581.18100  25482368.83100                  10709850.77740  25482371.98340
  -2164966.79500  26011098.36200                  -1665518.52140  26011100.81140
  -1746624.84100  27686732.30000                  -1311279.83340  27686735.48740
   5297398.13000  25657677.07300                   4746288.70540  25657679.71040
  13007936.90600  25179036.69800                  10157025.12140  25179038.53840
 96  9 16  2 50 30.0150000  0  6  4 14 18 19 22 29
   6248273.45600  29196068.72200                   2982914.91040  29196070.99540
  13845896.66400  25507167.08900                  10811395.29740  25507170.22940
  -2165473.67700  26011001.80800                  -1665913.49540  26011004.29240
  -1756637.95500  27684827.07300                  -1319082.24040  27684830.70640
   5398037.67000  25676828.43300                   4824709.12740  25676830.82340
  13078833.75900  25192528.03400                  10212269.41740  25192529.85040
 96  9 16  2 51  0.0150000  0  6  4 14 18 19 22 29
   6332257.11200  29212050.71400                   3048356.72040  29212053.44440
  13976752.52800  25532068.20600                  10913360.89240  25532071.42940
  -2165741.91300  26010950.83900                  -1666122.49640  26010953.13640
  -1766391.40800  27682971.03400                  -1326682.31240  27682974.85440
   5499310.05100  25696099.94800                   4903622.67840  25696102.59740
  13150082.57000  25206086.19800                  10267787.97240  25206087.97940
 96  9 16  2 51 30.0150000  0  6  4 14 18 19 22 29
   6416684.33400  29228115.74500                   3114144.12840  29228118.86240
  14108108.25400  25557064.26100                  11015715.99340  25557067.50740
  -2165836.28000  26010932.82300                  -1666196.01240  26010935.37840
  -1775942.80000  27681153.23700                  -1334124.95140  27681156.40140
   5601161.09800  25715481.46400                   4982987.13340  25715483.89040
  13221659.62200  25219706.98700                  10323562.29940  25219708.94440
 96  9 16  2 52  0.0150000  0  6  4 14 18 19 22 29
   6501485.10100  29244253.60400                   3180222.64140  29244257.06140
  14239914.03200  25582146.21400                  11118421.78740  25582149.33140
  -2165823.03400  26010935.28400                  -1666185.68240  26010937.78040
  -1785356.38300  27679362.20600                  -1341460.18140  27679366.01540
   5703536.12700  25734962.74500                   5062759.89140  25734965.25340
  13293505.08300  25233378.72200                  10379545.77640  25233380.59740
 96  9 16  2 52 30.0150000  0  6  4 14 18 19 22 29
   6586686.51000  29260466.97200                   3246613.33640  29260468.37840
  14372208.24900  25607320.87000                  11221508.17940  25607324.03440
  -2165647.06900  26010968.73700                  -1666048.56040  26010971.14040
  -1794587.94300  27677605.54200                  -1348653.61740  27677609.10440
   5806483.67600  25754552.94800                   5142978.76540  25754555.45640
  13365650.70900  25247107.36200                  10435763.14740  25247109.22540
 96  9 16  2 53  0.0150000  0  6  4 14 18 19 22 29
   6672288.32000  29276756.15100                   3313316.03240  29276758.92940
  14504973.70700  25632585.35400                  11324961.77240  25632588.46040
  -2165290.34600  26011036.44800                  -1665770.58040  26011038.75740
  -1803628.14400  27675884.93300                  -1355697.89540  27675887.66340
   5910019.15500  25774254.80800                   5223655.76440  25774257.55040
  13438088.30600  25260891.88600                  10492208.02740  25260893.67940
 96  9 16  2 53 30.0150000  0  6  4 14 18 19 22 29
   6758286.77100  29293120.75300                   3380327.79540  29293123.20240
  14638177.36200  25657933.05800                  11428756.81340  25657936.29240
  -2164756.20100  26011138.33100                  -1665354.34940  26011140.85040
  -1812477.88800  27674201.08900                  -1362593.79040  27674205.33140
   6014138.46900  25794068.23700                   5304787.69540  25794070.92140
  13510795.16200  25274727.58100                  10548862.71940  25274729.40940
 96  9 16  2 54  0.0150000  0  6  4 14 18 19 22 29
   6844670.70000  29309559.66700                   3447639.94440  29309563.19440
  14771797.11500  25683360.00300                  11532876.08740  25683363.26140
  -2164047.65200  26011273.03400                  -1664802.21840  26011275.43640
  -1821138.66500  27672552.69800                  -1369342.44540  27672556.34340
   6118811.70000  25813987.06500                   5386351.26040  25813989.63240
  13583737.79100  25288608.17500                  10605701.13540  25288609.99140
 96  9 16  2 54 30.0150000  0  6  4 14 18 19 22 29
   6931476.15400  29326079.33900                   3515280.52540  29326082.58540
  14905851.61100  25708869.86200                  11637334.12840  25708873.00340
  -2163147.38100  26011444.32300                  -1664100.70140  26011446.69040
  -1829582.87000  27670946.08100                  -1375922.32340  27670949.40940
   6224034.85100  25834010.37000                   5468343.32940  25834012.87840
  13656945.90000  25302539.14300                  10662746.41440  25302540.90140
 96  9 16  2 55  0.0150000  0  6  4 14 18 19 22 29
   7018586.23200  29342654.97900                   3583158.52040  29342657.53440
  15040206.51100  25734436.90900                  11742026.24640  25734440.00340
  -2162218.62200  26011620.97200                  -1663376.97840  26011623.36240
  -1837966.97900  27669350.57300                  -1382455.39240  27669354.24140
   6329650.01500  25854108.23700                   5550640.86640  25854110.58140
  13730275.84400  25316493.40900                  10719886.63040  25316495.26140
 96  9 16  2 55 30.0150000  0  6  4 14 18 19 22 29
   7106211.58100  29359328.71400                   3651437.97740  29359332.08940
  15175086.29800  25760103.65900                  11847127.36140  25760106.78840
  -2161074.83800  26011838.85400                  -1662485.71240  26011840.92940
  -1846092.43400  27667805.07300                  -1388786.91340  27667808.61240
   6435857.55000  25874318.79200                   5633399.98240  25874321.35840
  13803930.17600  25330509.19000                  10777279.61140  25330510.98340
 96  9 16  2 56  0.0150000  0  6  4 14 18 19 22 29
   7194286.72400  29376088.78400                   3720067.97740  29376091.62040
  15310427.27500  25785858.08100                  11952587.85140  25785861.40940
  -2159789.59400  26012083.35400                  -1661484.21340  26012085.88640
  -1854041.70500  27666291.33900                  -1394981.12840  27666294.69040
   6542581.46900  25894627.52600                   5716561.48740  25894630.08140
  13877850.02100  25344575.90100                  10834879.49540  25344577.67140
 96  9 16  2 56 30.0150000  0  6  4 14 18 19 22 29
   7282778.06400  29392929.83100                   3789022.23240  29392932.29240
  15446201.38100  25811695.10400                  12058385.84740  25811698.40940
  -2158386.90800  26012350.12800                  -1660391.19340  26012352.83540
  -1861842.68000  27664807.24500                  -1401059.80040  27664810.58540
   6649818.35400  25915034.15900                   5800122.69740  25915036.60840
  13952027.81300  25358691.41700                  10892680.37140  25358693.24540
 96  9 16  2 57  0.0150000  0  6  4 14 18 19 22 29
   7371624.71700  29409836.26100                   3858253.41040  29409839.56540
  15582353.36500  25837603.87000                  12164478.29340  25837607.17540
  -2156894.21300  26012634.19000                  -1659228.04540  26012636.81540
  -1869534.56800  27663343.50300                  -1407053.45540  27663346.06940
   6757542.27300  25935533.19000                   5884063.41540  25935535.89740
  14026419.59700  25372847.55800                  10950647.99640  25372849.39740
 96  9 16  2 57 30.0150000  0  6  4 14 18 19 22 29
   7460850.09200  29426814.67500                   3927779.64840  29426817.31140
  15718926.94700  25863592.94000                  12270899.25540  25863596.25740
  -2155245.06600  26012948.02600                  -1657942.99040  26012950.48740
  -1877056.45000  27661912.26100                  -1412914.65140  27661915.35440
   6865802.58900  25956134.71400                   5968422.10740  25956137.38640
  14101083.35700  25387055.52600                  11008827.54640  25387057.26140
 96  9 16  2 58  0.0150000  0  6  4 14 18 19 22 29
   7550479.77100  29443870.69800                   3997620.94840  29443874.42540
  15855958.68100  25889669.23700                  12377677.22140  25889672.36640
  -2153388.07000  26013301.40900                  -1656495.96740  26013303.89340
  -1884374.22900  27660519.82300                  -1418616.79240  27660524.13640
   6974624.44300  25976842.64300                   6053218.36440  25976845.10440
  14176061.41600  25401323.45600                  11067252.00740  25401325.28440
 96  9 16  2 58 30.0150000  0  6  4 14 18 19 22 29
   7640467.23200  29460995.40100                   4067741.01740  29460998.82340
  15993406.48300  25915824.69000                  12484779.39040  25915828.00740
  -2151374.40100  26013684.48700                  -1654926.86740  26013686.86640
  -1891535.95100  27659156.44800                  -1424197.34040  27659160.22240
   7083954.01700  25997647.42500                   6138410.24840  25997649.86240
  14251293.57400  25415639.72900                  11125874.46540  25415641.59340
 96  9 16  2 59  0.0150000  0  6  4 14 18 19 22 29
   7730911.18300  29478205.55000                   4138216.81140  29478208.47940
  16131353.03900  25942075.09700                  12592270.20040  25942078.37840
  -2149111.83100  26014115.05000                  -1653163.81140  26014117.38240
  -1898463.08800  27657838.63600                  -1429595.09640  27657842.43340
   7193876.64200  26018565.01800                   6224064.24440  26018567.53840
  14326854.53100  25430018.55000                  11184753.13140  25430020.44840
 96  9 16  2 59 30.0150000  0  6  4 14 18 19 22 29
   7821817.55900  29495504.26100                   4209052.92640  29495508.59740
  16269814.43900  25968423.52600                  12700162.18740  25968426.92540
  -2146593.59000  26014594.36200                  -1651201.53640  26014596.55440
  -1905153.32700  27656565.65900                  -1434808.24040  27656569.15140
   7304394.45500  26039595.92500                   6310182.02740  26039598.28040
  14402758.61800  25444462.41700                  11243899.17240  25444464.26840
 96  9 16  3  0  0.0150000  0  6  4 14 18 19 22 29
   7913087.86700  29512872.70600                   4280172.65640  29512876.03440
  16408675.19100  25994847.86200                  12808365.35840  25994851.16740
  -2143930.26300  26015101.15100                  -1649126.21440  26015103.60040
  -1911719.07900  27655315.97900                  -1439924.38840  27655319.05040
   7415408.18900  26060721.01100                   6396686.23740  26060723.62440
  14478906.10600  25458952.93300                  11303234.87640  25458954.62040
 96  9 16  3  0 30.0150000  0  6  4 14 18 19 22 29
   8004700.88600  29530306.01800                   4351559.39540  29530309.40540
  16547889.96700  26021339.65100                  12916844.39240  26021342.92140
  -2141146.89000  26015630.77600                  -1646957.34640  26015633.03840
  -1918170.86700  27654088.12800                  -1444951.73540  27654091.76140
   7526912.92200  26081939.77600                   6483573.05040  26081942.23740
  14555286.41300  25473487.59700                  11362751.99440  25473489.43640
 96  9 16  3  1  0.0150000  0  6  4 14 18 19 22 29
   8096682.44900  29547809.62800                   4423233.31740  29547811.96040
  16687487.09200  26047904.04200                  13025621.36240  26047907.19440
  -2138190.44500  26016193.34700                  -1644653.61240  26016195.77240
  -1924448.05400  27652893.76800                  -1449843.03140  27652897.54240
   7638949.65400  26103259.57300                   6570874.40240  26103262.33940
  14631956.23600  25488077.26100                  11422494.71040  25488079.20640
 96  9 16  3  1 30.0160000  0  6  4 14 18 19 22 29
   8189087.14400  29565393.89100                   4495236.97640  29565396.52740
  16827522.76200  26074551.89100                  13134740.05940  26074555.16040
  -2135013.14000  26016797.99200                  -1642177.78440  26016800.43040
  -1930487.47800  27651744.57000                  -1454549.05440  27651747.74640
   7751547.41300  26124686.09400                   6658612.91740  26124688.74240
  14708971.91700  25502733.00800                  11482506.92840  25502734.88340
 96  9 16  3  2  0.0160000  0  6  4 14 18 19 22 29
   8281897.64800  29583055.62500                   4567556.84240  29583059.35140
  16967950.65500  26101274.20300                  13244164.38440  26101277.67240
  -2131644.14200  26017439.14800                  -1639552.58340  26017441.42240
  -1936310.44300  27650636.54700                  -1459086.40740  27650640.06240
   7864672.44300  26146213.15600                   6746762.29240  26146215.82840
  14786292.49900  25517446.77300                  11542756.73040  25517448.53140
 96  9 16  3  2 30.0160000  0  6  4 14 18 19 22 29
   8375025.75900  29600776.32000                   4640124.15840  29600779.97640
  17108697.86900  26128057.46100                  13353837.53140  26128060.84840
  -2128170.14200  26018100.35100                  -1636845.56340  26018102.84840
  -1942002.01500  27649552.96900                  -1463521.37040  27649557.09440
   7978235.11800  26167823.24200                   6835252.69040  26167825.79740
  14863818.09600  25532199.39800                  11603166.28740  25532201.18040
 96  9 16  3  3  0.0160000  0  6  4 14 18 19 22 29
   8468628.57500  29618588.38300                   4713061.42840  29618592.81240
  17249938.00700  26154934.75000                  13463894.77540  26154937.96140
  -2124431.78200  26018811.53900                  -1633932.54940  26018813.80140
  -1947419.85300  27648522.04700                  -1467743.04140  27648525.94940
   8092373.28500  26189543.21900                   6924191.52540  26189545.71540
  14941695.89200  25547018.91400                  11663850.28140  25547020.74240
 96  9 16  3  3 30.0160000  0  6  4 14 18 19 22 29
   8562633.25200  29636477.84400                   4786311.81840  29636481.62940
  17391603.22400  26181892.71900                  13574283.24540  26181895.98840
  -2120501.35500  26019559.53100                  -1630869.87340  26019562.03940
  -1952660.86800  27647525.04700                  -1471826.92740  27647528.15240
   8207023.63600  26211360.39800                   7013529.46640  26211362.96540
  15019855.92500  25561892.35100                  11724754.19940  25561894.13340
 96  9 16  3  4  0.0160000  0  6  4 14 18 19 22 29
   8657014.69900  29654437.72600                   4859855.76740  29654439.33240
  17533692.04700  26208931.32800                  13685001.80440  26208934.62140
  -2116376.47800  26020344.32000                  -1627655.67540  26020346.58240
  -1957735.21800  27646559.44500                  -1475780.94840  27646563.26640
   8322215.40500  26233280.53100                   7103289.28840  26233283.16840
  15098304.05700  25576820.39800                  11785882.61240  25576822.25040
 96  9 16  3  4 30.0160000  0  5 14 18 19 22 29
  17676157.10600  26236041.49200                  13796013.53040  26236044.73840
  -2112084.21800  26021161.06200                  -1624311.04840  26021163.52340
  -1962683.54900  27645617.63300                  -1479636.77740  27645622.36740
   8437899.11900  26255294.56200                   7193432.44540  26255297.22340
  15177008.01600  25591797.21900                  11847210.37240  25591798.97640
 96  9 16  3  5  0.0160000  0  5 14 18 19 22 29
  17818969.47400  26263218.01600                  13907295.88940  26263221.15640
  -2107621.72300  26022010.35900                  -1620833.77340  26022012.50440
  -1967523.24900  27644696.47600                  -1483407.95140  27644699.79340
   8554056.06200  26277398.50000                   7283944.35040  26277400.99640
  15255965.41400  25606822.27300                  11908735.61640  25606824.07840
 96  9 16  3  5 30.0160000  0  5 14 18 19 22 29
  17962181.45000  26290470.29700                  14018889.62540  26290473.39140
  -2102931.02200  26022903.00800                  -1617178.67540  26022905.37540
  -1972189.60900  27643808.42200                  -1487044.05840  27643812.09040
   8670749.61600  26299604.64100                   7374874.39340  26299607.13740
  15335220.29100  25621904.23400                  11970492.66140  25621906.03940
 96  9 16  3  6  0.0160000  0  6  3 14 18 19 22 29
     -2965.50710  29666144.17200
  18105727.00000  26317786.07800                  14130743.29440  26317789.35940
  -2098074.18700  26023826.93700                  -1613394.12740  26023829.31640
  -1976736.92500  27642943.14800                  -1490587.39940  27642946.35940
   8787893.10100  26321896.46900                   7466155.03340  26321899.12940
  15414692.55400  25637027.14800                  12032419.09640  25637029.11740
 96  9 16  3  6 30.0160000  0  6  3 14 18 19 22 29
    -10963.55100  29664619.18000
  18249691.92800  26345181.66400                  14242923.74740  26345184.98040
  -2092972.76900  26024798.14800                  -1609418.98340  26024800.59840
  -1981075.74900  27642117.77300                  -1493968.29440  27642120.97340
   8905548.84500  26344285.20300                   7557834.83240  26344287.78140
  15494467.23700  25652207.62500                  12094581.18440  25652209.47640
 96  9 16  3  7  0.0160000  0  6  3 14 18 19 22 29
    -18866.25100  29663116.36700                     -2669.90550  29663118.99240
  18394054.24100  26372653.00800                  14355413.85440  26372656.40640
  -2087673.56200  26025806.46100                  -1605289.72140  26025808.75840
  -1985238.03000  27641325.53100                  -1497211.61240  27641328.59040
   9023693.63300  26366767.69500                   7649895.70640  26366770.44940
  15574507.85400  25667439.05500                  12156950.49740  25667440.78940
 96  9 16  3  7 30.0160000  0  6  3 14 18 19 22 29
    -26635.33900  29661638.14800                     -8723.73940  29661641.46540
  18538860.01500  26400208.58600                  14468249.51040  26400211.85540
  -2082148.14600  26026857.79700                  -1600984.19040  26026860.12940
  -1989170.89900  27640577.13300                  -1500276.16740  27640580.68340
   9142365.59400  26389350.11700                   7742367.36740  26389352.71940
  15654861.08900  25682729.68700                  12219563.40740  25682731.45740
 96  9 16  3  8  0.0160000  0  6  3 14 18 19 22 29
    -34312.14500  29660176.85100                    -14705.65140  29660180.20340
  18684062.72400  26427839.75800                  14581394.46940  26427842.91040
  -2076436.54500  26027944.63300                  -1596533.58640  26027947.02340
  -1992901.85400  27639866.87500                  -1503183.39940  27639870.19140
   9261531.05200  26412026.55500                   7835223.57340  26412029.00440
  15735516.58100  25698078.02300                  12282411.84140  25698079.99240
 96  9 16  3  8 30.0160000  0  6  3 14 18 19 22 29
    -41971.42900  29658719.70300                    -20673.90740  29658721.42640
  18829592.11200  26455532.90600                  14694793.98540  26455536.19940
  -2070601.16400  26029054.96100                  -1591986.52940  26029057.41040
  -1996487.63700  27639184.79700                  -1505977.49640  27639188.28940
   9381146.00500  26434788.45300                   7928430.03740  26434790.75040
  15816428.40600  25713475.07000                  12345460.01540  25713476.95740
 96  9 16  3  9  0.0160000  0  6  3 14 18 19 22 29
    -49560.83900  29657275.70300                    -26587.72840  29657281.70340
  18975499.35800  26483298.17200                  14808487.93340  26483301.39440
  -2064569.97500  26030202.67200                  -1587286.89440  26030205.12140
  -1999873.65700  27638540.54700                  -1508615.92940  27638543.51240
   9501261.62700  26457645.78100                   8022026.62940  26457648.52340
  15897661.02000  25728932.90600                  12408758.15240  25728934.71140
 96  9 16  3  9 30.0160000  0  6  3 14 18 19 22 29
    -57064.95500  29655848.43000                    -32435.05940  29655850.53940
  19121791.59200  26511136.96900                  14922481.87440  26511140.06240
  -2058337.04000  26031388.92200                  -1582430.05340  26031391.33640
  -2003053.15500  27637935.26600                  -1511093.45940  27637938.87540
   9621880.71200  26480598.59400                   8116015.52740  26480601.17240
  15979222.65400  25744453.72600                  12472312.66940  25744455.51940
 96  9 16  3 10  0.0160000  0  6  3 14 18 19 22 29
    -64485.75000  29654434.69500                    -38217.49040  29654435.83240
  19268463.40400  26539047.56200                  15036771.58840  26539050.96140
  -2051898.98900  26032614.24200                  -1577413.37940  26032616.56240
  -2006035.76600  27637367.54700                  -1513417.55140  27637370.84040
   9743003.67400  26503647.75800                   8210397.05740  26503650.58240
  16061111.32200  25760036.67200                  12536122.02040  25760038.51240
 96  9 16  3 10 30.0160000  0  6  3 14 18 19 22 29
    -71801.54200  29653044.80500                    -43918.10640  29653048.51940
  19415515.72500  26567030.60900                  15151357.80540  26567033.91440
  -2045251.28300  26033879.17200                  -1572233.34240  26033881.32840
  -2008831.73700  27636835.34400                  -1515596.21340  27636838.41440
   9864615.00800  26526789.64100                   8305159.13740  26526792.35940
  16143320.17700  25775680.38300                  12600180.86840  25775682.29340
 96  9 16  3 11  0.0160000  0  6  3 14 18 19 22 29
    -78993.01600  29651674.35100                    -49521.83340  29651677.34040
  19562958.59800  26595088.17200                  15266248.34740  26595091.55840
  -2038389.23500  26035184.91400                  -1566886.28340  26035187.38740
  -2011439.27200  27636339.70300                  -1517628.04740  27636342.53940
   9986716.98800  26550024.92200                   8400303.54040  26550027.54740
  16225843.24100  25791384.09400                  12664484.54740  25791385.85140
 96  9 16  3 11 30.0160000  0  6  3 14 18 19 22 29
    -86071.89000  29650327.46900                    -55037.82840  29650330.78540
  19710765.37500  26623214.50800                  15381422.45140  26623217.94140
  -2031327.51100  26036528.74200                  -1561383.63640  26036530.87540
  -2013874.48400  27635875.78100                  -1519525.60440  27635879.05140
  10109304.67700  26573352.53900                   8495826.41640  26573355.09440
  16308652.22400  25807142.22600                  12729011.02340  25807143.92640
 96  9 16  3 12  0.0160000  0  6  3 14 18 19 22 29
    -92989.10600  29649010.66400                    -60427.86340  29649014.43740
  19858968.00100  26651416.64800                  15496905.00840  26651419.84840
  -2024014.80700  26037920.17200                  -1555685.41940  26037922.72640
  -2016096.42500  27635453.48400                  -1521256.96840  27635456.57840
  10232417.52900  26596780.03100                   8591758.51640  26596782.49240
  16391801.13900  25822964.85100                  12793802.38140  25822966.62140
 96  9 16  3 12 30.0160000  0  6  3 14 18 19 22 29
    -99728.83900  29647729.49200                    -65679.58440  29647732.42240
  20007590.49900  26679698.83600                  15612714.74140  26679702.30540
  -2016426.40200  26039364.10900                  -1549772.37240  26039366.59440
  -2018090.45200  27635073.89800                  -1522810.73940  27635077.28540
  10356074.66400  26620311.04700                   8688114.72740  26620313.74240
  16475294.73200  25838853.13300                  12858862.31840  25838855.07840
 96  9 16  3 13  0.0160000  0  6  3 14 18 19 22 29
   -106365.02500  29646466.55500                    -70850.64940  29646471.07840
  20156581.28900  26708050.72600                  15728811.45240  26708054.11340
  -2008604.68600  26040852.61700                  -1543677.52340  26040855.06640
  -2019920.45800  27634725.46100                  -1524236.69740  27634728.51940
  10480217.53700  26643934.75800                   8784849.43640  26643937.59440
  16559077.60600  25854796.30500                  12924147.66940  25854798.09840
 96  9 16  3 13 30.0170000  0  6  3 14 18 19 22 29
   -112941.64900  29645214.35600                    -75975.27540  29645218.88040
  20305903.50300  26736465.81700                  15845166.41940  26736469.11040
  -2000581.39900  26042379.30200                  -1537425.60940  26042381.75140
  -2021628.98800  27634400.59100                  -1525568.00240  27634403.60240
  10604797.86500  26667641.57500                   8881925.01540  26667644.38840
  16643117.04700  25870788.69200                  12989632.94240  25870790.52040
 96  9 16  3 14  0.0170000  0  6  3 14 18 19 22 29
   -119426.45400  29643980.64500                    -81028.37140  29643985.62640
  20455594.53800  26764951.23100                  15961808.78140  26764954.65340
  -1992324.20300  26043950.61400                  -1530991.41840  26043953.01640
  -2023172.91700  27634106.58300                  -1526771.05340  27634110.06340
  10729831.26300  26691434.64500                   8979353.64040  26691437.29440
  16727453.90500  25886837.38000                  13055349.97240  25886839.24340
 96  9 16  3 14 30.0170000  0  6  3 14 18 19 22 29
   -125817.57200  29642765.80200                    -86008.43740  29642770.61840
  20605659.49200  26793507.53600                  16078742.50140  26793510.95840
  -1983805.72800  26045571.87200                  -1524353.63740  26045573.94640
  -2024532.97900  27633847.70800                  -1527830.81440  27633850.70840
  10855323.90100  26715315.09100                   9077140.11440  26715317.36440
  16812084.03300  25902941.81700                  13121295.51940  25902943.62240
 96  9 16  3 15  0.0170000  0  6  3 14 18 19 22 29
   -132113.15100  29641567.91100                    -90914.06940  29641570.59540
  20756076.79300  26822131.02000                  16195950.77440  26822134.68840
  -1975034.70700  26047240.84100                  -1517519.07340  26047243.14940
  -2025706.32600  27633624.34100                  -1528745.10340  27633627.59940
  10981267.70600  26739281.49700                   9175278.14840  26739283.92340
  16897010.92800  25919103.07500                  13187472.31540  25919104.92740
 96  9 16  3 15 30.0170000  0  6  3 14 18 19 22 29
   -138329.89500  29640384.42700                    -95758.26540  29640387.90740
  20906810.81300  26850814.90300                  16313405.84940  26850818.12640
  -1966053.58500  26048949.94200                  -1510520.79240  26048952.21640
  -2026695.59800  27633435.98900                  -1529515.93540  27633440.10240
  11107653.18900  26763331.67700                   9273760.34840  26763334.14940
  16982212.67300  25935316.27800                  13253863.28140  25935318.13040
 96  9 16  3 16  0.0170000  0  6  3 14 18 19 22 29
   -144418.11600  29639224.13800                   -100502.31840  29639225.84940
  21057900.95200  26879566.28600                  16431138.41540  26879569.53240
  -1956818.39100  26050707.11400                  -1503324.53240  26050709.38840
  -2027453.71900  27633291.72400                  -1530106.66340  27633295.07540
  11234526.32800  26787474.97400                   9372622.53040  26787477.70440
  17067742.52900  25951592.15300                  13320509.91540  25951593.95840
 96  9 16  3 16 30.0170000  0  6  3 14 18 19 22 29
   -150389.39800  29638088.13000                   -105155.30940  29638091.41140
  21209327.59400  26908381.80200                  16549133.19440  26908385.35240
  -1947345.32400  26052509.80200                  -1495942.91440  26052512.22740
  -2028012.60800  27633185.70800                  -1530542.13740  27633188.56740
  11361879.26900  26811709.38000                   9471858.59340  26811711.95840
  17153586.17400  25967927.72400                  13387401.06140  25967929.49340
 96  9 16  3 17  0.0170000  0  6  3 14 18 19 22 29
   -156238.89700  29636975.74700                   -109713.30040  29636979.36840
  21361104.66400  26937263.77800                  16667401.03040  26937267.08340
  -1937655.42800  26054353.84100                  -1488392.33940  26054356.24340
  -2028380.78900  27633115.58300                  -1530829.00540  27633118.58340
  11489715.11400  26836035.78600                   9571470.94140  26836038.28240
  17239772.10400  25984328.41900                  13454558.92140  25984330.23540
 96  9 16  3 17 30.0170000  0  6  3 14 18 19 22 29
   -161952.26100  29635889.38800                   -114165.28440  29635893.23140
  21513241.70300  26966214.70800                  16785949.36140  26966218.10640
  -1927745.40400  26056239.54400                  -1480670.23640  26056241.84140
  -2028562.81700  27633080.78600                  -1530970.83440  27633084.47740
  11618027.72600  26860452.99700                   9671454.79840  26860455.76340
  17326306.70300  26000795.30900                  13521988.47540  26000797.12640
 96  9 16  3 18  0.0170000  0  6  3 14 18 19 22 29
   -167511.77700  29634830.63800                   -118497.34440  29634835.53640
  21665744.01900  26995234.96600                  16904782.33140  26995238.39940
  -1917598.46300  26058170.52800                  -1472763.52040  26058172.95440
  -2028568.39400  27633079.48100                  -1530975.15040  27633082.85640
  11746804.58900  26884958.28600                   9771800.40940  26884960.57140
  17413185.98200  26017328.19200                  13589686.61140  26017329.84540
 96  9 16  3 18 30.0170000  0  7  3 14 18 19 22 28 29
   -172915.36600  29633801.59900                   -122707.94340  29633805.58340
  21818595.56900  27024321.55900                  17023887.42040  27024324.86440
  -1907226.48600  26060144.35600                  -1464681.45440  26060146.53640
  -2028403.46000  27633111.28600                  -1530846.61040  27633114.69640
  11876027.51500  26909548.48900                   9872493.60440  26909550.98540
                  29930870.82500
  17500377.83900  26033920.08300                  13657628.31040  26033921.89940
 96  9 16  3 19  0.0170000  0  7  3 14 18 19 22 28 29
   -178133.48600  29632808.60600                   -126773.95640  29632810.31740
  21971805.69100  27053476.36400                  17143271.92740  27053479.82140
  -1896609.12100  26062164.80900                  -1456408.17940  26062166.97740
  -2028034.22500  27633181.27000                  -1530558.87540  27633184.92740
  12005704.14400  26934225.25500                   9973540.32740  26934227.77440
     39526.63400  29938650.27800                     30800.34410  29938652.36000
  17587885.31200  26050572.02800                  13725815.94540  26050573.89140
 96  9 16  3 19 30.0170000  0  7  3 14 18 19 22 28 29
   -183151.07900  29631854.56700                   -130683.78340  29631856.52440
  22125374.12200  27082699.59900                  17262935.62740  27082702.90340
  -1885718.58000  26064237.10600                  -1447922.04440  26064239.52040
  -2027441.21000  27633294.05200                  -1530096.77140  27633297.48540
  12135835.69000  26958988.55200                  10074941.53240  26958990.94240
     80859.23800  29946514.98100                     63007.58700  29946518.29800
  17675689.68600  26067280.66100                  13794234.93640  26067282.52440
 96  9 16  3 20  0.0170000  0  7  3 14 18 19 22 28 29
   -188026.83500  29630926.91100                   -134483.08240  29630929.41940
  22279249.07700  27111981.19200                  17382838.17940  27111984.40340
  -1874596.97200  26066353.53600                  -1439255.84640  26066355.90340
  -2026672.30100  27633440.52000                  -1529497.59840  27633443.47440
  12266367.91600  26983827.79400                  10176654.96040  26983830.55940
    122598.41500  29954458.02000                     95531.65200  29954461.35600
  17763739.94400  26084036.14500                  13862845.51740  26084038.09140
 96  9 16  3 20 30.0170000  0  7  3 14 18 19 22 28 29
   -192734.54900  29630031.02000                   -138151.39540  29630034.75940
  22433463.31500  27141327.11400                  17503005.11240  27141330.48940
  -1863210.94500  26068520.12200                  -1430383.61740  26068522.43140
  -2025688.24100  27633627.72400                  -1528730.78540  27633630.81740
  12397340.27200  27008751.05900                  10278711.33640  27008753.36840
    164790.04800  29962487.10600                    128408.25500  29962489.49700
  17852096.00000  26100849.69200                  13931694.38540  26100851.42740
 96  9 16  3 21  0.0170000  0  7  3 14 18 19 22 28 29
   -197351.74900  29629151.66900                   -141749.21040  29629156.82540
  22587940.74100  27170723.08300                  17623377.11940  27170726.84540
  -1851625.41100  26070724.59100                  -1421355.92340  26070727.11040
  -2024571.28000  27633840.16100                  -1527860.40540  27633843.44240
  12528681.99500  27033744.53600                  10381055.54240  27033747.31340
    207369.84500  29970589.67700                    161587.30600  29970591.62600
  17940713.89000  26117713.14500                  14000747.28240  26117714.98540
 96  9 16  3 21 30.0170000  0  7  3 14 18 19 22 28 29
   -201880.15000  29628288.99700                   -145277.83840  29628292.53640
  22742682.27900  27200169.62200                  17743954.93040  27200173.14940
  -1839843.70000  26072966.77800                  -1412175.37540  26072969.04040
  -2023332.10000  27634076.13000                  -1526894.79740  27634079.57540
  12660395.65300  27058808.71600                  10483689.55140  27058811.18840
    250343.65400  29978767.47400                    195073.42000  29978770.19200
  18029598.66200  26134627.33300                  14070008.13540  26134629.17340
 96  9 16  3 22  0.0170000  0  7  3 14 18 19 22 28 29
   -206284.26100  29627452.04400                   -148709.58940  29627454.47040
  22897710.46400  27229670.30900                  17864756.09740  27229673.76640
  -1827844.51900  26075250.16900                  -1402825.36640  26075252.46640
  -2021953.46900  27634338.16100                  -1525820.51440  27634341.40740
  12792524.36000  27083952.15300                  10586646.99540  27083954.98940
    293737.17900  29987024.47400                    228886.59100  29987027.40300
  18118795.49500  26151600.95800                  14139512.15340  26151602.82140
 96  9 16  3 22 30.0170000  0  7  3 14 18 19 22 28 29
   -210543.64100  29626641.79400                   -152028.57540  29626646.62240
  23053034.67200  27259227.59100                  17985787.94140  27259231.09540
  -1815608.58200  26077578.44200                  -1393290.86440  26077580.72740
  -2020414.15900  27634631.51300                  -1524621.03440  27634634.89940
  12925094.43000  27109179.05200                  10689948.34940  27109181.74740
    337562.55000  29995365.04400                    263036.25700  29995366.91500
  18208313.49500  26168635.70800                  14209266.43440  26168637.58340
 96  9 16  3 23  0.0170000  0  7  3 14 18 19 22 28 29
   -214640.52900  29625862.35600                   -155220.96740  29625865.32140
  23208675.01000  27288844.76300                  18107066.11340  27288848.40740
  -1803115.30000  26079956.07500                  -1383555.84340  26079958.25540
  -2018701.58600  27634957.15300                  -1523286.54740  27634960.83340
  13058125.80500  27134494.20800                  10793609.15940  27134496.58740
    381831.09900  30003788.67700                    297531.22500  30003790.73100
  18298140.32700  26185729.05900                  14279261.36240  26185730.95840
 96  9 16  3 23 30.0170000  0  7  3 14 18 19 22 28 29
   -218544.27500  29625119.08300                   -158262.83440  29625121.56740
  23364668.20300  27318529.38800                  18228619.24040  27318532.86840
  -1790333.92200  26082388.25500                  -1373596.32340  26082390.61040
  -2016777.53300  27635323.16100                  -1521787.27240  27635326.58340
  13191655.43900  27159904.06700                  10897658.23040  27159907.03240
    426574.60900  30012302.21600                    332396.31300  30012305.34500
  18388296.01100  26202885.20000                  14349512.53740  26202887.04040
 96  9 16  3 24  0.0170000  0  7  3 14 18 19 22 28 29
   -222243.26100  29624416.58300                   -161145.12240  29624418.66940
  23521014.66200  27348281.17700                  18350447.64040  27348284.59940
  -1777234.47100  26084881.01300                  -1363388.95240  26084883.39140
  -2014630.68600  27635731.73900                  -1520114.39040  27635735.31340
  13325678.10600  27185407.88800                  11002091.47840  27185410.51340
    471801.30700  30020908.99700                    367637.91600  30020912.22400
  18478807.15800  26220108.88000                  14420040.70040  26220110.81340
 96  9 16  3 24 30.0170000  0  7  3 14 18 19 22 28 29
   -225783.29500  29623741.54400                   -163903.58340  29623744.11040
  23677672.73300  27378092.23900                  18472518.85840  27378095.67340
  -1763860.21800  26087426.01300                  -1352967.45640  26087428.36840
  -2012307.53700  27636174.12200                  -1518304.13940  27636177.76640
  13460133.79700  27210993.95800                  11106862.14740  27210996.89940
    517470.23900  30029600.16900                    403224.13000  30029603.00500
  18569634.79100  26237392.87200                  14490815.47140  26237394.75940
 96  9 16  3 25  0.0170000  0  7  3 14 18 19 22 28 29
   -229152.78500  29623099.69200                   -166529.15140  29623103.23140
  23834633.07000  27407960.86400                  18594825.60240  27407964.15740
  -1750226.23100  26090020.41900                  -1342343.56640  26090022.78640
  -2009810.51800  27636649.32500                  -1516358.39840  27636652.91140
  13595006.01900  27236659.30900                  11211957.38140  27236661.94640
    563584.76100  30038375.22400                    439157.52900  30038377.72000
  18660798.40300  26254740.66900                  14561852.05040  26254742.46240
 96  9 16  3 25 30.0170000  0  7  3 14 18 19 22 28 29
   -232277.01700  29622505.28600                   -168963.63540  29622509.50540
  23991930.63700  27437893.79400                  18717395.12440  27437897.40340
  -1736263.28900  26092677.52800                  -1331463.34240  26092679.82540
  -2007073.95400  27637169.94200                  -1514226.00940  27637172.86040
  13730336.74100  27262412.09100                  11317409.89140  27262414.54040
    610208.05800  30047246.99700                    475487.40200  30047249.55200
  18752376.77900  26272167.45000                  14633211.81740  26272169.37240
 96  9 16  3 26  0.0180000  0  7  3 14 18 19 22 28 29
   -235212.38700  29621946.86900                   -171250.89740  29621949.63540
  24149486.72200  27467875.47800                  18840166.08640  27467878.99440
  -1722044.12400  26095383.18200                  -1320383.46140  26095385.44340
  -2004167.20900  27637723.21300                  -1511961.00540  27637726.28340
  13866044.31000  27288236.15000                  11423156.04840  27288238.82240
    657269.52500  30056202.76000                    512158.70300  30056204.45500
  18844305.46800  26289660.90000                  14704844.55540  26289662.71740
 96  9 16  3 26 30.0180000  0  7  3 14 18 19 22 28 29
   -237971.31800  29621423.04900                   -173400.72440  29621425.72140
  24307278.86700  27497902.24400                  18963120.99540  27497905.64240
  -1707605.40800  26098130.79900                  -1309132.50840  26098133.10740
  -2001094.54200  27638307.68200                  -1509566.71840  27638310.81040
  14002113.60600  27314129.32200                  11529184.07440  27314131.74840
    704753.56100  30065238.76000                    549159.26400  30065241.15000
  18936546.66600  26307213.86900                  14776720.80640  26307215.69740
 96  9 16  3 27  0.0180000  0  7  3 14 18 19 22 28 29
   -240544.40200  29620933.11900                   -175405.70540  29620937.91240
  24465302.49000  27527973.13500                  19086256.28040  27527976.56840
  -1692934.96200  26100922.57200                  -1297700.98640  26100924.81040
  -1997850.67200  27638924.84600                  -1507039.01740  27638927.99840
  14138546.37600  27340091.47800                  11635495.32340  27340093.89240
    752663.49500  30074355.78300                    586491.68600  30074357.96300
  19029085.66300  26324823.44700                  14848829.10940  26324825.27540
 96  9 16  3 27 30.0180000  0  7  3 14 18 19 22 28 29
   -242928.69600  29620478.79100                   -177263.60440  29620481.47440
  24623564.75400  27558089.64200                  19209577.50940  27558092.92440
  -1678013.05100  26103762.02500                  -1286073.51540  26103764.32240
  -1994440.89700  27639573.73600                  -1504382.03340  27639576.59640
  14275347.24100  27366123.89200                  11742093.40440  27366126.11940
    801004.15200  30083554.68900                    624159.73500  30083557.38900
  19121901.28000  26342485.72800                  14921152.95840  26342487.60340
 96  9 16  3 28  0.0180000  0  7  3 14 18 19 22 28 29
   -245112.57100  29620063.84600                   -178965.30840  29620068.94340
  24782109.02700  27588259.68200                  19333118.49340  27588263.23240
  -1662828.85900  26106651.46300                  -1274241.66540  26106653.87740
  -1990845.93400  27640257.88500                  -1501580.74940  27640260.99040
  14412541.87000  27392231.26700                  11848998.30340  27392233.45940
    849796.86500  30092838.65800                    662180.05700  30092842.14600
  19215006.62800  26360203.11900                  14993702.57340  26360205.04140
 96  9 16  3 28 30.0180000  0  7  3 14 18 19 22 28 29
   -247072.91700  29619689.50200                   -180492.85040  29619693.60340
  24940973.66900  27618490.40800                  19456909.11640  27618493.99440
  -1647341.15800  26109598.84600                  -1262173.32640  26109601.11940
  -1987036.10900  27640982.97100                  -1498612.04840  27640986.11140
  14550164.34900  27418420.06400                  11956236.60440  27418422.25640
    899074.82300  30102216.11100                    700578.50000  30102218.77900
  19308437.24100  26377982.38500                  15066505.64040  26377984.21340
 96  9 16  3 29  0.0180000  0  7  3 14 18 19 22 28 29
   -248782.06300  29619364.13500                   -181824.63640  29619367.58040
  25100189.98400  27648788.28300                  19580973.76240  27648791.78740
  -1631497.28800  26112613.60300                  -1249827.44640  26112616.01740
  -1982984.01300  27641753.71300                  -1495454.55240  27641756.91240
  14688244.13700  27444695.57200                  12063831.24640  27444698.15040
    948872.45000  30111693.60300                    739381.86200  30111694.52500
  19402235.15500  26395831.46300                  15139594.92040  26395833.19740
 96  9 16  3 29 30.0180000  0  7  3 14 18 19 22 28 29
   -250324.36300  29619071.97800                   -183026.44340  29619074.55740
  25259694.65700  27679141.29100                  19705263.11140  27679144.72440
  -1615379.61400  26115680.81400                  -1237268.21640  26115682.97140
  -1978759.85100  27642557.90000                  -1492162.99340  27642561.45140
  14826704.47100  27471043.96300                  12171722.40940  27471046.42440
    999112.56500  30121253.77500                    778529.98900  30121254.50600
  19496338.30000  26413738.72100                  15212922.03540  26413740.58440
 96  9 16  3 30  0.0180000  0  7  3 14 18 19 22 28 29
   -251654.92300  29618818.96300                   -184063.20640  29618822.24440
  25419543.16100  27709559.41600                  19829820.37740  27709562.79140
  -1598944.58600  26118808.44700                  -1224461.69340  26118810.66240
  -1974307.79000  27643405.18200                  -1488693.84940  27643408.12340
  14965592.65500  27497473.42400                  12279946.97140  27497475.94340
   1049840.05000  30130906.13500                    818057.89700  30130908.64600
  19590808.91500  26431715.83000                  15286535.49540  26431717.86940
 96  9 16  3 30 30.0180000  0  7  3 14 18 19 22 28 29
   -252779.82800  29618604.39200                   -184939.76240  29618609.76040
  25579698.59000  27740036.18900                  19954616.79840  27740039.48240
  -1582211.67200  26121992.58000                  -1211423.05340  26121994.81840
  -1969647.50800  27644291.62700                  -1485062.44140  27644295.00240
  15104892.35900  27523981.33000                  12388492.19840  27523983.86140
   1101035.86100  30140647.65000                    857950.76200  30140651.13100
  19685620.46100  26449757.97100                  15360414.61840  26449759.79940
 96  9 16  3 31  0.0180000  0  7  3 14 18 19 22 28 29
   -253711.93100  29618426.74400                   -185666.05640  29618430.84640
  25740122.54400  27770563.47100                  20079622.46640  27770567.05740
  -1565218.91500  26125226.16600                  -1198181.94340  26125228.63940
  -1964813.94500  27645211.40000                  -1481296.02540  27645214.59940
  15244571.73500  27550561.22800                  12497333.26540  27550563.37340
   1152672.33700  30150474.03300                    898187.02600  30150477.75200
  19780722.31800  26467855.19700                  15434519.95440  26467857.02540
 96  9 16  3 31 30.0180000  0  7  3 14 18 19 22 28 29
   -254425.67400  29618291.33800                   -186222.20140  29618295.32240
  25900813.43400  27801141.88500                  20204836.13240  27801145.45940
  -1547965.07000  26128509.21300                  -1184737.38540  26128511.48640
  -1959799.20200  27646165.89200                  -1477388.41540  27646168.86940
  15384625.05000  27577212.72100                  12606465.71540  27577215.19340
   1204757.84500  30160386.56400                    938773.15800  30160389.09200
  19876127.96400  26486010.30700                  15508862.00140  26486012.08840
 96  9 16  3 32  0.0180000  0  7  3 14 18 19 22 28 29
   -254905.20800  29618199.01000                   -186595.86140  29618203.21740
  26061763.89000  27831769.90800                  20330252.06640  27831773.57640
  -1530433.18300  26131845.72800                  -1171076.17240  26131847.96740
  -1954591.53700  27647156.79900                  -1473330.47040  27647159.64640
  15525057.87700  27603936.15000                  12715893.89540  27603938.51740
   1257310.01400  30170386.96300                    979722.91900  30170388.77100
  19971847.21200  26504225.18900                  15583448.41640  26504226.93540
 96  9 16  3 32 30.0180000  0  7  3 14 18 19 22 28 29
   -255132.68400  29618156.55700                   -186773.13140  29618160.54140
  26222964.11900  27862445.13500                  20455862.61740  27862448.39240
  -1512607.25300  26135237.88500                  -1157185.83240  26135240.27540
  -1949184.64400  27648186.01700                  -1469117.29840  27648189.46340
  15665878.33100  27630733.36900                  12825624.11340  27630735.65440
   1310348.37000  30180479.26000                   1021051.50500  30180481.25200
  20067904.09000  26522504.18200                  15658297.92440  26522505.96340
 96  9 16  3 33  0.0180000  0  7  3 14 18 19 22 28 29
   -255178.05600  29618147.65800                   -186808.46740  29618149.81440
  26384357.83600  27893157.69700                  20581623.95140  27893161.01440
  -1494536.49200  26138676.49400                  -1143104.71540  26138678.79140
  -1943635.21400  27649241.75200                  -1464793.05640  27649245.17440
  15807021.86600  27657592.00200                  12935606.09140  27657594.63940
   1363819.71700  30190654.52500                   1062717.47800  30190656.10300
  20164260.85400  26540840.15000                  15733381.10840  26540841.94340
 96  9 16  3 33 30.0180000  0  7  3 14 18 19 22 28 29
   -254997.65700  29618181.95500                   -186667.88440  29618185.44740
  26545996.35600  27923916.13500                  20707576.03040  27923919.63940
  -1476164.92000  26142172.51700                  -1128789.20640  26142174.69740
  -1937889.48100  27650335.44700                  -1460315.84340  27650338.56440
  15948539.41000  27684521.97100                  13045879.49940  27684524.37340
   1417779.35800  30200922.12700                   1104763.96100  30200924.26400
  20260995.34600  26559248.19700                  15808758.62040  26559250.07240
 96  9 16  3 34  0.0180000  0  7  3 14 18 19 22 28 29
   -254592.35300  29618258.93200                   -186352.06040  29618262.76440
  26707882.36400  27954722.37700                  20833720.95440  27954725.45940
  -1457499.79900  26145724.30700                  -1114244.95740  26145726.67440
  -1931956.60200  27651464.02500                  -1455692.80040  27651467.58840
  16090449.30600  27711526.25200                  13156458.63940  27711528.81840
   1472228.40200  30211284.07200                   1147191.80700  30211286.14600
  20358088.01500  26577724.36100                  15884415.23640  26577726.30740
 96  9 16  3 34 30.0180000  0  7  3 14 18 19 22 28 29
   -253988.97200  29618373.23600                   -185881.84440  29618376.61140
  26869985.73100  27985569.57200                  20960035.25940  27985573.01740
  -1438590.95600  26149322.57200                  -1099510.79140  26149324.82240
  -1925883.68300  27652619.67400                  -1450960.64740  27652623.16640
  16232714.58400  27738598.68200                  13267314.69440  27738601.15440
   1527125.15400  30221730.93200                   1189968.51100  30221732.79500
  20455490.35000  26596259.30700                  15960313.14940  26596261.12340
 96  9 16  3 35  0.0180000  0  7  3 14 18 19 22 28 29
   -253135.26000  29618536.98600                   -185216.61140  29618541.12340
  27032371.90600  28016470.40000                  21086569.92340  28016473.58840
  -1419384.24900  26152977.37700                  -1084544.52140  26152979.73240
  -1919613.48100  27653812.75200                  -1446074.77340  27653815.58840
  16375377.09200  27765746.40800                  13378480.28340  27765748.79940
   1582517.60100  30232271.67400                   1233131.47200  30232274.05700
  20553239.29600  26614860.30700                  16036481.15340  26614862.17040
 96  9 16  3 35 30.0180000  0  7  3 14 18 19 22 28 29
   -252025.25600  29618747.36900                   -184351.67040  29618750.74440
  27195033.61700  28047423.87700                  21213319.29440  28047427.40440
  -1399887.72300  26156687.60300                  -1069352.42740  26156689.97140
  -1913166.61000  27655039.63500                  -1441051.23040  27655042.72840
  16518421.35400  27792966.58000                  13489943.34040  27792969.08840
   1638390.93500  30242903.67400                   1276669.15000  30242906.70100
  20651310.48400  26633522.43200                  16112900.24940  26633524.35340
 96  9 16  3 36  0.0180000  0  7  3 14 18 19 22 28 29
   -250671.15300  29619005.29900                   -183296.51940  29619008.74440
  27357966.86900  28078429.32200                  21340280.26840  28078432.92040
  -1380100.51200  26160452.94700                  -1053933.81540  26160455.29140
  -1906539.48600  27656300.61100                  -1435887.22340  27656303.86940
  16661836.63800  27820257.79100                  13601695.50840  27820260.31040
   1694735.06000  30253624.90800                   1320573.68300  30253628.36100
  20749688.62900  26652243.60300                  16189558.53440  26652245.56040
 96  9 16  3 36 30.0180000  0  8  3 14 18 19 22 28 29 31
   -248993.34800  29619325.00200                   -181989.13440  29619327.12340
  27521242.07500  28109499.50200                  21467507.69040  28109503.04140
  -1359924.28100  26164292.53300                  -1038212.08240  26164294.71340
  -1899652.45000  27657611.30700                  -1430520.68540  27657614.57640
  16805679.33500  27847630.04900                  13713780.73040  27847632.72140
   1751625.66500  30264450.79900                   1364904.03900  30264453.18200
  20848479.39700  26671042.70500                  16266538.33940  26671044.56840
    -15548.13210  30287925.80700
 96  9 16  3 37  0.0180000  0  8  3 14 18 19 22 28 29 31
   -247079.84400  29619689.02500                   -180498.06540  29619692.28340
  27684759.52300  28140615.83000                  21594923.87140  28140619.18240
  -1339432.76700  26168191.62700                  -1022244.66840  26168193.92440
  -1892597.75200  27658953.93200                  -1425023.51540  27658957.16640
  16949868.02700  27875068.03300                  13826135.55440  27875070.82240
   1808977.34600  30275364.12700                   1409593.64700  30275366.53700
  20947599.30700  26689904.63500                  16343774.61940  26689906.42840
    -43060.10400  30282690.04900
 96  9 16  3 37 30.0180000  0  8  3 14 18 19 22 28 29 31
   -244898.61800  29620103.61100                   -178798.43340  29620107.47840
  27848518.01700  28171778.01700                  21722527.87740  28171781.74440
  -1318604.43100  26172155.27500                  -1006014.79540  26172157.54940
  -1885359.82800  27660331.06400                  -1419383.56540  27660334.39240
  17094433.93400  27902578.09600                  13938784.30940  27902580.40440
   1866811.23200  30286370.00200                   1454659.03500  30286371.51700
  21047058.16900  26708830.93900                  16421275.02240  26708832.75640
    -70629.36400  30277444.01700                    -13618.80150  30277447.53340
 96  9 16  3 38  0.0180000  0  9  3 14 18 19 22 27 28 29 31
   -242422.20700  29620574.10300                   -176868.74340  29620576.35340
  28012522.40200  28202986.63500                  21850323.49940  28202990.37340
  -1297413.09100  26176187.85300                   -989502.05840  26176190.22140
  -1877898.51900  27661751.12700                  -1413569.54940  27661754.22140
  17239404.86100  27930165.22800                  14051748.66440  27930167.81840
     -6112.00410  30690458.26700
   1925156.78900  30297473.91600                   1500123.10200  30297474.93900
  21146884.39500  26727827.34600                  16499061.67840  26727829.15040
    -98225.93500  30272192.88500                    -35122.66340  30272195.94340
 96  9 16  3 38 30.0180000  0  9  3 14 18 19 22 27 28 29 31
   -239715.78600  29621091.47800                   -174759.79940  29621095.66240
  28176678.12600  28234224.84600                  21978237.04540  28234228.94740
  -1275941.27700  26180273.73600                   -972770.76540  26180276.06840
  -1870300.15500  27663196.88500                  -1407648.72640  27663200.15440
  17384696.84200  27957813.45500                  14164963.19240  27957816.02140
    -22779.90900  30687286.26700
   1983939.34400  30308659.53300                   1545927.68900  30308661.72400
  21246995.15400  26746877.88500                  16577070.05340  26746879.71340
   -125930.59600  30266920.86900                    -56710.68540  30266923.23640
 96  9 16  3 39  0.0190000  0  9  3 14 18 19 22 27 28 29 31
   -236752.07300  29621654.64700                   -172450.41740  29621656.52240
  28341029.79800  28265499.93600                  22106303.26640  28265502.85440
  -1254160.82800  26184418.42900                   -955798.98440  26184420.67940
  -1862517.30200  27664677.78800                  -1401584.15540  27664681.06940
  17530350.69900  27985530.54600                  14278459.70240  27985533.24140
    -39414.26600  30684120.84300
   2043198.80600  30319936.81900                   1592103.89400  30319938.86200
  21347410.00700  26765986.10800                  16655315.37940  26765988.05440
   -153701.27500  30261636.46000                    -78350.15640  30261638.72240
 96  9 16  3 39 30.0190000  0  9  3 14 18 19 22 27 28 29 31
   -233467.74200  29622279.50700                   -169891.20740  29622281.90940
  28505625.67400  28296821.89000                  22234559.78140  28296825.81540
  -1232011.29300  26188633.49900                   -938539.60340  26188635.72540
  -1854468.91000  27666209.52200                  -1395312.66540  27666212.81540
  17676398.15900  28013322.31100                  14392262.91840  28013324.80740
    -55947.00100  30680975.21000                    -10736.49550  30680977.40140
   2102996.54900  30331315.52200                   1638699.53500  30331317.76100
  21448203.73200  26785166.56900                  16733855.93540  26785168.55040
   -181469.47500  30256351.75700                    -99987.74240  30256355.72940
 96  9 16  3 40  0.0190000  0  9  3 14 18 19 22 27 28 29 31
   -229933.45100  29622952.10800                   -167137.19440  29622954.94440
  28670426.49100  28328181.71000                  22362975.98540  28328185.15540
  -1209544.39600  26192908.65500                   -921032.93140  26192910.81140
  -1846214.52000  27667780.11600                  -1388880.65140  27667783.50340
  17822758.62200  28041173.78000                  14506310.03740  28041176.51140
    -72432.69700  30677837.65500                    -23582.43440  30677840.44440
   2163280.67000  30342786.72500                   1685674.19600  30342789.24500
  21549345.79700  26804413.27200                  16812667.92040  26804415.07740
   -209297.06700  30251056.53800                   -121671.57540  30251058.29640
 96  9 16  3 40 30.0190000  0  9  3 14 18 19 22 27 28 29 31
   -226188.46800  29623664.92100                   -164219.01640  29623667.87440
  28835407.93800  28359577.13200                  22491532.95140  28359580.71840
  -1186802.23000  26197236.38200                   -903311.76140  26197238.63240
  -1837817.17500  27669378.17100                  -1382337.24440  27669381.58140
  17969375.18100  28069074.15500                  14620556.70240  28069076.80440
    -88907.82500  30674702.03000                    -36420.11940  30674706.14340
   2224009.78500  30354342.60800                   1732995.58900  30354345.44800
  21650795.23900  26823718.42100                  16891719.42240  26823720.41340
   -237218.03100  30245743.35000                   -143428.13840  30245747.27640
 96  9 16  3 41  0.0190000  0  9  3 14 18 19 22 27 28 29 31
   -222118.96400  29624438.60000                   -161047.96540  29624443.20640
  29000675.17700  28391026.46800                  22620312.60640  28391030.05440
  -1163672.01400  26201637.95200                   -885288.21540  26201640.20240
  -1829182.82500  27671021.12400                  -1375609.16640  27671024.17140
  18116346.68000  28097041.51500                  14735079.94440  28097043.58940
   -105272.60400  30671587.24900                    -49171.87440  30671591.32740
   2285286.70600  30366003.24100                   1780743.83600  30366006.80000
  21752663.25800  26843103.32700                  16971097.08340  26843105.35440
   -265115.33000  30240434.49100                   -165166.27640  30240436.90540
 96  9 16  3 41 30.0190000  0  9  3 14 18 19 22 27 28 29 31
   -217809.34800  29625259.63200                   -157689.81040  29625264.76540
  29166114.60200  28422508.53800                  22749226.42640  28422512.08940
  -1140256.17700  26206093.71000                   -867042.10540  26206095.96040
  -1820428.83500  27672687.08500                  -1368787.85640  27672690.21440
  18263561.63600  28125055.59300                  14849792.89540  28125058.48740
   -121607.47200  30668478.74100                    -61900.32140  30668484.51840
   2347009.17000  30377748.71000                   1828839.25500  30377752.05700
  21854843.73600  26862547.64700                  17050718.22840  26862549.53440
   -293081.58700  30235113.38200                   -186958.14540  30235115.12840
 96  9 16  3 42  0.0190000  0  9  3 14 18 19 22 27 28 29 31
   -213166.79000  29626141.85000                   -154072.22140  29626143.77240
  29331822.39900  28454041.68600                  22878349.37540  28454045.40140
  -1116464.10800  26210621.25700                   -848502.82440  26210623.40140
  -1811481.13400  27674389.84300                  -1361815.60840  27674392.57340
  18411119.22900  28153135.19400                  14964772.83740  28153137.44440
   -137830.04400  30665392.52200                    -74541.26340  30665396.62440
   2409267.97900  30389595.96800                   1877352.61500  30389599.68600
  21957406.02000  26882064.54600                  17130636.87840  26882066.51540
   -321002.33700  30229800.02200                   -208714.58940  30229802.35440
 96  9 16  3 42 30.0190000  0  9  3 14 18 19 22 27 28 29 31
   -208200.13000  29627086.16300                   -150202.08440  29627089.22240
  29497751.39500  28485617.06900                  23007644.66940  28485619.82340
  -1092333.30800  26215212.92100                   -829699.60040  26215215.04240
  -1802355.29500  27676126.12400                  -1354704.54940  27676129.28840
  18559021.22400  28181279.89000                  15080021.13240  28181282.31540
   -153974.70400  30662320.78800                    -87121.52240  30662322.76840
   2472036.33900  30401541.12400                   1926263.02500  30401543.87400
  22060310.38100  26901646.60800                  17210822.08640  26901648.60040
   -348897.43100  30224491.86600                   -230451.03940  30224494.67940
 96  9 16  3 43  0.0190000  0  9  3 14 18 19 22 27 28 29 31
   -202973.02300  29628082.41300                   -146129.00640  29628084.67540
  29663832.24600  28517221.34300                  23137058.31540  28517224.62440
  -1067924.99500  26219858.07700                   -810680.12840  26219860.26840
  -1793092.72700  27677888.67900                  -1347486.95140  27677891.50340
  18707215.86000  28209480.44400                  15195497.47440  28209483.19840
   -170095.61300  30659252.95200                    -99683.21340  30659257.40540
   2535256.52700  30413571.71000                   1975525.50900  30413573.78000
  22163492.46000  26921281.50700                  17291223.69540  26921283.46440
   -376838.01700  30219175.04600                   -252222.88040  30219176.49940
 96  9 16  3 43 30.0190000  0  9  3 14 18 19 22 27 28 29 31
   -197477.02500  29629128.74100                   -141846.37540  29629132.64340
  29830088.94000  28548858.64000                  23266608.96340  28548862.41340
  -1043232.66600  26224556.70200                   -791439.34540  26224558.92940
  -1783661.04700  27679683.49100                  -1340137.56940  27679686.52640
  18855731.71600  28237741.94400                  15311224.11040  28237744.87440
   -186173.90000  30656193.59300                   -112211.73040  30656196.28840
   2598951.10400  30425692.69400                   2025157.65700  30425694.13200
  22266964.30500  26940971.53000                  17371851.09840  26940973.52240
   -404811.74000  30213851.49100                   -274020.61140  30213855.17140
 96  9 16  3 44  0.0190000  0  9  3 14 18 19 22 27 28 29 31
   -191635.72800  29630239.64000                   -137294.74840  29630243.64740
  29996609.47000  28580546.38200                  23396365.21240  28580549.54640
  -1018171.68400  26229325.59300                   -771911.31040  26229327.86640
  -1773967.52600  27681528.44400                  -1332584.15240  27681531.32740
  19004658.53600  28266082.05400                  15427270.98140  28266085.05440
   -202142.44900  30653154.85800                   -124654.70440  30653158.94840
   2663203.52600  30437919.82700                   2075224.49400  30437920.97900
  22370827.21800  26960736.06100                  17452783.22540  26960738.03040
   -432748.74200  30208534.54600                   -295789.68940  30208536.99540
 96  9 16  3 44 30.0190000  0  9  3 14 18 19 22 27 28 29 31
   -185487.25700  29631409.34300                   -132503.72840  29631412.95240
  30163347.27300  28612275.70200                  23526290.75440  28612279.40540
   -992780.33200  26234157.52200                   -752125.84640  26234159.63240
  -1764047.83700  27683415.60800                  -1324854.49440  27683418.59740
  19153942.08700  28294489.50700                  15543595.83640  28294492.03840
   -218038.69400  30650128.72500                   -137041.35940  30650131.93640
   2727964.15100  30450243.60000                   2125687.31900  30450245.17900
  22475051.95700  26980569.17100                  17533997.30040  26980571.06940
   -460724.68900  30203211.44400                   -317589.09240  30203214.03440
 96  9 16  3 45  0.0190000  0  9  3 14 18 19 22 27 28 29 31
   -179025.69700  29632639.51500                   -127468.72940  29632642.64340
  30330330.59800  28644051.64000                  23656407.60840  28644054.72240
   -967032.65400  26239056.99900                   -732062.72140  26239059.17940
  -1753896.16400  27685347.61600                  -1316944.08240  27685350.72240
  19303575.53000  28322964.17100                  15660193.31540  28322966.70240
   -233846.98000  30647120.87400                   -149359.47640  30647124.43640
   2793242.59300  30462665.56100                   2176553.65000  30462667.14700
  22579655.91600  27000474.74900                  17615506.86740  27000476.68240
   -488721.56000  30197883.78800                   -339404.85140  30197884.81940
 96  9 16  3 45 30.0190000  0  9  3 14 18 19 22 27 28 29 31
   -172291.61700  29633919.99100                   -122221.34240  29633922.75740
  30497503.16100  28675863.50700                  23786671.93640  28675867.15140
   -940958.87800  26244018.82700                   -711745.49540  26244021.10040
  -1743558.09300  27687314.60000                  -1308888.42340  27687317.40140
  19453510.41200  28351495.85000                  15777025.68340  28351499.12040
   -249621.16500  30644118.90500                   -161651.00040  30644122.81940
   2858991.94700  30475176.78000                   2227786.92700  30475178.69400
  22684610.49600  27020447.08500                  17697289.64940  27020449.12440
   -516766.25900  30192546.86600                   -361257.85440  30192549.38640
 96  9 16  3 46  0.0190000  0  9  3 14 18 19 22 27 28 29 31
   -165272.66300  29635256.27200                   -116752.05240  29635258.34740
  30664861.57300  28707710.54600                  23917081.06440  28707714.50740
   -914529.48100  26249047.99100                   -691151.16340  26249050.24140
  -1733034.36400  27689317.46000                  -1300688.09440  27689320.72940
  19603751.70600  28380085.51500                  15894096.81440  28380087.76540
   -265358.40200  30641124.70200                   -173913.76940  30641126.17940
   2925218.31400  30487778.89700                   2279391.87700  30487781.09700
  22789924.00500  27040487.41300                  17779352.11040  27040489.45240
   -544842.41100  30187203.92900                   -383135.35840  30187207.83140
 96  9 16  3 46 30.0190000  0  9  3 14 18 19 22 27 28 29 31
   -157898.79400  29636660.05400                   -111006.14540  29636663.46440
  30832467.48700  28739604.57700                  24047683.06440  28739608.01140
   -887660.26500  26254161.19400                   -670214.11740  26254163.38640
  -1722263.03200  27691367.00700                  -1292294.82540  27691370.19440
  19754370.55600  28408747.31100                  16011462.15340  28408749.63240
   -280988.71700  30638150.32700                   -186093.19540  30638154.32340
   2991994.45000  30500486.03000                   2331425.22400  30500487.78800
  22895645.76900  27060605.71800                  17861732.69540  27060607.68640
   -572863.73300  30181872.21800                   -404970.15040  30181875.07740
 96  9 16  3 47  0.0190000  0  9  3 14 18 19 22 27 28 29 31
   -150235.96200  29638117.13200                   -105035.08540  29638120.03840
  31000240.27800  28771531.15500                  24178415.10640  28771534.98740
   -860423.75100  26259344.21800                   -648990.86040  26259346.47940
  -1711320.01100  27693449.42900                  -1283767.77840  27693452.62840
  19905304.05100  28437468.94400                  16129072.65640  28437471.30040
   -296583.63200  30635182.79600                   -198245.04340  30635185.98340
   3059260.10600  30513286.53000                   2383840.03700  30513288.14000
  23001687.95700  27080784.81900                  17944362.95940  27080786.80040
   -600878.42600  30176541.05400                   -426799.78240  30176544.19440
 96  9 16  3 47 30.0190000  0  9  3 14 18 19 22 27 28 29 31
   -142365.85600  29639615.17900                    -98902.53640  29639618.06140
  31168079.09400  28803469.92100                  24309198.57340  28803473.31940
   -832913.56700  26264579.24900                   -627554.35740  26264581.52240
  -1700292.86400  27695547.74900                  -1275175.15840  27695550.87840
  20056463.54900  28466233.74900                  16246859.27840  28466236.12840
   -312231.11300  30632204.95200                   -210437.85840  30632208.43240
   3126930.99200  30526163.83500                   2436570.60600  30526165.74500
  23107960.05500  27101007.81100                  18027172.37440  27101009.74540
   -628983.13200  30171193.36600                   -448699.53840  30171195.58140
 96  9 16  3 48  0.0190000  0  9  3 14 18 19 22 27 28 29 31
   -134122.78800  29641183.13200                    -92479.36140  29641186.69440
  31336139.59500  28835450.64700                  24440154.79540  28835454.72540
   -804985.02300  26269893.76500                   -605791.85340  26269895.99140
  -1689029.99800  27697691.07700                  -1266398.89040  27697694.04240
  20207998.16900  28495069.80400                  16364938.19540  28495072.33540
   -327775.46200  30629246.81100                   -222550.27240  30629251.94440
   3195157.99900  30539146.62400                   2489734.49900  30539148.99500
  23214599.33100  27121300.50700                  18110267.90940  27121302.49940
   -657043.51200  30165853.19400                   -470564.75240  30165855.73740
 96  9 16  3 48 30.0190000  0  9  3 14 18 19 22 27 28 29 31
   -125504.80500  29642823.69400                    -85764.02840  29642827.39740
  31504406.35200  28867470.57700                  24571271.72140  28867474.26840
   -776676.50500  26275280.83500                   -583733.26640  26275283.13240
  -1677537.91300  27699877.90500                  -1257444.00540  27699881.05740
  20359875.21600  28523970.96000                  16483283.94540  28523972.87040
   -343225.50100  30626306.71000                   -234589.25240  30626309.76840
   3263927.13700  30552232.24900                   2543320.85300  30552234.46800
  23321595.00200  27141661.31900                  18193641.15040  27141663.40540
   -685074.96100  30160518.55400                   -492407.44740  30160522.62040
 96  9 16  3 49  0.0190000  0  9  3 14 18 19 22 27 28 29 31
   -116581.55000  29644521.73300                    -78810.82840  29644524.89740
  31672804.97800  28899515.83500                  24702491.41040  28899520.39340
   -748088.75000  26280720.80400                   -561457.09440  26280723.06540
  -1665894.74700  27702093.57700                  -1248371.37140  27702096.67140
  20512006.27200  28552920.85000                  16601827.61440  28552923.56940
   -358647.87700  30623371.95200                   -246606.66640  30623376.17140
   3333159.20400  30565406.74100                   2597267.89000  30565409.06900
  23428885.10000  27162077.67900                  18277243.81440  27162079.70640
   -713155.12600  30155175.39700                   -514288.07740  30155177.83540
 96  9 16  3 49 30.0190000  0  9  3 14 18 19 22 27 28 29 31
   -107355.97300  29646277.31900                    -71622.06040  29646280.07340
  31841337.24100  28931586.74900                  24833815.25840  28931589.71440
   -719216.43000  26286215.20200                   -538959.18440  26286217.40540
  -1654098.11800  27704338.15500                  -1239179.18740  27704341.30740
  20664378.71000  28581916.17900                  16720559.38340  28581918.75740
   -374047.66300  30620442.03800                   -258606.46340  30620445.12040
   3402845.97100  30578667.78800                   2651569.27600  30578670.01100
  23536480.96400  27182552.64700                  18361084.74040  27182554.73340
   -741285.55600  30149822.65500                   -536207.88040  30149825.66740
 96  9 16  3 50  0.0190000  0  9  3 14 18 19 22 27 28 29 31
    -97729.66100  29648109.37400                    -64121.02840  29648110.94440
  32010100.43100  28963701.28800                  24965319.01540  28963704.45240
   -689966.06500  26291781.15500                   -516166.69040  26291783.44040
  -1642061.96400  27706628.63200                  -1229800.35240  27706631.73740
  20817087.93000  28610975.92900                  16839553.58140  28610978.71840
   -389335.09500  30617533.01500                   -270518.71640  30617536.31940
   3473087.32800  30592034.08500                   2706302.78800  30592037.18600
  23644480.36800  27203104.20200                  18445240.10940  27203106.30040
   -769343.66000  30144483.15500                   -558071.34040  30144484.31540
 96  9 16  3 50 30.0190000  0  9  3 14 18 19 22 27 28 29 31
    -87778.47600  29650002.55400                    -56366.85040  29650005.33140
  32179035.73000  28995848.61600                  25096956.89740  28995852.17940
   -660396.62300  26297408.15500                   -493125.56640  26297410.22940
  -1629865.32300  27708949.60000                  -1220296.46040  27708952.69440
  20970055.66200  28640084.74900                  16958749.21640  28640086.56540
   -404574.53900  30614632.79600                   -282393.57740  30614635.59740
   3543821.32500  30605495.04600                   2761420.19200  30605497.27200
  23752824.37100  27223721.36600                  18529663.99540  27223723.19440
   -797376.54200  30139148.85000                   -579915.12740  30139150.84340
 96  9 16  3 51  0.0190000  0  9  3 14 18 19 22 27 28 29 31
    -77567.93100  29651946.52200                    -48410.55640  29651948.67940
  32348093.19300  29028018.78000                  25228689.97340  29028022.74140
   -630533.31600  26303090.85000                   -469855.45840  26303093.12440
  -1617553.00000  27711292.48300                  -1210702.42040  27711295.63640
  21123241.13700  28669234.81900                  17078114.51240  28669237.29240
   -419818.49700  30611731.20200                   -294271.95540  30611733.95640
   3615002.04000  30619040.42900                   2816885.68900  30619042.78800
  23861472.99600  27244396.63200                  18614325.24940  27244398.62440
   -825427.46300  30133810.60000                   -601772.98840  30133813.67140
 96  9 16  3 51 30.0200000  0  9  3 14 18 19 22 27 28 29 31
    -67028.32000  29653951.92600                    -40197.85940  29653955.13740
  32517335.95500  29060224.74600                  25360567.43040  29060228.35540
   -600286.89500  26308846.51200                   -446286.81840  26308848.68040
  -1605053.26500  27713671.40200                  -1200962.35440  27713674.36740
  21276710.92800  28698439.37900                  17197701.34940  28698441.98040
   -435016.79900  30608839.28500                   -306114.75840  30608843.14040
   3686698.13000  30632683.77700                   2872752.78000  30632685.70300
  23970489.38500  27265141.60500                  18699273.07540  27265143.50440
   -853423.56800  30128483.39400                   -623588.12340  30128487.81240
 96  9 16  3 52  0.0200000  0  9  3 14 18 19 22 27 28 29 31
    -56099.72700  29656030.38700                    -31682.07040  29656033.66840
  32686804.38100  29092474.00400                  25492620.73340  29092478.38740
   -569610.47400  26314684.19100                   -422383.11540  26314686.46540
  -1592313.39700  27716095.37100                  -1191035.16840  27716098.30140
  21430494.54300  28727703.12100                  17317532.73440  28727706.20340
   -450107.25000  30605967.96500                   -317873.50540  30605970.87140
   3758956.01300  30646434.06600                   2929057.61900  30646435.62500
  24079914.84400  27285964.41000                  18784539.65340  27285966.57840
   -881311.69400  30123176.17600                   -645319.11040  30123179.76240
 96  9 16  3 52 30.0200000  0  9  3 14 18 19 22 27 28 29 31
    -44877.43000  29658166.31600                    -22937.41440  29658169.89040
  32856385.91500  29124743.86300                  25624762.16740  29124747.28540
   -538593.95200  26320586.22300                   -398214.39340  26320588.43740
  -1579415.94300  27718549.75400                  -1180985.19840  27718552.87140
  21584495.32300  28757008.70700                  17437533.32240  28757011.15640
   -465177.46400  30603100.13700                   -329616.50340  30603104.74240
   3831673.96900  30660271.64400                   2985720.96300  30660273.34000
  24189647.16600  27306846.09000                  18870045.34640  27306848.23440
   -909201.82900  30117869.34800                   -667051.68140  30117872.48840
 96  9 16  3 53  0.0200000  0  9  3 14 18 19 22 27 28 29 31
    -33219.77000  29660385.51900                    -13853.50140  29660387.04340
  33026195.39100  29157057.84800                  25757081.22540  29157061.36340
   -507101.54100  26326578.90200                   -373674.84540  26326581.17640
  -1566215.82700  27721061.75400                  -1170699.38340  27721064.90640
  21738857.77500  28786382.83200                  17557815.75540  28786385.29340
   -480088.14200  30600262.58200                   -341235.21240  30600266.88340
   3904985.94800  30674221.62100                   3042847.17600  30674224.48400
  24299812.26100  27327809.94900                  18955888.26840  27327811.89440
   -936950.67600  30112589.09800                   -688674.16040  30112592.66040
 96  9 16  3 53 30.0200000  0  9  3 14 18 19 22 27 28 29 31
    -21224.68000  29662667.26200                     -4506.67840  29662669.65240
  33196111.50000  29189391.51900                  25889483.37840  29189395.17640
   -475261.97100  26332638.01200                   -348864.79140  26332640.25040
  -1552837.87100  27723607.56600                  -1160274.99440  27723610.48440
  21893455.04800  28815801.68300                  17678281.14340  28815805.15240
   -494938.30400  30597436.51200                   -352806.72840  30597439.25440
   3978772.94100  30688263.02700                   3100343.53400  30688265.84800
  24410290.34500  27348833.12900                  19041975.07440  27348835.15640
   -964680.34600  30107312.10500                   -710281.67640  30107313.65240
 96  9 16  3 54  0.0200000  0  9  3 14 18 19 22 27 28 29 31
     -8796.28900  29665032.69100                      5177.79140  29665037.54340
  33366222.49300  29221762.61300                  26022037.37940  29221766.68040
   -442985.55600  26338779.89400                   -323714.33540  26338782.13340
  -1539191.70000  27726204.25400                  -1149641.61040  27726207.09040
  22048389.80100  28845284.95700                  17799009.51640  28845287.91040
   -509623.74300  30594642.60500                   -364249.88740  30594645.82840
   4053134.03300  30702414.48000                   3158287.23200  30702416.71500
  24521182.50100  27369935.14400                  19128384.53040  27369936.99640
   -992299.80100  30102055.69100                   -731803.30940  30102057.44940
 96  9 16  3 54 30.0200000  0  9  3 14 18 19 22 27 28 29 31
      3979.85500  29667463.21500                     15133.24040  29667467.31640
  33536442.68000  29254154.31600                  26154676.47840  29254157.92640
   -410338.38300  26344992.55800                   -298274.97740  26344994.75040
  -1525356.80400  27728837.05800                  -1138861.16240  27728840.24640
  22203610.65200  28874822.11300                  17919960.81640  28874824.84440
   -524231.74200  30591861.94900                   -375632.71040  30591866.49640
   4128001.18200  30716660.86300                   3216625.26500  30716662.98400
  24632423.53900  27391103.55800                  19215065.85040  27391105.51540
  -1019880.72900  30096807.80800                   -753294.92440  30096809.16840
 96  9 16  3 55  0.0200000  0  9  3 14 18 19 22 27 28 29 31
     17083.44100  29669956.68300                     25343.84140  29669960.73840
  33706769.32900  29286566.49600                  26287398.51940  29286569.85940
   -377345.42900  26351270.76200                   -272566.18140  26351273.02340
  -1511366.98900  27731499.12100                  -1127960.00240  27731502.02740
  22359082.94600  28904407.79300                  18041108.03840  28904410.58240
   -538797.86900  30589090.34800                   -386982.90340  30589093.96940
   4203353.05900  30730999.26900                   3275341.03500  30731001.45300
  24744004.56400  27412336.80100                  19302012.09140  27412338.91040
  -1047455.07000  30091560.32400                   -774781.41540  30091564.08640
 96  9 16  3 55 30.0200000  0  9  3 14 18 19 22 27 28 29 31
     30413.63500  29672494.41800                     35731.01940  29672497.44140
  33877115.73600  29318982.29300                  26420135.98540  29318985.72640
   -344105.56500  26357595.99600                   -246664.98440  26357598.17640
  -1497325.76500  27734171.10500                  -1117018.78740  27734173.81240
  22514712.46300  28934023.37900                  18162377.79440  28934026.29740
   -553434.89400  30586305.38700                   -398388.35640  30586309.57040
   4279094.86200  30745412.41800                   3334360.60300  30745414.53100
  24855834.22700  27433617.30100                  19389152.07740  27433619.37540
  -1075124.27900  30086295.27700                   -796341.82640  30086298.48840
 96  9 16  3 56  0.0200000  0  9  3 14 18 19 22 27 28 29 31
     44191.83700  29675115.80800                     46467.29340  29675118.77340
  34047715.72300  29351446.27700                  26553071.01240  29351449.50040
   -310375.11400  26364014.66000                   -220381.52040  26364016.89840
  -1483004.88100  27736896.43300                  -1105859.65140  27736899.45740
  22670738.87500  28963713.93300                  18283956.81340  28963716.46540
   -567936.21200  30583546.01900                   -409688.07340  30583549.30140
   4355457.62800  30759944.34800                   3393864.06100  30759946.30500
  24968129.63600  27454986.35500                  19476654.98440  27454988.38340
  -1102644.63600  30081058.48000                   -817786.24140  30081061.25840
 96  9 16  3 56 30.0200000  0  9  3 14 18 19 22 27 28 29 31
     58305.75100  29677801.84800                     57465.16740  29677804.44940
  34218458.32400  29383938.04300                  26686117.17640  29383941.75840
   -276267.56300  26370505.34800                   -193804.20440  26370507.53940
  -1468512.46800  27739653.91800                  -1094566.84440  27739656.93040
  22827035.22000  28993455.90200                  18405746.16940  28993458.77340
   -582408.46200  30580791.19100                   -420965.10940  30580793.74640
   4432324.30700  30774571.78500                   3453760.17700  30774574.00400
  25080768.38200  27476420.74600                  19564425.42640  27476422.75040
  -1130126.04700  30075828.52700                   -839200.33740  30075831.30540
 96  9 16  3 57  0.0200000  0  9  3 14 18 19 22 27 28 29 31
     72819.00100  29680562.66000                     68774.19840  29680566.18740
  34389377.51400  29416462.51200                  26819300.94440  29416466.23840
   -241751.25600  26377073.53500                   -166908.38640  26377075.79740
  -1453807.05000  27742452.37900                  -1083108.06340  27742455.37940
  22983620.40300  29023253.41800                  18527760.59640  29023255.85540
   -596801.29900  30578052.80800                   -432180.29340  30578055.29340
   4509727.52400  30789300.84000                   3514074.37000  30789303.37500
  25193777.80700  27497925.73800                  19652484.71040  27497927.83640
  -1157515.97200  30070616.54300                   -860543.11240  30070619.76540
 96  9 16  3 57 30.0200000  0  9  3 14 18 19 22 27 28 29 31
     87726.03800  29683399.79300
  34560435.50300  29449013.83200                  26952592.88340  29449018.03940
   -206830.01900  26383718.82400                   -139697.02640  26383721.08640
  -1438896.83600  27745289.79300                  -1071489.69940  27745292.75840
  23140483.23600  29053103.44900                  18649991.36540  29053106.18040
   -611118.89400  30575328.48800                   -443336.81840  30575332.30840
   4587649.86500  30804128.31600                   3574793.08400  30804131.05100
  25307131.43800  27519496.42600                  19740812.19940  27519498.52340
  -1184816.88700  30065420.35500                   -881816.53840  30065423.30840
 96  9 16  3 58  0.0200000  0  9  3 14 18 19 22 27 28 29 31
    102985.28500  29686304.02700                      8348.44250  29686306.32440
  34731554.12100  29481576.41800                  27085932.05440  29481579.43040
   -171558.19600  26390430.90200                   -112212.49340  26390433.23440
  -1423833.55800  27748156.17600                  -1059752.06040  27748159.31640
  23297551.01100  29082992.41800                  18772381.84140  29082995.84040
   -625413.58600  30572607.76900                   -454475.53240  30572612.32840
   4666026.10800  30819043.42600                   3635865.48700  30819045.10100
  25420772.44400  27541121.66800                  19829363.62040  27541123.68340
  -1212096.71200  30060230.09800                   -903073.54040  30060232.71140
 96  9 16  3 58 30.0200000  0  9  3 14 18 19 22 27 28 29 31
    118616.34600  29689278.87900                     20528.48340  29689282.04340
  34902733.51200  29514151.52700                  27219318.56840  29514155.51240
   -135937.52800  26397209.16000                    -84456.14540  26397211.41040
  -1408608.06600  27751053.44100                  -1047888.02740  27751056.74640
  23454816.72600  29112918.99600                  18894926.53540  29112921.84440
   -639665.76000  30569895.22300                   -465581.07640  30569897.46140
   4744863.15300  30834045.94900                   3697296.96300  30834047.46900
  25534722.16200  27562805.52700                  19918155.60040  27562807.56640
  -1239345.35700  30055044.97300                   -924306.25040  30055047.53940
 96  9 16  3 59  0.0200000  0  9  3 14 18 19 22 27 28 29 31
    134657.91800  29692330.05800                     33028.41940  29692333.52740
  35074024.74500  29546746.99600                  27352792.22840  29546750.98040
    -99908.50300  26404065.44900                    -56381.58640  26404067.66440
  -1393176.07000  27753990.04300                  -1035863.07540  27753993.18340
  23612326.00400  29142892.17600                  19017661.04140  29142894.94140
   -653842.52000  30567198.33200                   -476627.89540  30567200.07840
   4824206.48400  30849144.26900                   3759122.93800  30849146.43000
  25649023.63600  27584556.26900                  20007221.67340  27584558.35540
  -1266510.55600  30049875.13700                   -945473.91040  30049877.73840
 96  9 16  3 59 30.0200000  0  9  3 14 18 19 22 27 28 29 31
    151072.32600  29695454.33200                     45818.88340  29695457.14440
  35245428.17200  29579363.88700                  27486353.33340  29579367.83640
    -63475.53500  26410998.38700                    -27992.26540  26411000.62540
  -1377562.59700  27756961.13700                  -1023696.72340  27756964.10140
  23770066.92600  29172909.14400                  19140576.03840  29172911.51240
   -667963.25800  30564511.44900                   -487631.00540  30564515.01240
   4904047.34100  30864337.00400                   3821336.60000  30864340.07000
  25763657.34100  27606370.41800                  20096546.62540  27606372.45740
  -1293613.72300  30044717.78500                   -966593.23440  30044720.59840
 96  9 16  4  0  0.0200000  0  9  3 14 18 19 22 27 28 29 31
    167816.04200  29698640.26900                     58865.94240  29698642.81240
  35416925.14000  29611998.53500                  27619987.30440  29612002.49640
    -26685.42700  26417999.14400                       675.34540  26418001.44140
  -1361805.57800  27759959.65200                  -1011418.50640  27759962.72340
  23927999.83200  29202962.96500                  19263640.64640  29202966.19940
   -682059.75300  30561828.22300                   -498615.28140  30561832.06640
   4984360.46600  30879620.63700                   3883918.24400  30879622.44900
  25878591.97400  27628241.73800                  20186106.07140  27628243.77740
  -1320672.81500  30039568.96500                   -987678.24440  30039570.65240
 96  9 16  4  0 30.0200000  0  9  3 14 18 19 22 27 28 29 31
    184938.13600  29701898.56600                     72207.85340  29701902.05840
  35588590.08300  29644665.50400                  27753752.20740  29644669.28940
     10521.56900  26425079.48000                     29667.80640  26425081.70740
  -1345847.17500  27762996.47300                   -998983.36340  27762999.50840
  24086177.54900  29233063.01200                  19386895.99740  29233066.24640
   -696072.87600  30559161.30100                   -509534.56340  30559165.09840
   5065206.73100  30895005.42600                   3946915.34800  30895007.25000
  25993871.05600  27650178.73800                  20275933.92140  27650180.75440
  -1347613.08600  30034442.00400                  -1008670.65740  30034443.58640
 96  9 16  4  1  0.0200000  0  9  3 14 18 19 22 27 28 29 31
    202422.61600  29705225.48800                     85832.12340  29705228.28940
  35760401.98700  29677359.95700                  27887631.61140  29677362.52340
     48129.52800  26432236.12100                     58972.69840  26432238.35940
  -1329707.07800  27766067.49600                   -986406.64840  27766070.59040
  24244584.42300  29263206.75400                  19510329.93240  29263209.85940
   -710036.99100  30556504.44900                   -520415.68940  30556506.61740
   5146568.19600  30910487.56600                   4010313.91400  30910489.40200
  26109474.16100  27672177.33200                  20366014.25240  27672179.25440
  -1374452.52700  30029334.48800                  -1029584.49940  30029337.62940
 96  9 16  4  1 30.0200000  0  9  3 14 18 19 22 27 28 29 31
    220223.31600  29708613.67600                     99702.81340  29708616.68740
  35932284.00300  29710068.52700                  28021565.61240  29710071.45740
     86059.08400  26439453.81600                     88528.19040  26439456.10140
  -1313448.49900  27769161.76900                   -973737.61140  27769164.80540
  24403152.12800  29293381.34800                  19633889.17740  29293384.13740
   -724004.25600  30553846.45700                   -531299.26340  30553849.96140
   5228385.32100  30926056.34000                   4074067.51900  30926058.47300
  26225361.11800  27694229.90200                  20456315.76740  27694231.75440
  -1401257.21300  30024233.90200                  -1050471.26140  30024236.87940
 96  9 16  4  2  0.0200000  0  9  3 14 18 19 22 27 28 29 31
    238428.86100  29712078.40200                    113888.96140  29712081.54340
  36104286.50600  29742799.30800                  28155593.52440  29742802.96540
    124361.56000  26446742.51900                    118374.26640  26446744.78140
  -1296994.93700  27772292.63700                   -960916.64440  27772295.57840
  24561938.41000  29323597.25400                  19757618.76540  29323600.12540
   -737904.21200  30551202.01900                   -542130.36940  30551205.51240
   5310717.44300  30941723.97300                   4138222.43700  30941726.66400
  26341605.42700  27716350.35500                  20546895.74040  27716352.67640
  -1427952.37900  30019153.90200                  -1071272.68940  30019156.82040
 96  9 16  4  2 30.0200000  0  9  3 14 18 19 22 27 28 29 31
    257064.40200  29715623.83200                    128410.19840  29715628.16840
  36276414.47100  29775553.71500                  28289719.22040  29775557.23040
    163058.25900  26454106.31600                    148527.53140  26454108.48440
  -1280331.79000  27775463.59000                   -947932.38040  27775466.68340
  24720959.81500  29353858.21500                  19881531.54240  29353861.26240
   -751729.32200  30548570.87900                   -552903.16840  30548575.23840
   5393569.99400  30957490.19100                   4202782.86300  30957492.43300
  26458226.47700  27738542.58200                  20637769.27940  27738544.78540
  -1454527.57800  30014096.40200                  -1091980.59940  30014099.90640
 96  9 16  4  3  0.0200000  0  8  3 14 18 19 22 27 29 31
    276114.64700  29719248.95700                    143254.54740  29719252.00440
  36448630.99100  29808325.84000                  28423913.90240  29808330.55140
    202126.70300  26461540.83200                    178970.46840  26461543.08240
  -1263484.44500  27778669.46500                   -934804.56040  27778672.40640
  24880198.13200  29384159.82400                  20005613.32840  29384163.68040
   -765489.39700  30545951.99600                   -563625.28240  30545955.76940
  26575214.61400  27760804.83200                  20728928.85940  27760806.83640
  -1481003.83100  30009058.36300                  -1112611.43640  30009061.73840
 96  9 16  4  3 30.0200000  0  8  3 14 18 19 22 27 29 31
    295576.12300  29722951.94100                    158419.32640  29722955.52740
  36620929.03700  29841112.95700                  28558172.10740  29841117.36340
    241560.30500  26469044.72300                    209697.94340  26469046.97340
  -1246452.06200  27781910.55100                   -921532.55540  27781913.56240
  25039645.19500  29414501.73800                  20129857.78040  29414503.94140
   -779169.96000  30543348.01200                   -574285.45440  30543351.62140
  26692559.95100  27783134.85500                  20820366.77940  27783136.78940
  -1507377.25100  30004039.34800                  -1133162.15940  30004042.07840
 96  9 16  4  4  0.0210000  0  8  3 14 18 19 22 27 29 31
    315497.79200  29726743.89900                    173942.73240  29726747.28640
  36793365.67500  29873926.57900                  28692538.31940  29873930.18840
    281431.62100  26476631.90700                    240766.49240  26476634.15740
  -1229173.58900  27785198.32100                   -908068.79940  27785201.33340
  25199361.94400  29444894.93800                  20254312.40740  29444898.40740
   -792733.40200  30540767.71200                   -584854.34240  30540769.93840
  26810300.73400  27805540.28200                  20912112.83640  27805542.29840
  -1533581.80600  29999053.64100                  -1153581.27240  29999055.79840
 96  9 16  4  4 30.0210000  0  8  3 14 18 19 22 27 29 31
    335817.62100  29730610.12600                    189776.36840  29730613.85240
  36965873.50000  29906753.41500                  28826959.99640  29906755.99340
    321709.83000  26484296.64900                    272152.10840  26484298.85240
  -1211698.55900  27788523.91500                   -894451.88540  27788526.92740
  25359294.62600  29475329.07900                  20378935.27140  29475331.65740
   -806242.79900  30538196.95400                   -595381.12540  30538201.16140
  26928388.63900  27828011.48500                  21004129.37340  27828013.27840
  -1559665.35800  29994090.18800                  -1173906.12540  29994093.54040
 96  9 16  4  5  0.0210000  0  8  3 14 18 19 22 27 29 31
    356504.22200  29734546.55600                    205895.81140  29734548.85240
  37138416.45300  29939587.43100                  28961409.02940  29939590.78240
    362375.94900  26492035.11800                    303839.98740  26492037.36840
  -1194050.93600  27791882.11800                   -880700.47740  27791884.95440
  25519419.88900  29505799.67300                  20503708.19940  29505802.42740
   -819730.14100  30535630.63400                   -605890.74540  30535633.22340
  27046800.96800  27850544.57900                  21096398.71040  27850546.32540
  -1585656.70200  29989144.12600                  -1194159.10040  29989147.22040
 96  9 16  4  5 30.0210000  0  8  3 14 18 19 22 27 29 31
    377562.93300  29738553.92300                    222305.21740  29738556.98140
  37311006.15900  29972430.23500                  29095894.49540  29972433.09540
    403450.67800  26499851.51600                    335846.27040  26499853.90740
  -1176219.70000  27795275.41500                   -866806.00740  27795278.48540
  25679745.18400  29536308.64100                  20628636.98840  29536311.22040
   -833190.57600  30533069.19600                   -616379.38740  30533073.35640
  27165547.11700  27873141.19600                  21188928.17340  27873142.98940
  -1611540.19300  29984218.47700                  -1214328.02740  29984221.14940
 96  9 16  4  6  0.0210000  0  8  3 14 18 19 22 27 29 31
    399026.83500  29742638.47000                    239030.34840  29742641.35240
  37483665.90300  30005286.13400                  29230434.55240  30005289.75540
    444975.19800  26507753.32900                    368203.03240  26507755.54440
  -1158176.79300  27798708.64100                   -852746.58240  27798711.65340
  25840304.23900  29566861.66500                  20753747.93740  29566863.99740
   -846587.65900  30530519.60200                   -626818.65540  30530523.75140
  27284655.60100  27895806.75900                  21281739.96940  27895808.69240
  -1637275.13100  29979320.46200                  -1234381.21440  29979324.38840
 96  9 16  4  6 30.0210000  0  8  3 14 18 19 22 27 29 31
    420878.79700  29746796.50100                    256057.85040  29746800.05240
  37656366.22800  30038150.07100                  29365006.23340  30038153.98540
    486921.18000  26515735.39100                    400888.20740  26515737.66540
  -1139960.72600  27802175.09500                   -838552.22640  27802177.94240
  26001054.79800  29597451.71200                  20879008.11240  29597453.90340
   -859941.57900  30527978.22700                   -637224.28140  30527981.93140
  27404097.87500  27918535.97000                  21374811.85840  27918537.99740
  -1662895.46600  29974445.43100                  -1254345.10240  29974447.65740
 96  9 16  4  7  0.0210000  0  8  3 14 18 19 22 27 29 31
    443206.99100  29751045.68100                    273456.45940  29751049.09140
  37829193.62100  30071037.95400                  29499676.91440  30071041.76340
    529362.78400  26523811.74300                    433959.57940  26523814.04040
  -1121502.77600  27805687.59500                   -824169.39440  27805690.52440
  26162063.93000  29628091.55600                  21004469.76740  29628093.64140
   -873158.98800  30525462.75100                   -647523.55040  30525465.25940
  27523934.97300  27941340.32100                  21468191.41540  27941342.53640
  -1688316.25200  29969608.09500                  -1274153.50940  29969610.96640
 96  9 16  4  7 30.0210000  0  8  3 14 18 19 22 27 29 31
    465931.76500  29755369.07900                    291164.10040  29755372.12640
  38002076.74100  30103937.14900                  29634391.01540  30103940.73540
    572203.33900  26531964.08700                    467341.82540  26531966.39540
  -1102893.08000  27809228.80600                   -809668.32540  27809231.79440
  26323244.39700  29658762.48500                  21130064.93540  29658764.67740
   -886312.03100  30522960.57900                   -657772.65340  30522963.53240
  27644071.88400  27964201.58700                  21561804.58540  27964203.35640
  -1713612.28300  29964794.00100                  -1293864.67640  29964797.45840
 96  9 16  4  8  0.0210000  0  8  3 14 18 19 22 27 29 31
    489033.76300  29759765.79000                    309165.66340  29759769.09540
  38174989.23000  30136840.66500                  29769128.02140  30136844.97740
    615414.54200  26540186.92300                    501012.88740  26540189.23140
  -1084157.29700  27812794.24300                   -795069.02040  27812797.29040
  26484567.03400  29689461.27400                  21255770.87940  29689465.02440
   -899442.10100  30520461.86000                   -668003.86440  30520465.24740
  27764494.49100  27987117.23500                  21655640.37340  27987119.11040
  -1738817.62000  29959997.93100                  -1313505.18340  29960001.37640
 96  9 16  4  8 30.0210000  0  8  3 14 18 19 22 27 29 31
    512626.15100  29764255.53200                    327549.35540  29764258.68440
  38348051.26600  30169773.29000                  29903981.53640  30169776.47740
    659107.61700  26548501.36000                    535059.44040  26548503.69240
  -1065194.39100  27816402.72700                   -780292.72640  27816405.49340
  26646139.31300  29720207.80600                  21381671.35640  29720211.07540
   -912449.08100  30517986.87600                   -678139.16540  30517989.78240
  27885326.75300  28010110.67300                  21749795.37340  28010112.82940
  -1763840.51900  29955235.99300                  -1333003.55440  29955239.04040
 96  9 16  4  9  0.0210000  0  8  3 14 18 19 22 27 29 31
    536672.34500  29768831.68100                    346286.66340  29768834.71640
  38521222.91800  30202727.06300                  30038920.46540  30202729.60640
    703235.96100  26556898.55600                    569445.16140  26556900.87640
  -1046029.35900  27820049.54800                   -765358.93540  27820052.71240
  26807951.82000  29750999.17300                  21507759.01140  29751002.84140
   -925355.17500  30515530.41500                   -688195.84740  30515534.42340
  28006541.98600  28033177.34500                  21844248.79240  28033179.48940
  -1788707.63900  29950504.59500                  -1352380.50440  29950508.05240
 96  9 16  4  9 30.0210000  0  8  3 14 18 19 22 27 29 31
    561091.02900  29773478.22700                    365314.22440  29773481.32140
  38694412.27900  30235684.00100                  30173873.22040  30235687.57540
    747714.91100  26565362.75100                    604104.07740  26565365.13040
  -1026741.20000  27823720.17300                   -750329.19940  27823723.06740
  26969915.72400  29781820.63400                  21633964.63740  29781823.63440
   -938256.97100  30513074.94600                   -698249.17540  30513078.34540
  28128060.99800  28056301.53200                  21938938.92240  28056303.72340
  -1813512.13800  29945784.32900                  -1371708.69040  29945787.29440
 96  9 16  4 10  0.0210000  0  8  3 14 18 19 22 27 29 31
    586002.05400  29778217.88400                    384725.43540  29778220.33340
  38867721.90600  30268663.43100                  30308919.67240  30268666.77040
    792683.59400  26573920.11800                    639144.60440  26573922.47340
  -1007203.27600  27827438.13400                   -735104.83440  27827441.07540
  27132141.71000  29812691.07100                  21760374.49540  29812693.73140
   -951053.87500  30510639.89900                   -708220.77740  30510642.22040
  28250003.33500  28079506.60200                  22033958.91140  28079508.47740
  -1838145.88500  29941095.83700                  -1390903.80240  29941098.41540
 96  9 16  4 10 30.0210000  0  8  3 14 18 19 22 27 29 31
    611266.85600  29783026.15700                    404412.29340  29783029.67340
  39041000.86600  30301637.42300                  30443942.21340  30301640.71640
    838005.94800  26582544.67300                    674460.71740  26582547.02840
   -987552.01600  27831177.47000                   -719792.17440  27831180.38840
  27294485.47700  29843584.07100                  21886876.12640  29843586.62640
   -963868.68200  30508202.12600                   -718206.30840  30508204.77440
  28372206.67800  28102761.07100                  22129182.28240  28102762.79440
  -1862729.70900  29936417.92300                  -1410060.01840  29936420.70040
 96  9 16  4 11  0.0210000  0  8  3 14 18 19 22 27 29 31
    636985.77300  29787920.11000                    424453.02940  29787924.13040
  39214334.29400  30334621.46200                  30579007.22340  30334625.15340
    883778.03000  26591254.76600                    710127.27640  26591257.01640
   -967674.87800  27834960.24300                   -704303.49140  27834963.36040
  27457040.67100  29874516.89100                  22013542.47740  29874519.25940
   -976605.67400  30505777.81300                   -728131.19740  30505780.53240
  28494763.35500  28126082.83700                  22224680.97740  28126084.77040
  -1887145.57900  29931771.88400                  -1429085.36240  29931775.77440
 96  9 16  4 11 30.0210000  0  8  3 14 18 19 22 27 29 31
    663122.07500  29792893.94600                    444818.99740  29792897.63840
  39387675.13700  30367607.82900                  30714077.99840  30367611.52040
    929980.84300  26600046.99300                    746129.46640  26600049.27840
   -947622.82600  27838775.93800                   -688678.52940  27838778.93840
  27619744.96700  29905479.00100                  22140325.05440  29905481.86040
   -989311.64800  30503359.21200                   -738031.95740  30503362.03640
  28617634.00600  28149464.23500                  22320424.33440  28149466.25140
  -1911433.20100  29927150.48500                  -1448010.76640  29927153.18140
 96  9 16  4 12  0.0210000  0  8  3 14 18 19 22 27 29 31
    689680.38100  29797947.48500                    465513.79040  29797951.09540
  39561014.75700  30400593.10200                  30849147.82340  30400596.67740
    976599.88100  26608918.00100                    782455.98440  26608920.32140
   -927400.77200  27842623.82900                   -672921.06740  27842626.68840
  27782596.00800  29936468.37600                  22267221.95340  29936470.90740
  -1001974.16300  30500949.72700                   -747898.82840  30500955.27040
  28740819.74200  28172905.73500                  22416413.20840  28172907.84540
  -1935574.56800  29922555.88400                  -1466822.20740  29922559.10640
 96  9 16  4 12 30.0210000  0  8  3 14 18 19 22 27 29 31
    716687.25300  29803087.37600                    486558.12040  29803090.18840
  39734377.43500  30433583.00100                  30984235.60040  30433586.73940
   1023630.56300  26617867.93800                    819103.26440  26617870.30640
   -907003.09100  27846505.57100                   -657026.78040  27846508.39540
  27945608.98000  29967488.25100                  22394245.00940  29967491.42740
  -1014566.09100  30498554.23500                   -757710.69540  30498557.38840
  28864345.91900  28196412.07900                  22512667.36240  28196414.42340
  -1959542.67700  29917995.13400                  -1485498.65540  29917998.13440
 96  9 16  4 13  0.0210000  0  8  3 14 18 19 22 27 29 31
    744146.36500  29808312.16500                    507954.84640  29808315.55240
  39907772.10800  30466578.49300                  31119348.32640  30466582.53640
   1071063.02300  26626893.89900                    856063.61840  26626896.29040
   -886442.69200  27850417.97700                   -641005.68840  27850420.87240
  28108776.54100  29998537.81300                  22521388.56740  29998540.55640
  -1027101.99400  30496169.02400                   -767478.92440  30496172.51640
  28988216.99200  28219984.14100                  22609190.26740  28219986.28640
  -1983340.75500  29913466.83700                  -1504042.58940  29913470.13040
 96  9 16  4 13 30.0210000  0  9  3 14 16 18 19 22 27 29 31
    771974.17800  29813607.37600                    529638.86540  29813610.70440
  40081129.47900  30499567.02400                  31254432.00040  30499570.85640
     -3661.26610  31196060.19600
   1118822.00500  26635982.13400                    893278.40640  26635984.39540
   -865800.63200  27854346.22700                   -624920.97540  27854349.12240
  28272008.04000  30029599.97000                  22648581.90640  30029601.96240
  -1039655.36100  30493780.14900                   -777260.74240  30493782.70440
  29112342.46700  28243604.31300                  22705911.40340  28243606.20040
  -2007047.42400  29908955.55600                  -1522515.32940  29908957.64140
